Wetterdaten: Sonntag, 09.12.2018
Datum Zeit Temp. A. Pool Temp. Temp. 5cm Feuchte A. Luftdruck Regen Wind Richtung Richtung Sonnenschein ET UV Solar Taupunkt Windchill Windben Empfang
09.12.2018 00:00 7,7 C 4,4 C 5,6 C 65 % 1006,8 hPa 0,0 l/m 3,4 km/h (1 Bft) S-SW 211 0 min 0,000 mm 0,0 UV-I 0 W/m 1,5 C 7,7 C 4,8 km/h (1 Bft) 96,15 %
09.12.2018 00:02 7,6 C 4,4 C 5,6 C 65 % 1006,8 hPa 0,0 l/m 3,7 km/h (1 Bft) S-SW 211 0 min 0,000 mm 0,0 UV-I 0 W/m 1,5 C 7,6 C 4,8 km/h (1 Bft) 97,78 %
09.12.2018 00:04 7,5 C 4,4 C 5,6 C 66 % 1006,7 hPa 0,0 l/m 3,3 km/h (1 Bft) S-SW 211 0 min 0,000 mm 0,0 UV-I 0 W/m 1,6 C 7,5 C 4,8 km/h (1 Bft) 97,22 %
09.12.2018 00:06 7,4 C 4,4 C 5,0 C 67 % 1006,7 hPa 0,0 l/m 3,9 km/h (1 Bft) S-SW 211 0 min 0,000 mm 0,0 UV-I 0 W/m 1,7 C 7,4 C 6,4 km/h (2 Bft) 96,00 %
09.12.2018 00:08 7,3 C 4,4 C 5,0 C 67 % 1006,6 hPa 0,0 l/m 4,6 km/h (1 Bft) SW 221 0 min 0,000 mm 0,0 UV-I 0 W/m 1,6 C 7,3 C 6,4 km/h (2 Bft) 96,00 %
09.12.2018 00:10 7,3 C 4,4 C 5,0 C 67 % 1006,6 hPa 0,0 l/m 5,0 km/h (1 Bft) W-SW 244 0 min 0,000 mm 0,0 UV-I 0 W/m 1,6 C 7,3 C 6,4 km/h (2 Bft) 97,14 %
09.12.2018 00:12 7,2 C 4,4 C 5,0 C 68 % 1006,6 hPa 0,0 l/m 4,3 km/h (1 Bft) W-SW 242 0 min 0,000 mm 0,0 UV-I 0 W/m 1,7 C 7,2 C 6,4 km/h (2 Bft) 98,44 %
09.12.2018 00:14 7,2 C 4,4 C 5,0 C 68 % 1006,5 hPa 0,0 l/m 3,2 km/h (1 Bft) W-SW 242 0 min 0,000 mm 0,0 UV-I 0 W/m 1,7 C 7,2 C 4,8 km/h (1 Bft) 97,37 %
09.12.2018 00:16 7,1 C 4,4 C 4,4 C 68 % 1006,3 hPa 0,0 l/m 3,6 km/h (1 Bft) W-SW 242 0 min 0,000 mm 0,0 UV-I 0 W/m 1,6 C 7,1 C 4,8 km/h (1 Bft) 100,00 %
09.12.2018 00:18 7,1 C 4,4 C 4,4 C 68 % 1006,2 hPa 0,0 l/m 3,3 km/h (1 Bft) W-SW 242 0 min 0,000 mm 0,0 UV-I 0 W/m 1,6 C 7,1 C 4,8 km/h (1 Bft) 100,00 %
09.12.2018 00:20 7,0 C 4,4 C 4,4 C 69 % 1006,2 hPa 0,0 l/m 3,0 km/h (1 Bft) W-SW 242 0 min 0,000 mm 0,0 UV-I 0 W/m 1,7 C 7,0 C 4,8 km/h (1 Bft) 100,00 %
09.12.2018 00:22 6,9 C 4,4 C 3,9 C 69 % 1006,1 hPa 0,0 l/m 3,4 km/h (1 Bft) W-SW 242 0 min 0,000 mm 0,0 UV-I 0 W/m 1,6 C 6,9 C 4,8 km/h (1 Bft) 96,77 %
09.12.2018 00:24 6,8 C 4,4 C 3,9 C 70 % 1006,0 hPa 0,0 l/m 2,9 km/h (1 Bft) W-SW 242 0 min 0,000 mm 0,0 UV-I 0 W/m 1,7 C 6,8 C 3,2 km/h (1 Bft) 98,11 %
09.12.2018 00:26 6,7 C 4,4 C 3,3 C 70 % 1006,0 hPa 0,0 l/m 3,0 km/h (1 Bft) W-SW 242 0 min 0,000 mm 0,0 UV-I 0 W/m 1,6 C 6,7 C 4,8 km/h (1 Bft) 100,00 %
09.12.2018 00:28 6,7 C 4,4 C 3,3 C 70 % 1005,9 hPa 0,0 l/m 3,6 km/h (1 Bft) W-SW 242 0 min 0,000 mm 0,0 UV-I 0 W/m 1,6 C 6,7 C 4,8 km/h (1 Bft) 98,00 %
09.12.2018 00:30 6,7 C 4,4 C 3,3 C 70 % 1005,9 hPa 0,0 l/m 4,1 km/h (1 Bft) W-SW 242 0 min 0,000 mm 0,0 UV-I 0 W/m 1,6 C 6,7 C 4,8 km/h (1 Bft) 100,00 %
09.12.2018 00:32 6,6 C 4,4 C 2,8 C 70 % 1005,9 hPa 0,0 l/m 4,7 km/h (1 Bft) W-SW 242 0 min 0,000 mm 0,0 UV-I 0 W/m 1,5 C 6,6 C 6,4 km/h (2 Bft) 97,73 %
09.12.2018 00:34 6,7 C 4,4 C 2,2 C 69 % 1005,8 hPa 0,0 l/m 4,2 km/h (1 Bft) W-SW 244 0 min 0,000 mm 0,0 UV-I 0 W/m 1,4 C 6,7 C 6,4 km/h (2 Bft) 98,00 %
09.12.2018 00:36 6,6 C 4,4 C 2,2 C 69 % 1005,7 hPa 0,0 l/m 4,4 km/h (1 Bft) W-SW 243 0 min 0,000 mm 0,0 UV-I 0 W/m 1,3 C 6,6 C 6,4 km/h (2 Bft) 100,00 %
09.12.2018 00:38 6,4 C 4,4 C 1,7 C 70 % 1005,7 hPa 0,0 l/m 4,4 km/h (1 Bft) W-SW 246 0 min 0,000 mm 0,0 UV-I 0 W/m 1,3 C 6,4 C 6,4 km/h (2 Bft) 100,00 %
09.12.2018 00:40 6,4 C 4,4 C 1,7 C 69 % 1005,7 hPa 0,0 l/m 3,0 km/h (1 Bft) W-SW 245 0 min 0,000 mm 0,0 UV-I 0 W/m 1,1 C 6,4 C 4,8 km/h (1 Bft) 98,11 %
09.12.2018 00:42 6,5 C 4,4 C 1,1 C 69 % 1005,6 hPa 0,0 l/m 4,9 km/h (1 Bft) W-SW 244 0 min 0,000 mm 0,0 UV-I 0 W/m 1,2 C 6,5 C 6,4 km/h (2 Bft) 97,22 %
09.12.2018 00:44 6,2 C 4,4 C 1,1 C 70 % 1005,5 hPa 0,0 l/m 4,4 km/h (1 Bft) W-SW 244 0 min 0,000 mm 0,0 UV-I 0 W/m 1,1 C 6,2 C 6,4 km/h (2 Bft) 100,00 %
09.12.2018 00:46 5,7 C 4,4 C 1,1 C 72 % 1005,4 hPa 0,0 l/m 4,1 km/h (1 Bft) SW 225 0 min 0,000 mm 0,0 UV-I 0 W/m 1,1 C 5,7 C 4,8 km/h (1 Bft) 100,00 %
09.12.2018 00:48 5,3 C 4,4 C 1,1 C 74 % 1005,3 hPa 0,0 l/m 4,0 km/h (1 Bft) SW 225 0 min 0,000 mm 0,0 UV-I 0 W/m 1,0 C 5,3 C 6,4 km/h (2 Bft) 100,00 %
09.12.2018 00:50 5,1 C 4,4 C 0,6 C 75 % 1005,3 hPa 0,0 l/m 3,5 km/h (1 Bft) SW 225 0 min 0,000 mm 0,0 UV-I 0 W/m 1,0 C 5,1 C 4,8 km/h (1 Bft) 100,00 %
09.12.2018 00:52 4,9 C 4,4 C 1,1 C 76 % 1005,1 hPa 0,0 l/m 3,3 km/h (1 Bft) SW 225 0 min 0,000 mm 0,0 UV-I 0 W/m 1,0 C 4,9 C 4,8 km/h (1 Bft) 98,11 %
09.12.2018 00:54 4,9 C 4,4 C 0,6 C 75 % 1005,1 hPa 0,0 l/m 3,0 km/h (1 Bft) SW 225 0 min 0,000 mm 0,0 UV-I 0 W/m 0,8 C 4,9 C 4,8 km/h (1 Bft) 98,11 %
09.12.2018 00:56 4,9 C 4,4 C 0,6 C 75 % 1005,2 hPa 0,0 l/m 3,0 km/h (1 Bft) SW 225 0 min 0,000 mm 0,0 UV-I 0 W/m 0,8 C 4,9 C 3,2 km/h (1 Bft) 97,56 %
09.12.2018 00:58 4,9 C 4,4 C 0,6 C 75 % 1005,2 hPa 0,0 l/m 2,5 km/h (1 Bft) SW 225 0 min 0,000 mm 0,0 UV-I 0 W/m 0,8 C 4,9 C 3,2 km/h (1 Bft) 98,00 %
09.12.2018 01:00 5,1 C 4,4 C 1,1 C 74 % 1005,2 hPa 0,0 l/m 3,0 km/h (1 Bft) SW 225 0 min 0,025 mm 0,0 UV-I 0 W/m 0,9 C 5,1 C 4,8 km/h (1 Bft) 97,92 %
09.12.2018 01:02 4,9 C 4,4 C 1,1 C 75 % 1005,2 hPa 0,0 l/m 3,1 km/h (1 Bft) SW 225 0 min 0,000 mm 0,0 UV-I 0 W/m 0,8 C 4,9 C 4,8 km/h (1 Bft) 97,37 %
09.12.2018 01:04 4,8 C 4,4 C 1,1 C 76 % 1005,2 hPa 0,0 l/m 2,1 km/h (1 Bft) SW 225 0 min 0,000 mm 0,0 UV-I 0 W/m 0,9 C 4,8 C 3,2 km/h (1 Bft) 97,87 %
09.12.2018 01:06 4,9 C 4,4 C 2,2 C 77 % 1005,2 hPa 0,0 l/m 2,5 km/h (1 Bft) SW 225 0 min 0,000 mm 0,0 UV-I 0 W/m 1,2 C 4,9 C 4,8 km/h (1 Bft) 94,00 %
09.12.2018 01:08 5,0 C 4,4 C 2,8 C 78 % 1005,1 hPa 0,0 l/m 1,0 km/h (0 Bft) SW 225 0 min 0,000 mm 0,0 UV-I 0 W/m 1,5 C 5,0 C 3,2 km/h (1 Bft) 94,00 %
09.12.2018 01:10 4,9 C 4,4 C 2,8 C 78 % 1005,0 hPa 0,0 l/m 2,7 km/h (1 Bft) SW 225 0 min 0,000 mm 0,0 UV-I 0 W/m 1,4 C 4,9 C 3,2 km/h (1 Bft) 92,11 %
09.12.2018 01:12 5,0 C 4,4 C 3,3 C 77 % 1005,1 hPa 0,0 l/m 1,1 km/h (1 Bft) SW 225 0 min 0,000 mm 0,0 UV-I 0 W/m 1,3 C 5,0 C 3,2 km/h (1 Bft) 96,00 %
09.12.2018 01:14 5,2 C 4,4 C 3,3 C 77 % 1005,0 hPa 0,0 l/m 0,8 km/h (0 Bft) SW 225 0 min 0,000 mm 0,0 UV-I 0 W/m 1,5 C 5,2 C 1,6 km/h (1 Bft) 94,00 %
09.12.2018 01:16 5,3 C 4,4 C 3,3 C 76 % 1005,0 hPa 0,0 l/m 0,6 km/h (0 Bft) SW 225 0 min 0,000 mm 0,0 UV-I 0 W/m 1,4 C 5,3 C 1,6 km/h (1 Bft) 95,74 %
09.12.2018 01:18 5,5 C 4,4 C 3,3 C 74 % 1005,0 hPa 0,0 l/m 1,4 km/h (1 Bft) SW 225 0 min 0,000 mm 0,0 UV-I 0 W/m 1,2 C 5,5 C 3,2 km/h (1 Bft) 95,12 %
09.12.2018 01:20 5,7 C 4,4 C 3,3 C 73 % 1004,9 hPa 0,0 l/m 0,8 km/h (0 Bft) SW 225 0 min 0,000 mm 0,0 UV-I 0 W/m 1,2 C 5,7 C 3,2 km/h (1 Bft) 98,11 %
09.12.2018 01:22 5,7 C 4,4 C 3,9 C 74 % 1004,9 hPa 0,0 l/m 0,2 km/h (0 Bft) SW 225 0 min 0,000 mm 0,0 UV-I 0 W/m 1,4 C 5,7 C 1,6 km/h (1 Bft) 98,11 %
09.12.2018 01:24 5,7 C 4,4 C 3,9 C 74 % 1004,8 hPa 0,0 l/m 0,5 km/h (0 Bft) SW 225 0 min 0,000 mm 0,0 UV-I 0 W/m 1,4 C 5,7 C 1,6 km/h (1 Bft) 97,22 %
09.12.2018 01:26 5,6 C 4,4 C 3,9 C 75 % 1004,8 hPa 0,0 l/m 2,2 km/h (1 Bft) SW 225 0 min 0,000 mm 0,0 UV-I 0 W/m 1,5 C 5,6 C 3,2 km/h (1 Bft) 98,00 %
09.12.2018 01:28 5,6 C 4,4 C 4,4 C 74 % 1004,8 hPa 0,0 l/m 4,3 km/h (1 Bft) S 176 0 min 0,000 mm 0,0 UV-I 0 W/m 1,3 C 5,6 C 4,8 km/h (1 Bft) 95,74 %
09.12.2018 01:30 5,6 C 4,4 C 4,4 C 74 % 1004,8 hPa 0,0 l/m 4,1 km/h (1 Bft) S 176 0 min 0,000 mm 0,0 UV-I 0 W/m 1,3 C 5,6 C 4,8 km/h (1 Bft) 95,74 %
09.12.2018 01:32 5,6 C 4,4 C 4,4 C 75 % 1004,9 hPa 0,0 l/m 4,5 km/h (1 Bft) S 178 0 min 0,000 mm 0,0 UV-I 0 W/m 1,5 C 5,6 C 6,4 km/h (2 Bft) 97,87 %
09.12.2018 01:34 5,6 C 4,4 C 4,4 C 75 % 1004,8 hPa 0,0 l/m 5,4 km/h (1 Bft) S 185 0 min 0,000 mm 0,0 UV-I 0 W/m 1,5 C 5,6 C 6,4 km/h (2 Bft) 98,00 %
09.12.2018 01:36 5,6 C 4,4 C 4,4 C 75 % 1004,8 hPa 0,0 l/m 5,5 km/h (1 Bft) S 190 0 min 0,000 mm 0,0 UV-I 0 W/m 1,5 C 5,6 C 6,4 km/h (2 Bft) 97,87 %
09.12.2018 01:38 5,6 C 4,4 C 4,4 C 75 % 1004,8 hPa 0,0 l/m 3,5 km/h (1 Bft) S-SW 211 0 min 0,000 mm 0,0 UV-I 0 W/m 1,5 C 5,6 C 6,4 km/h (2 Bft) 98,00 %
09.12.2018 01:40 5,7 C 4,4 C 4,4 C 73 % 1004,8 hPa 0,0 l/m 2,3 km/h (1 Bft) S-SW 211 0 min 0,000 mm 0,0 UV-I 0 W/m 1,2 C 5,7 C 3,2 km/h (1 Bft) 97,56 %
09.12.2018 01:42 5,8 C 4,4 C 4,4 C 72 % 1004,8 hPa 0,0 l/m 5,1 km/h (1 Bft) S-SW 210 0 min 0,000 mm 0,0 UV-I 0 W/m 1,2 C 5,8 C 8,0 km/h (2 Bft) 98,00 %
09.12.2018 01:44 5,7 C 4,4 C 4,4 C 74 % 1005,0 hPa 0,0 l/m 7,0 km/h (2 Bft) W-SW 237 0 min 0,000 mm 0,0 UV-I 0 W/m 1,4 C 5,2 C 11,3 km/h (2 Bft) 95,74 %
09.12.2018 01:46 5,6 C 4,4 C 5,0 C 75 % 1005,0 hPa 0,0 l/m 9,1 km/h (2 Bft) SW 227 0 min 0,000 mm 0,0 UV-I 0 W/m 1,5 C 3,4 C 16,1 km/h (3 Bft) 98,00 %
09.12.2018 01:48 5,7 C 4,4 C 5,0 C 75 % 1004,8 hPa 0,0 l/m 9,4 km/h (2 Bft) W-SW 248 0 min 0,000 mm 0,0 UV-I 0 W/m 1,6 C 3,3 C 20,9 km/h (4 Bft) 97,73 %
09.12.2018 01:50 6,1 C 4,4 C 5,6 C 72 % 1004,9 hPa 0,0 l/m 15,4 km/h (3 Bft) W 270 0 min 0,000 mm 0,0 UV-I 0 W/m 1,4 C 0,2 C 22,5 km/h (4 Bft) 97,37 %
09.12.2018 01:52 6,6 C 4,4 C 6,1 C 68 % 1004,9 hPa 0,0 l/m 17,6 km/h (3 Bft) W 266 0 min 0,000 mm 0,0 UV-I 0 W/m 1,1 C -0,2 C 29,0 km/h (5 Bft) 97,56 %
09.12.2018 01:54 7,2 C 4,4 C 6,7 C 66 % 1004,7 hPa 0,0 l/m 16,6 km/h (3 Bft) W 261 0 min 0,000 mm 0,0 UV-I 0 W/m 1,3 C 1,0 C 24,1 km/h (4 Bft) 95,16 %
09.12.2018 01:56 7,7 C 4,4 C 6,7 C 65 % 1004,7 hPa 0,0 l/m 15,3 km/h (3 Bft) W-SW 242 0 min 0,000 mm 0,0 UV-I 0 W/m 1,5 C 2,2 C 20,9 km/h (4 Bft) 95,12 %
09.12.2018 01:58 7,9 C 4,4 C 6,1 C 63 % 1004,6 hPa 0,0 l/m 18,4 km/h (3 Bft) W-SW 254 0 min 0,000 mm 0,0 UV-I 0 W/m 1,3 C 1,2 C 27,4 km/h (4 Bft) 93,62 %
09.12.2018 02:00 8,1 C 4,4 C 6,1 C 64 % 1004,4 hPa 0,0 l/m 17,2 km/h (3 Bft) W 275 0 min 0,000 mm 0,0 UV-I 0 W/m 1,7 C 1,9 C 22,5 km/h (4 Bft) 100,00 %
09.12.2018 02:02 8,2 C 4,4 C 6,7 C 64 % 1004,4 hPa 0,0 l/m 13,2 km/h (3 Bft) SW 236 0 min 0,026 mm 0,0 UV-I 0 W/m 1,8 C 3,8 C 22,5 km/h (4 Bft) 93,55 %
09.12.2018 02:04 8,2 C 4,4 C 6,7 C 64 % 1004,2 hPa 0,0 l/m 16,3 km/h (3 Bft) W-SW 242 0 min 0,000 mm 0,0 UV-I 0 W/m 1,8 C 2,4 C 20,9 km/h (4 Bft) 96,00 %
09.12.2018 02:06 8,2 C 4,4 C 6,7 C 64 % 1004,4 hPa 0,0 l/m 14,9 km/h (3 Bft) W-SW 245 0 min 0,000 mm 0,0 UV-I 0 W/m 1,8 C 3,0 C 20,9 km/h (4 Bft) 96,23 %
09.12.2018 02:08 8,2 C 4,4 C 6,7 C 64 % 1004,3 hPa 0,0 l/m 14,5 km/h (3 Bft) W-NW 282 0 min 0,000 mm 0,0 UV-I 0 W/m 1,8 C 3,2 C 20,9 km/h (4 Bft) 92,68 %
09.12.2018 02:10 8,1 C 4,4 C 6,7 C 65 % 1004,1 hPa 0,0 l/m 12,0 km/h (2 Bft) S 188 0 min 0,000 mm 0,0 UV-I 0 W/m 1,9 C 4,3 C 17,7 km/h (3 Bft) 96,00 %
09.12.2018 02:12 8,0 C 4,4 C 6,7 C 65 % 1004,1 hPa 0,0 l/m 7,7 km/h (2 Bft) SW 234 0 min 0,000 mm 0,0 UV-I 0 W/m 1,8 C 7,0 C 14,5 km/h (3 Bft) 90,00 %
09.12.2018 02:14 7,9 C 4,4 C 6,7 C 66 % 1004,1 hPa 0,0 l/m 7,7 km/h (2 Bft) SW 220 0 min 0,000 mm 0,0 UV-I 0 W/m 1,9 C 6,9 C 16,1 km/h (3 Bft) 92,68 %
09.12.2018 02:16 7,9 C 4,4 C 6,7 C 66 % 1004,0 hPa 0,0 l/m 7,6 km/h (2 Bft) S 180 0 min 0,000 mm 0,0 UV-I 0 W/m 1,9 C 7,0 C 11,3 km/h (2 Bft) 90,00 %
09.12.2018 02:18 7,8 C 4,4 C 6,1 C 66 % 1004,1 hPa 0,0 l/m 5,3 km/h (1 Bft) SW 234 0 min 0,000 mm 0,0 UV-I 0 W/m 1,9 C 7,8 C 8,0 km/h (2 Bft) 94,00 %
09.12.2018 02:20 7,7 C 4,4 C 6,1 C 67 % 1003,8 hPa 0,0 l/m 5,9 km/h (2 Bft) S 178 0 min 0,000 mm 0,0 UV-I 0 W/m 2,0 C 7,7 C 9,7 km/h (2 Bft) 92,31 %
09.12.2018 02:22 7,7 C 4,4 C 6,1 C 66 % 1003,9 hPa 0,0 l/m 8,4 km/h (2 Bft) S-SW 200 0 min 0,000 mm 0,0 UV-I 0 W/m 1,8 C 6,1 C 11,3 km/h (2 Bft) 92,45 %
09.12.2018 02:24 7,7 C 4,4 C 6,1 C 66 % 1004,0 hPa 0,0 l/m 5,9 km/h (2 Bft) SW 221 0 min 0,000 mm 0,0 UV-I 0 W/m 1,8 C 7,7 C 9,7 km/h (2 Bft) 94,34 %
09.12.2018 02:26 7,7 C 4,4 C 6,1 C 66 % 1004,1 hPa 0,0 l/m 4,9 km/h (1 Bft) SW 234 0 min 0,000 mm 0,0 UV-I 0 W/m 1,8 C 7,7 C 11,3 km/h (2 Bft) 93,62 %
09.12.2018 02:28 7,6 C 4,4 C 6,1 C 67 % 1004,1 hPa 0,0 l/m 6,1 km/h (2 Bft) S-SW 199 0 min 0,000 mm 0,0 UV-I 0 W/m 1,9 C 7,6 C 11,3 km/h (2 Bft) 95,74 %
09.12.2018 02:30 7,6 C 4,4 C 6,1 C 67 % 1003,9 hPa 0,0 l/m 8,2 km/h (2 Bft) S-SO 153 0 min 0,000 mm 0,0 UV-I 0 W/m 1,9 C 6,2 C 12,9 km/h (3 Bft) 94,00 %
09.12.2018 02:32 7,5 C 4,4 C 6,1 C 67 % 1003,7 hPa 0,0 l/m 11,4 km/h (2 Bft) S-SO 167 0 min 0,000 mm 0,0 UV-I 0 W/m 1,8 C 4,0 C 17,7 km/h (3 Bft) 97,87 %
09.12.2018 02:34 7,5 C 4,4 C 6,7 C 67 % 1004,0 hPa 0,0 l/m 10,5 km/h (2 Bft) SW 230 0 min 0,000 mm 0,0 UV-I 0 W/m 1,8 C 4,5 C 14,5 km/h (3 Bft) 100,00 %
09.12.2018 02:36 7,6 C 4,4 C 6,7 C 67 % 1004,1 hPa 0,0 l/m 8,4 km/h (2 Bft) W 279 0 min 0,000 mm 0,0 UV-I 0 W/m 1,9 C 6,0 C 14,5 km/h (3 Bft) 98,11 %
09.12.2018 02:38 7,4 C 4,4 C 6,7 C 69 % 1004,1 hPa 0,0 l/m 7,6 km/h (2 Bft) S-SW 205 0 min 0,000 mm 0,0 UV-I 0 W/m 2,1 C 6,4 C 14,5 km/h (3 Bft) 98,00 %
09.12.2018 02:40 7,4 C 4,4 C 6,7 C 69 % 1004,2 hPa 0,0 l/m 14,0 km/h (3 Bft) W-SW 250 0 min 0,000 mm 0,0 UV-I 0 W/m 2,1 C 2,5 C 17,7 km/h (3 Bft) 100,00 %
09.12.2018 02:42 7,4 C 4,4 C 6,1 C 69 % 1004,2 hPa 0,0 l/m 16,8 km/h (3 Bft) W-SW 250 0 min 0,000 mm 0,0 UV-I 0 W/m 2,1 C 1,2 C 25,7 km/h (4 Bft) 100,00 %
09.12.2018 02:44 7,4 C 4,4 C 5,6 C 70 % 1004,1 hPa 0,0 l/m 15,4 km/h (3 Bft) S-SW 205 0 min 0,000 mm 0,0 UV-I 0 W/m 2,3 C 1,8 C 20,9 km/h (4 Bft) 100,00 %
09.12.2018 02:46 7,5 C 4,4 C 5,6 C 71 % 1004,0 hPa 0,0 l/m 28,9 km/h (5 Bft) W-SW 251 0 min 0,000 mm 0,0 UV-I 0 W/m 2,6 C -2,6 C 46,7 km/h (6 Bft) 100,00 %
09.12.2018 02:48 7,7 C 4,4 C 5,6 C 73 % 1003,7 hPa 0,0 l/m 18,7 km/h (3 Bft) W-SW 255 0 min 0,000 mm 0,0 UV-I 0 W/m 3,2 C 0,8 C 27,4 km/h (4 Bft) 100,00 %
09.12.2018 02:50 7,7 C 4,4 C 5,6 C 73 % 1003,6 hPa 0,0 l/m 18,2 km/h (3 Bft) SW 228 0 min 0,000 mm 0,0 UV-I 0 W/m 3,2 C 1,0 C 27,4 km/h (4 Bft) 100,00 %
09.12.2018 02:52 7,6 C 4,4 C 5,6 C 73 % 1003,6 hPa 0,0 l/m 19,5 km/h (3 Bft) W-SW 250 0 min 0,000 mm 0,0 UV-I 0 W/m 3,1 C 0,4 C 32,2 km/h (5 Bft) 100,00 %
09.12.2018 02:54 7,6 C 4,4 C 5,6 C 74 % 1003,5 hPa 0,2 l/m 17,4 km/h (3 Bft) SW 215 0 min 0,000 mm 0,0 UV-I 0 W/m 3,3 C 1,2 C 27,4 km/h (4 Bft) 100,00 %
09.12.2018 02:56 7,6 C 4,4 C 5,6 C 75 % 1003,4 hPa 0,0 l/m 15,5 km/h (3 Bft) W-SW 244 0 min 0,000 mm 0,0 UV-I 0 W/m 3,5 C 2,0 C 20,9 km/h (4 Bft) 100,00 %
09.12.2018 02:58 7,6 C 4,4 C 5,6 C 75 % 1003,4 hPa 0,0 l/m 16,1 km/h (3 Bft) W-SW 248 0 min 0,000 mm 0,0 UV-I 0 W/m 3,5 C 1,7 C 24,1 km/h (4 Bft) 100,00 %
09.12.2018 03:00 7,6 C 4,4 C 5,6 C 75 % 1003,4 hPa 0,0 l/m 16,6 km/h (3 Bft) W-SW 254 0 min 0,000 mm 0,0 UV-I 0 W/m 3,5 C 1,5 C 24,1 km/h (4 Bft) 100,00 %
09.12.2018 03:02 7,6 C 4,4 C 5,6 C 75 % 1003,1 hPa 0,0 l/m 15,2 km/h (3 Bft) SW 235 0 min 0,051 mm 0,0 UV-I 0 W/m 3,5 C 2,1 C 24,1 km/h (4 Bft) 100,00 %
09.12.2018 03:04 7,6 C 4,4 C 5,6 C 75 % 1003,1 hPa 0,0 l/m 14,0 km/h (3 Bft) W-SW 240 0 min 0,000 mm 0,0 UV-I 0 W/m 3,5 C 2,7 C 24,1 km/h (4 Bft) 98,11 %
09.12.2018 03:06 7,6 C 4,4 C 5,6 C 76 % 1003,3 hPa 0,0 l/m 14,8 km/h (3 Bft) W 273 0 min 0,000 mm 0,0 UV-I 0 W/m 3,6 C 2,3 C 20,9 km/h (4 Bft) 100,00 %
09.12.2018 03:08 7,5 C 4,4 C 5,6 C 76 % 1003,1 hPa 0,0 l/m 14,0 km/h (3 Bft) W-SW 240 0 min 0,000 mm 0,0 UV-I 0 W/m 3,5 C 2,6 C 24,1 km/h (4 Bft) 100,00 %
09.12.2018 03:10 7,4 C 4,4 C 5,6 C 77 % 1003,1 hPa 0,0 l/m 13,9 km/h (3 Bft) W-SW 242 0 min 0,000 mm 0,0 UV-I 0 W/m 3,6 C 2,5 C 19,3 km/h (3 Bft) 95,74 %
09.12.2018 03:12 7,4 C 4,4 C 5,6 C 77 % 1002,9 hPa 0,0 l/m 11,4 km/h (2 Bft) SW 232 0 min 0,000 mm 0,0 UV-I 0 W/m 3,6 C 3,9 C 16,1 km/h (3 Bft) 100,00 %
09.12.2018 03:14 7,3 C 4,4 C 5,6 C 78 % 1002,9 hPa 0,0 l/m 11,7 km/h (2 Bft) SW 230 0 min 0,000 mm 0,0 UV-I 0 W/m 3,7 C 3,6 C 17,7 km/h (3 Bft) 100,00 %
09.12.2018 03:16 7,3 C 4,4 C 5,6 C 78 % 1002,9 hPa 0,0 l/m 9,0 km/h (2 Bft) W-SW 248 0 min 0,000 mm 0,0 UV-I 0 W/m 3,7 C 5,3 C 14,5 km/h (3 Bft) 100,00 %
09.12.2018 03:18 7,3 C 4,4 C 5,6 C 79 % 1002,9 hPa 0,0 l/m 11,5 km/h (2 Bft) W 265 0 min 0,000 mm 0,0 UV-I 0 W/m 3,9 C 3,7 C 16,1 km/h (3 Bft) 97,73 %
09.12.2018 03:20 7,3 C 4,4 C 5,6 C 79 % 1002,8 hPa 0,0 l/m 9,2 km/h (2 Bft) W-NW 296 0 min 0,000 mm 0,0 UV-I 0 W/m 3,9 C 5,1 C 14,5 km/h (3 Bft) 97,87 %
09.12.2018 03:22 7,3 C 4,4 C 5,6 C 79 % 1002,7 hPa 0,0 l/m 8,6 km/h (2 Bft) W-SW 241 0 min 0,000 mm 0,0 UV-I 0 W/m 3,9 C 5,6 C 16,1 km/h (3 Bft) 100,00 %
09.12.2018 03:24 7,3 C 4,4 C 5,6 C 79 % 1002,7 hPa 0,0 l/m 8,6 km/h (2 Bft) W-SW 257 0 min 0,000 mm 0,0 UV-I 0 W/m 3,9 C 5,6 C 12,9 km/h (3 Bft) 100,00 %
09.12.2018 03:26 7,3 C 4,4 C 5,6 C 79 % 1002,5 hPa 0,0 l/m 8,3 km/h (2 Bft) W-SW 244 0 min 0,000 mm 0,0 UV-I 0 W/m 3,9 C 5,8 C 14,5 km/h (3 Bft) 100,00 %
09.12.2018 03:28 7,3 C 4,4 C 5,6 C 79 % 1002,5 hPa 0,0 l/m 9,3 km/h (2 Bft) SW 223 0 min 0,000 mm 0,0 UV-I 0 W/m 3,9 C 5,1 C 14,5 km/h (3 Bft) 100,00 %
09.12.2018 03:30 7,3 C 4,4 C 5,6 C 79 % 1002,4 hPa 0,0 l/m 7,2 km/h (2 Bft) SW 215 0 min 0,000 mm 0,0 UV-I 0 W/m 3,9 C 6,7 C 11,3 km/h (2 Bft) 98,31 %
09.12.2018 03:32 7,3 C 4,4 C 5,6 C 79 % 1002,3 hPa 0,0 l/m 9,5 km/h (2 Bft) SW 233 0 min 0,000 mm 0,0 UV-I 0 W/m 3,9 C 4,9 C 14,5 km/h (3 Bft) 97,87 %
09.12.2018 03:34 7,3 C 4,4 C 5,6 C 79 % 1002,3 hPa 0,0 l/m 8,2 km/h (2 Bft) S-SW 205 0 min 0,000 mm 0,0 UV-I 0 W/m 3,9 C 5,9 C 11,3 km/h (2 Bft) 94,74 %
09.12.2018 03:36 7,3 C 4,4 C 5,6 C 79 % 1002,3 hPa 0,0 l/m 8,5 km/h (2 Bft) S-SW 209 0 min 0,000 mm 0,0 UV-I 0 W/m 3,9 C 5,6 C 12,9 km/h (3 Bft) 98,11 %
09.12.2018 03:38 7,2 C 4,4 C 5,6 C 80 % 1002,2 hPa 0,0 l/m 8,8 km/h (2 Bft) S-SW 205 0 min 0,000 mm 0,0 UV-I 0 W/m 4,0 C 5,3 C 12,9 km/h (3 Bft) 97,56 %
09.12.2018 03:40 7,2 C 4,4 C 5,6 C 80 % 1002,2 hPa 0,0 l/m 7,4 km/h (2 Bft) S-SW 211 0 min 0,000 mm 0,0 UV-I 0 W/m 4,0 C 6,4 C 11,3 km/h (2 Bft) 98,11 %
09.12.2018 03:42 7,2 C 4,4 C 5,6 C 80 % 1002,2 hPa 0,0 l/m 5,4 km/h (1 Bft) S-SW 203 0 min 0,000 mm 0,0 UV-I 0 W/m 4,0 C 7,2 C 8,0 km/h (2 Bft) 97,37 %
09.12.2018 03:44 7,1 C 4,4 C 5,6 C 80 % 1001,9 hPa 0,0 l/m 6,0 km/h (2 Bft) S-SW 200 0 min 0,000 mm 0,0 UV-I 0 W/m 3,9 C 7,1 C 8,0 km/h (2 Bft) 98,00 %
09.12.2018 03:46 7,2 C 4,4 C 5,6 C 80 % 1001,8 hPa 0,0 l/m 6,3 km/h (2 Bft) S-SW 200 0 min 0,000 mm 0,0 UV-I 0 W/m 4,0 C 7,2 C 8,0 km/h (2 Bft) 98,11 %
09.12.2018 03:48 7,2 C 4,4 C 5,6 C 80 % 1001,8 hPa 0,0 l/m 6,4 km/h (2 Bft) SW 226 0 min 0,000 mm 0,0 UV-I 0 W/m 4,0 C 7,2 C 9,7 km/h (2 Bft) 97,37 %
09.12.2018 03:50 7,2 C 4,4 C 5,6 C 80 % 1001,8 hPa 0,0 l/m 4,8 km/h (1 Bft) W-SW 239 0 min 0,000 mm 0,0 UV-I 0 W/m 4,0 C 7,2 C 8,0 km/h (2 Bft) 97,87 %
09.12.2018 03:52 7,2 C 4,4 C 5,6 C 80 % 1001,7 hPa 0,0 l/m 4,5 km/h (1 Bft) SW 236 0 min 0,000 mm 0,0 UV-I 0 W/m 4,0 C 7,2 C 6,4 km/h (2 Bft) 97,62 %
09.12.2018 03:54 7,2 C 4,4 C 5,6 C 80 % 1001,7 hPa 0,0 l/m 4,1 km/h (1 Bft) S-SW 209 0 min 0,000 mm 0,0 UV-I 0 W/m 4,0 C 7,2 C 8,0 km/h (2 Bft) 96,36 %
09.12.2018 03:56 7,2 C 4,4 C 5,6 C 80 % 1001,5 hPa 0,0 l/m 6,0 km/h (2 Bft) S-SW 198 0 min 0,000 mm 0,0 UV-I 0 W/m 4,0 C 7,2 C 8,0 km/h (2 Bft) 100,00 %
09.12.2018 03:58 7,2 C 4,4 C 5,6 C 80 % 1001,6 hPa 0,0 l/m 5,0 km/h (1 Bft) W-SW 256 0 min 0,000 mm 0,0 UV-I 0 W/m 4,0 C 7,2 C 8,0 km/h (2 Bft) 100,00 %
09.12.2018 04:00 7,2 C 4,4 C 5,6 C 80 % 1001,6 hPa 0,0 l/m 5,9 km/h (2 Bft) SW 227 0 min 0,025 mm 0,0 UV-I 0 W/m 4,0 C 7,2 C 8,0 km/h (2 Bft) 100,00 %
09.12.2018 04:02 7,2 C 4,4 C 5,6 C 80 % 1001,4 hPa 0,0 l/m 4,8 km/h (1 Bft) S-SW 211 0 min 0,000 mm 0,0 UV-I 0 W/m 4,0 C 7,2 C 8,0 km/h (2 Bft) 100,00 %
09.12.2018 04:04 7,2 C 4,4 C 5,6 C 80 % 1001,4 hPa 0,0 l/m 5,4 km/h (1 Bft) S-SW 211 0 min 0,000 mm 0,0 UV-I 0 W/m 4,0 C 7,2 C 6,4 km/h (2 Bft) 100,00 %
09.12.2018 04:06 7,2 C 4,4 C 5,6 C 81 % 1001,4 hPa 0,0 l/m 5,6 km/h (1 Bft) S 182 0 min 0,000 mm 0,0 UV-I 0 W/m 4,2 C 7,2 C 8,0 km/h (2 Bft) 100,00 %
09.12.2018 04:08 7,1 C 4,4 C 5,6 C 81 % 1001,4 hPa 0,0 l/m 5,5 km/h (1 Bft) S 185 0 min 0,000 mm 0,0 UV-I 0 W/m 4,1 C 7,1 C 8,0 km/h (2 Bft) 100,00 %
09.12.2018 04:10 7,2 C 4,4 C 5,6 C 80 % 1001,5 hPa 0,0 l/m 5,2 km/h (1 Bft) S-SW 207 0 min 0,000 mm 0,0 UV-I 0 W/m 4,0 C 7,2 C 8,0 km/h (2 Bft) 98,00 %
09.12.2018 04:12 7,2 C 4,4 C 5,6 C 80 % 1001,6 hPa 0,0 l/m 5,7 km/h (1 Bft) SW 215 0 min 0,000 mm 0,0 UV-I 0 W/m 4,0 C 7,2 C 9,7 km/h (2 Bft) 97,87 %
09.12.2018 04:14 7,3 C 4,4 C 5,6 C 80 % 1001,7 hPa 0,0 l/m 5,8 km/h (2 Bft) W-SW 257 0 min 0,000 mm 0,0 UV-I 0 W/m 4,1 C 7,3 C 9,7 km/h (2 Bft) 96,61 %
09.12.2018 04:16 7,3 C 4,4 C 5,6 C 80 % 1001,9 hPa 0,0 l/m 6,8 km/h (2 Bft) W 262 0 min 0,000 mm 0,0 UV-I 0 W/m 4,1 C 7,0 C 12,9 km/h (3 Bft) 97,56 %
09.12.2018 04:18 7,2 C 4,4 C 5,6 C 81 % 1001,9 hPa 0,0 l/m 6,0 km/h (2 Bft) W 271 0 min 0,000 mm 0,0 UV-I 0 W/m 4,2 C 7,2 C 11,3 km/h (2 Bft) 98,00 %
09.12.2018 04:20 7,1 C 4,4 C 5,6 C 81 % 1001,8 hPa 0,0 l/m 10,2 km/h (2 Bft) W 271 0 min 0,000 mm 0,0 UV-I 0 W/m 4,1 C 4,3 C 16,1 km/h (3 Bft) 96,00 %
09.12.2018 04:22 7,1 C 4,4 C 5,6 C 81 % 1001,8 hPa 0,0 l/m 10,6 km/h (2 Bft) W-SW 244 0 min 0,000 mm 0,0 UV-I 0 W/m 4,1 C 4,0 C 16,1 km/h (3 Bft) 97,37 %
09.12.2018 04:25 7,3 C 4,4 C 5,6 C 80 % 1001,7 hPa 0,0 l/m 12,3 km/h (3 Bft) S-SW 211 0 min 0,000 mm 0,0 UV-I 0 W/m 4,1 C 3,2 C 19,3 km/h (3 Bft) 97,30 %
09.12.2018 04:26 7,3 C 4,4 C 5,6 C 80 % 1001,6 hPa 0,0 l/m 11,5 km/h (2 Bft) W-SW 246 0 min 0,000 mm 0,0 UV-I 0 W/m 4,1 C 3,7 C 14,5 km/h (3 Bft) 100,00 %
09.12.2018 04:28 7,4 C 4,4 C 5,6 C 79 % 1001,6 hPa 0,0 l/m 10,6 km/h (2 Bft) W 259 0 min 0,000 mm 0,0 UV-I 0 W/m 4,0 C 4,3 C 22,5 km/h (4 Bft) 97,87 %
09.12.2018 04:30 7,4 C 4,4 C 5,6 C 79 % 1001,6 hPa 0,0 l/m 16,3 km/h (3 Bft) W-SW 240 0 min 0,000 mm 0,0 UV-I 0 W/m 4,0 C 1,4 C 25,7 km/h (4 Bft) 97,37 %
09.12.2018 04:32 7,6 C 4,4 C 5,6 C 78 % 1001,4 hPa 0,0 l/m 15,3 km/h (3 Bft) W 270 0 min 0,000 mm 0,0 UV-I 0 W/m 4,0 C 2,1 C 22,5 km/h (4 Bft) 96,43 %
09.12.2018 04:34 7,7 C 4,4 C 5,6 C 78 % 1001,4 hPa 0,0 l/m 14,0 km/h (3 Bft) W-SW 244 0 min 0,000 mm 0,0 UV-I 0 W/m 4,1 C 2,8 C 22,5 km/h (4 Bft) 98,11 %
09.12.2018 04:36 7,8 C 4,4 C 5,6 C 77 % 1001,2 hPa 0,0 l/m 19,5 km/h (3 Bft) W-SW 237 0 min 0,000 mm 0,0 UV-I 0 W/m 4,0 C 0,6 C 29,0 km/h (5 Bft) 97,22 %
09.12.2018 04:38 7,9 C 4,4 C 6,1 C 77 % 1001,2 hPa 0,0 l/m 16,7 km/h (3 Bft) SW 222 0 min 0,000 mm 0,0 UV-I 0 W/m 4,1 C 1,8 C 29,0 km/h (5 Bft) 97,87 %
09.12.2018 04:40 8,0 C 4,4 C 6,1 C 76 % 1001,2 hPa 0,0 l/m 20,9 km/h (4 Bft) S-SW 213 0 min 0,000 mm 0,0 UV-I 0 W/m 4,0 C 0,4 C 32,2 km/h (5 Bft) 98,11 %
09.12.2018 04:42 8,1 C 4,4 C 6,1 C 76 % 1001,2 hPa 0,0 l/m 17,1 km/h (3 Bft) W-SW 251 0 min 0,000 mm 0,0 UV-I 0 W/m 4,1 C 1,9 C 25,7 km/h (4 Bft) 97,56 %
09.12.2018 04:44 8,1 C 4,4 C 6,1 C 76 % 1001,0 hPa 0,0 l/m 15,3 km/h (3 Bft) SW 230 0 min 0,000 mm 0,0 UV-I 0 W/m 4,1 C 2,7 C 24,1 km/h (4 Bft) 97,87 %
09.12.2018 04:46 8,1 C 4,4 C 6,7 C 76 % 1000,9 hPa 0,0 l/m 12,9 km/h (3 Bft) SW 214 0 min 0,000 mm 0,0 UV-I 0 W/m 4,1 C 3,8 C 24,1 km/h (4 Bft) 100,00 %
09.12.2018 04:48 8,1 C 4,4 C 6,7 C 76 % 1001,0 hPa 0,0 l/m 15,3 km/h (3 Bft) W-SW 250 0 min 0,000 mm 0,0 UV-I 0 W/m 4,1 C 2,7 C 22,5 km/h (4 Bft) 100,00 %
09.12.2018 04:50 8,1 C 4,4 C 6,7 C 76 % 1001,0 hPa 0,0 l/m 14,7 km/h (3 Bft) W-SW 248 0 min 0,000 mm 0,0 UV-I 0 W/m 4,1 C 3,0 C 20,9 km/h (4 Bft) 95,74 %
09.12.2018 04:52 8,2 C 4,4 C 6,7 C 76 % 1000,9 hPa 0,0 l/m 17,8 km/h (3 Bft) SW 221 0 min 0,000 mm 0,0 UV-I 0 W/m 4,2 C 1,8 C 25,7 km/h (4 Bft) 97,73 %
09.12.2018 04:54 8,2 C 4,4 C 6,7 C 76 % 1001,0 hPa 0,0 l/m 14,1 km/h (3 Bft) W 268 0 min 0,000 mm 0,0 UV-I 0 W/m 4,2 C 3,4 C 24,1 km/h (4 Bft) 95,74 %
09.12.2018 04:56 8,2 C 4,4 C 6,7 C 76 % 1000,9 hPa 0,0 l/m 14,4 km/h (3 Bft) W 268 0 min 0,000 mm 0,0 UV-I 0 W/m 4,2 C 3,2 C 24,1 km/h (4 Bft) 98,11 %
09.12.2018 04:58 8,2 C 4,4 C 6,7 C 76 % 1000,9 hPa 0,0 l/m 10,6 km/h (2 Bft) SW 228 0 min 0,000 mm 0,0 UV-I 0 W/m 4,2 C 5,2 C 16,1 km/h (3 Bft) 97,37 %
09.12.2018 05:00 8,1 C 4,4 C 6,7 C 76 % 1000,9 hPa 0,0 l/m 10,8 km/h (2 Bft) W-SW 248 0 min 0,025 mm 0,0 UV-I 0 W/m 4,1 C 5,0 C 16,1 km/h (3 Bft) 98,11 %
09.12.2018 05:02 8,1 C 4,4 C 6,7 C 77 % 1000,9 hPa 0,0 l/m 10,2 km/h (2 Bft) W-SW 254 0 min 0,000 mm 0,0 UV-I 0 W/m 4,3 C 5,4 C 17,7 km/h (3 Bft) 97,87 %
09.12.2018 05:04 8,1 C 4,4 C 6,7 C 77 % 1000,9 hPa 0,0 l/m 11,5 km/h (2 Bft) W 269 0 min 0,000 mm 0,0 UV-I 0 W/m 4,3 C 4,6 C 17,7 km/h (3 Bft) 97,56 %
09.12.2018 05:06 8,2 C 4,4 C 6,7 C 77 % 1000,9 hPa 0,0 l/m 12,4 km/h (3 Bft) W 277 0 min 0,000 mm 0,0 UV-I 0 W/m 4,4 C 4,2 C 17,7 km/h (3 Bft) 97,56 %
09.12.2018 05:08 8,1 C 4,4 C 6,7 C 77 % 1000,9 hPa 0,0 l/m 9,4 km/h (2 Bft) W 271 0 min 0,000 mm 0,0 UV-I 0 W/m 4,3 C 5,9 C 19,3 km/h (3 Bft) 94,92 %
09.12.2018 05:10 8,2 C 4,4 C 6,7 C 77 % 1001,0 hPa 0,0 l/m 11,4 km/h (2 Bft) W-SW 258 0 min 0,000 mm 0,0 UV-I 0 W/m 4,4 C 4,8 C 17,7 km/h (3 Bft) 97,73 %
09.12.2018 05:12 8,2 C 4,4 C 7,2 C 77 % 1001,2 hPa 0,0 l/m 15,8 km/h (3 Bft) W 259 0 min 0,000 mm 0,0 UV-I 0 W/m 4,4 C 2,6 C 24,1 km/h (4 Bft) 97,62 %
09.12.2018 05:14 8,2 C 4,4 C 7,2 C 77 % 1001,1 hPa 0,0 l/m 13,5 km/h (3 Bft) W 273 0 min 0,000 mm 0,0 UV-I 0 W/m 4,4 C 3,7 C 22,5 km/h (4 Bft) 98,08 %
09.12.2018 05:16 8,2 C 4,4 C 7,2 C 77 % 1001,1 hPa 0,0 l/m 14,4 km/h (3 Bft) W 269 0 min 0,000 mm 0,0 UV-I 0 W/m 4,4 C 3,2 C 20,9 km/h (4 Bft) 100,00 %
09.12.2018 05:18 8,2 C 4,4 C 7,2 C 77 % 1001,2 hPa 0,0 l/m 15,0 km/h (3 Bft) W 274 0 min 0,000 mm 0,0 UV-I 0 W/m 4,4 C 3,0 C 20,9 km/h (4 Bft) 100,00 %
09.12.2018 05:20 8,3 C 4,4 C 7,2 C 77 % 1001,0 hPa 0,0 l/m 14,1 km/h (3 Bft) W 269 0 min 0,000 mm 0,0 UV-I 0 W/m 4,5 C 3,5 C 20,9 km/h (4 Bft) 100,00 %
09.12.2018 05:22 8,3 C 4,4 C 7,2 C 77 % 1001,0 hPa 0,0 l/m 12,6 km/h (3 Bft) W-SW 254 0 min 0,000 mm 0,0 UV-I 0 W/m 4,5 C 4,2 C 17,7 km/h (3 Bft) 97,37 %
09.12.2018 05:24 8,3 C 4,4 C 7,2 C 77 % 1001,0 hPa 0,0 l/m 9,9 km/h (2 Bft) W 259 0 min 0,000 mm 0,0 UV-I 0 W/m 4,5 C 5,8 C 14,5 km/h (3 Bft) 98,11 %
09.12.2018 05:26 8,3 C 4,4 C 7,2 C 77 % 1000,9 hPa 0,0 l/m 12,6 km/h (3 Bft) W-SW 254 0 min 0,000 mm 0,0 UV-I 0 W/m 4,5 C 4,2 C 17,7 km/h (3 Bft) 100,00 %
09.12.2018 05:28 8,2 C 4,4 C 7,2 C 77 % 1001,0 hPa 0,0 l/m 12,2 km/h (2 Bft) SW 236 0 min 0,000 mm 0,0 UV-I 0 W/m 4,4 C 4,3 C 19,3 km/h (3 Bft) 97,37 %
09.12.2018 05:30 8,2 C 4,4 C 7,2 C 77 % 1001,0 hPa 0,0 l/m 11,9 km/h (2 Bft) W 281 0 min 0,000 mm 0,0 UV-I 0 W/m 4,4 C 4,5 C 17,7 km/h (3 Bft) 100,00 %
09.12.2018 05:32 8,3 C 4,4 C 7,2 C 77 % 1000,9 hPa 0,0 l/m 13,6 km/h (3 Bft) W-SW 240 0 min 0,000 mm 0,0 UV-I 0 W/m 4,5 C 3,7 C 19,3 km/h (3 Bft) 97,87 %
09.12.2018 05:34 8,3 C 4,4 C 7,2 C 76 % 1000,9 hPa 0,0 l/m 16,1 km/h (3 Bft) SW 220 0 min 0,000 mm 0,0 UV-I 0 W/m 4,3 C 2,6 C 25,7 km/h (4 Bft) 100,00 %
09.12.2018 05:36 8,3 C 4,4 C 7,2 C 76 % 1000,9 hPa 0,0 l/m 15,4 km/h (3 Bft) W 272 0 min 0,000 mm 0,0 UV-I 0 W/m 4,3 C 2,9 C 22,5 km/h (4 Bft) 96,43 %
09.12.2018 05:38 8,4 C 4,4 C 7,8 C 76 % 1000,9 hPa 0,0 l/m 13,0 km/h (3 Bft) W 261 0 min 0,000 mm 0,0 UV-I 0 W/m 4,4 C 4,1 C 20,9 km/h (4 Bft) 98,00 %
09.12.2018 05:40 8,4 C 4,4 C 7,8 C 76 % 1000,8 hPa 0,0 l/m 17,9 km/h (3 Bft) SW 226 0 min 0,000 mm 0,0 UV-I 0 W/m 4,4 C 2,0 C 27,4 km/h (4 Bft) 97,56 %
09.12.2018 05:42 8,4 C 4,4 C 7,8 C 76 % 1000,8 hPa 0,0 l/m 18,9 km/h (3 Bft) W-SW 246 0 min 0,000 mm 0,0 UV-I 0 W/m 4,4 C 1,6 C 32,2 km/h (5 Bft) 96,61 %
09.12.2018 05:44 8,6 C 4,4 C 7,8 C 76 % 1000,8 hPa 0,0 l/m 20,7 km/h (4 Bft) W-SW 244 0 min 0,000 mm 0,0 UV-I 0 W/m 4,6 C 1,2 C 29,0 km/h (5 Bft) 97,56 %
09.12.2018 05:46 8,7 C 4,4 C 7,8 C 75 % 1000,7 hPa 0,0 l/m 27,8 km/h (4 Bft) W 259 0 min 0,000 mm 0,0 UV-I 0 W/m 4,5 C -0,7 C 49,9 km/h (6 Bft) 98,00 %
09.12.2018 05:48 8,8 C 4,4 C 8,3 C 75 % 1000,7 hPa 0,0 l/m 26,5 km/h (4 Bft) W-SW 238 0 min 0,000 mm 0,0 UV-I 0 W/m 4,6 C -0,2 C 41,8 km/h (6 Bft) 95,74 %
09.12.2018 05:50 8,9 C 4,4 C 7,8 C 75 % 1000,8 hPa 0,0 l/m 29,3 km/h (5 Bft) W-SW 257 0 min 0,000 mm 0,0 UV-I 0 W/m 4,7 C -0,7 C 38,6 km/h (5 Bft) 98,00 %
09.12.2018 05:52 8,9 C 4,4 C 7,8 C 77 % 1000,8 hPa 0,0 l/m 36,1 km/h (5 Bft) W-SW 256 0 min 0,000 mm 0,0 UV-I 0 W/m 5,1 C -2,1 C 56,3 km/h (7 Bft) 97,87 %
09.12.2018 05:54 8,9 C 4,4 C 7,2 C 78 % 1000,8 hPa 0,0 l/m 39,9 km/h (6 Bft) W-SW 248 0 min 0,000 mm 0,0 UV-I 0 W/m 5,3 C -2,7 C 61,2 km/h (7 Bft) 94,44 %
09.12.2018 05:56 8,8 C 4,4 C 7,2 C 78 % 1000,6 hPa 0,0 l/m 34,0 km/h (5 Bft) W-NW 292 0 min 0,000 mm 0,0 UV-I 0 W/m 5,2 C -1,9 C 41,8 km/h (6 Bft) 98,11 %
09.12.2018 05:58 8,6 C 4,4 C 7,2 C 79 % 1000,6 hPa 0,0 l/m 36,6 km/h (5 Bft) W-SW 254 0 min 0,000 mm 0,0 UV-I 0 W/m 5,2 C -2,6 C 49,9 km/h (6 Bft) 97,73 %
09.12.2018 06:00 8,4 C 4,4 C 6,7 C 80 % 1000,6 hPa 0,0 l/m 34,5 km/h (5 Bft) SW 236 0 min 0,000 mm 0,0 UV-I 0 W/m 5,2 C -2,5 C 49,9 km/h (6 Bft) 98,11 %
09.12.2018 06:02 8,3 C 4,4 C 6,7 C 80 % 1000,6 hPa 0,0 l/m 36,5 km/h (5 Bft) W-SW 238 0 min 0,051 mm 0,0 UV-I 0 W/m 5,1 C -3,0 C 56,3 km/h (7 Bft) 94,74 %
09.12.2018 06:04 8,2 C 4,4 C 6,7 C 81 % 1000,9 hPa 0,0 l/m 36,7 km/h (5 Bft) W-SW 254 0 min 0,000 mm 0,0 UV-I 0 W/m 5,1 C -3,2 C 59,5 km/h (7 Bft) 97,87 %
09.12.2018 06:06 8,1 C 4,4 C 6,7 C 82 % 1001,0 hPa 0,0 l/m 39,1 km/h (6 Bft) SW 234 0 min 0,000 mm 0,0 UV-I 0 W/m 5,2 C -3,8 C 61,2 km/h (7 Bft) 95,74 %
09.12.2018 06:08 8,0 C 4,4 C 6,7 C 82 % 1001,2 hPa 0,2 l/m 37,7 km/h (5 Bft) SW 236 0 min 0,000 mm 0,0 UV-I 0 W/m 5,1 C -3,7 C 54,7 km/h (7 Bft) 98,00 %
09.12.2018 06:10 7,8 C 4,4 C 6,1 C 84 % 1001,2 hPa 0,2 l/m 37,1 km/h (5 Bft) W-SW 258 0 min 0,000 mm 0,0 UV-I 0 W/m 5,3 C -3,9 C 59,5 km/h (7 Bft) 97,56 %
09.12.2018 06:12 7,6 C 4,4 C 6,1 C 85 % 1001,2 hPa 0,2 l/m 31,0 km/h (5 Bft) W-SW 241 0 min 0,000 mm 0,0 UV-I 0 W/m 5,2 C -2,9 C 51,5 km/h (7 Bft) 94,92 %
09.12.2018 06:14 7,4 C 4,4 C 6,1 C 86 % 1001,2 hPa 0,2 l/m 34,8 km/h (5 Bft) W-SW 247 0 min 0,000 mm 0,0 UV-I 0 W/m 5,2 C -4,0 C 54,7 km/h (7 Bft) 97,56 %
09.12.2018 06:16 7,3 C 4,4 C 6,1 C 87 % 1001,2 hPa 0,2 l/m 27,8 km/h (4 Bft) SW 232 0 min 0,000 mm 0,0 UV-I 0 W/m 5,3 C -2,6 C 38,6 km/h (5 Bft) 94,34 %
09.12.2018 06:18 7,1 C 4,4 C 6,1 C 87 % 1001,2 hPa 0,2 l/m 28,5 km/h (4 Bft) W-SW 252 0 min 0,000 mm 0,0 UV-I 0 W/m 5,1 C -3,1 C 41,8 km/h (6 Bft) 95,74 %
09.12.2018 06:20 7,0 C 4,4 C 6,1 C 88 % 1001,1 hPa 0,2 l/m 22,2 km/h (4 Bft) SW 215 0 min 0,000 mm 0,0 UV-I 0 W/m 5,2 C -1,4 C 35,4 km/h (5 Bft) 93,62 %
09.12.2018 06:22 6,9 C 4,4 C 6,1 C 89 % 1001,0 hPa 0,2 l/m 19,1 km/h (3 Bft) W-SW 240 0 min 0,000 mm 0,0 UV-I 0 W/m 5,2 C -0,4 C 29,0 km/h (5 Bft) 93,62 %
09.12.2018 06:24 6,8 C 4,4 C 6,1 C 90 % 1000,8 hPa 0,2 l/m 18,8 km/h (3 Bft) W-SW 257 0 min 0,000 mm 0,0 UV-I 0 W/m 5,3 C -0,4 C 25,7 km/h (4 Bft) 93,18 %
09.12.2018 06:26 6,8 C 4,4 C 6,1 C 90 % 1000,8 hPa 0,0 l/m 16,4 km/h (3 Bft) S-SW 207 0 min 0,000 mm 0,0 UV-I 0 W/m 5,3 C 0,6 C 24,1 km/h (4 Bft) 92,68 %
09.12.2018 06:28 6,7 C 4,4 C 6,1 C 90 % 1000,7 hPa 0,0 l/m 14,9 km/h (3 Bft) W-SW 253 0 min 0,000 mm 0,0 UV-I 0 W/m 5,2 C 1,2 C 24,1 km/h (4 Bft) 94,00 %
09.12.2018 06:30 6,7 C 4,4 C 6,1 C 91 % 1000,6 hPa 0,0 l/m 14,3 km/h (3 Bft) SW 227 0 min 0,000 mm 0,0 UV-I 0 W/m 5,3 C 1,5 C 19,3 km/h (3 Bft) 94,00 %
09.12.2018 06:32 6,7 C 4,4 C 6,1 C 91 % 1000,6 hPa 0,0 l/m 11,7 km/h (2 Bft) W 260 0 min 0,000 mm 0,0 UV-I 0 W/m 5,3 C 2,9 C 19,3 km/h (3 Bft) 89,58 %
09.12.2018 06:34 6,6 C 4,4 C 6,1 C 91 % 1000,5 hPa 0,0 l/m 11,1 km/h (2 Bft) W-SW 238 0 min 0,000 mm 0,0 UV-I 0 W/m 5,2 C 3,1 C 17,7 km/h (3 Bft) 95,74 %
09.12.2018 06:36 6,6 C 4,4 C 6,1 C 91 % 1000,5 hPa 0,0 l/m 12,3 km/h (3 Bft) SW 223 0 min 0,000 mm 0,0 UV-I 0 W/m 5,2 C 2,4 C 17,7 km/h (3 Bft) 94,74 %
09.12.2018 06:38 6,6 C 4,4 C 6,1 C 92 % 1000,5 hPa 0,2 l/m 9,3 km/h (2 Bft) S-SW 210 0 min 0,000 mm 0,0 UV-I 0 W/m 5,4 C 4,3 C 14,5 km/h (3 Bft) 95,45 %
09.12.2018 06:40 6,6 C 4,4 C 6,1 C 92 % 1000,6 hPa 0,0 l/m 6,8 km/h (2 Bft) W 278 0 min 0,000 mm 0,0 UV-I 0 W/m 5,4 C 6,3 C 11,3 km/h (2 Bft) 94,34 %
09.12.2018 06:42 6,5 C 4,4 C 6,1 C 92 % 1000,7 hPa 0,0 l/m 5,6 km/h (1 Bft) W-NW 286 0 min 0,000 mm 0,0 UV-I 0 W/m 5,3 C 6,5 C 11,3 km/h (2 Bft) 96,00 %
09.12.2018 06:44 6,5 C 4,4 C 6,1 C 92 % 1000,7 hPa 0,0 l/m 3,0 km/h (1 Bft) NW 317 0 min 0,000 mm 0,0 UV-I 0 W/m 5,3 C 6,5 C 4,8 km/h (1 Bft) 98,00 %
09.12.2018 06:46 6,4 C 4,4 C 6,1 C 92 % 1000,8 hPa 0,0 l/m 3,0 km/h (1 Bft) NW 317 0 min 0,000 mm 0,0 UV-I 0 W/m 5,2 C 6,4 C 4,8 km/h (1 Bft) 97,87 %
09.12.2018 06:48 6,3 C 4,4 C 5,6 C 93 % 1000,8 hPa 0,0 l/m 3,3 km/h (1 Bft) NW 312 0 min 0,000 mm 0,0 UV-I 0 W/m 5,3 C 6,3 C 4,8 km/h (1 Bft) 97,14 %
09.12.2018 06:50 6,3 C 4,4 C 5,6 C 93 % 1000,8 hPa 0,0 l/m 3,7 km/h (1 Bft) W 274 0 min 0,000 mm 0,0 UV-I 0 W/m 5,3 C 6,3 C 4,8 km/h (1 Bft) 94,92 %
09.12.2018 06:52 6,2 C 4,4 C 5,6 C 93 % 1000,8 hPa 0,2 l/m 4,3 km/h (1 Bft) W-NW 302 0 min 0,000 mm 0,0 UV-I 0 W/m 5,2 C 6,2 C 6,4 km/h (2 Bft) 97,56 %
09.12.2018 06:54 6,2 C 4,4 C 6,1 C 93 % 1000,8 hPa 0,2 l/m 4,6 km/h (1 Bft) NW 311 0 min 0,000 mm 0,0 UV-I 0 W/m 5,2 C 6,2 C 6,4 km/h (2 Bft) 100,00 %
09.12.2018 06:56 6,2 C 4,4 C 6,1 C 94 % 1000,8 hPa 0,2 l/m 5,2 km/h (1 Bft) W-NW 296 0 min 0,000 mm 0,0 UV-I 0 W/m 5,3 C 6,2 C 8,0 km/h (2 Bft) 97,37 %
09.12.2018 06:59 6,2 C 4,4 C 6,1 C 94 % 1000,8 hPa 0,0 l/m 3,5 km/h (1 Bft) NW 311 0 min 0,000 mm 0,0 UV-I 0 W/m 5,3 C 6,2 C 6,4 km/h (2 Bft) 100,00 %
09.12.2018 07:00 6,2 C 4,4 C 6,1 C 94 % 1000,8 hPa 0,0 l/m 2,2 km/h (1 Bft) NW 311 0 min 0,026 mm 0,0 UV-I 0 W/m 5,3 C 6,2 C 3,2 km/h (1 Bft) 100,00 %
09.12.2018 07:02 6,2 C 4,4 C 6,1 C 94 % 1000,7 hPa 0,2 l/m 4,1 km/h (1 Bft) W 275 0 min 0,000 mm 0,0 UV-I 0 W/m 5,3 C 6,2 C 6,4 km/h (2 Bft) 100,00 %
09.12.2018 07:04 6,2 C 4,4 C 6,1 C 95 % 1000,7 hPa 0,0 l/m 4,0 km/h (1 Bft) W-NW 298 0 min 0,000 mm 0,0 UV-I 0 W/m 5,5 C 6,2 C 6,4 km/h (2 Bft) 98,08 %
09.12.2018 07:06 6,2 C 4,4 C 6,1 C 95 % 1000,7 hPa 0,2 l/m 6,0 km/h (2 Bft) W 273 0 min 0,000 mm 0,0 UV-I 0 W/m 5,5 C 6,2 C 11,3 km/h (2 Bft) 100,00 %
09.12.2018 07:08 6,2 C 4,4 C 6,1 C 95 % 1000,6 hPa 0,0 l/m 6,7 km/h (2 Bft) W 274 0 min 0,000 mm 0,0 UV-I 0 W/m 5,5 C 6,0 C 11,3 km/h (2 Bft) 97,87 %
09.12.2018 07:10 6,2 C 4,4 C 6,1 C 95 % 1000,6 hPa 0,0 l/m 5,2 km/h (1 Bft) W-NW 284 0 min 0,000 mm 0,0 UV-I 0 W/m 5,5 C 6,2 C 9,7 km/h (2 Bft) 100,00 %
09.12.2018 07:12 6,2 C 4,4 C 6,1 C 95 % 1000,7 hPa 0,0 l/m 4,6 km/h (1 Bft) W 263 0 min 0,000 mm 0,0 UV-I 0 W/m 5,5 C 6,2 C 9,7 km/h (2 Bft) 95,12 %
09.12.2018 07:14 6,2 C 4,4 C 6,1 C 95 % 1000,8 hPa 0,0 l/m 5,9 km/h (2 Bft) W-NW 288 0 min 0,000 mm 0,0 UV-I 0 W/m 5,5 C 6,2 C 9,7 km/h (2 Bft) 100,00 %
09.12.2018 07:16 6,2 C 4,4 C 6,1 C 95 % 1001,1 hPa 0,0 l/m 8,2 km/h (2 Bft) W 276 0 min 0,000 mm 0,0 UV-I 0 W/m 5,5 C 4,7 C 11,3 km/h (2 Bft) 100,00 %
09.12.2018 07:18 6,2 C 4,4 C 6,1 C 95 % 1001,4 hPa 0,2 l/m 6,8 km/h (2 Bft) W-NW 294 0 min 0,000 mm 0,0 UV-I 0 W/m 5,5 C 5,9 C 11,3 km/h (2 Bft) 100,00 %
09.12.2018 07:20 6,3 C 4,4 C 6,1 C 95 % 1001,5 hPa 0,0 l/m 5,8 km/h (2 Bft) NW 318 0 min 0,000 mm 0,0 UV-I 0 W/m 5,6 C 6,3 C 8,0 km/h (2 Bft) 100,00 %
09.12.2018 07:22 6,2 C 4,4 C 6,1 C 95 % 1001,5 hPa 0,4 l/m 5,3 km/h (1 Bft) NW 317 0 min 0,000 mm 0,0 UV-I 0 W/m 5,5 C 6,2 C 8,0 km/h (2 Bft) 100,00 %
09.12.2018 07:24 6,2 C 4,4 C 6,1 C 95 % 1001,6 hPa 0,6 l/m 6,8 km/h (2 Bft) NW 322 0 min 0,000 mm 0,0 UV-I 0 W/m 5,5 C 5,9 C 9,7 km/h (2 Bft) 100,00 %
09.12.2018 07:26 6,2 C 4,4 C 6,1 C 95 % 1001,6 hPa 0,8 l/m 6,1 km/h (2 Bft) W-NW 302 0 min 0,000 mm 0,0 UV-I 0 W/m 5,5 C 6,2 C 9,7 km/h (2 Bft) 100,00 %
09.12.2018 07:28 6,2 C 4,4 C 6,1 C 95 % 1001,8 hPa 0,8 l/m 13,0 km/h (3 Bft) NW 305 0 min 0,000 mm 0,0 UV-I 0 W/m 5,5 C 1,6 C 25,7 km/h (4 Bft) 97,56 %
09.12.2018 07:30 6,1 C 4,4 C 5,6 C 95 % 1001,9 hPa 0,4 l/m 14,1 km/h (3 Bft) W 269 0 min 0,000 mm 0,0 UV-I 0 W/m 5,4 C 0,9 C 22,5 km/h (4 Bft) 100,00 %
09.12.2018 07:32 6,0 C 4,4 C 5,6 C 95 % 1001,9 hPa 0,4 l/m 24,3 km/h (4 Bft) W-NW 289 0 min 0,000 mm 0,0 UV-I 0 W/m 5,3 C -3,4 C 40,2 km/h (6 Bft) 100,00 %
09.12.2018 07:34 5,9 C 4,4 C 5,6 C 95 % 1001,7 hPa 0,2 l/m 18,6 km/h (3 Bft) W 267 0 min 0,000 mm 0,0 UV-I 0 W/m 5,2 C -1,5 C 27,4 km/h (4 Bft) 100,00 %
09.12.2018 07:36 5,9 C 4,4 C 5,6 C 95 % 1001,9 hPa 0,2 l/m 21,4 km/h (4 Bft) W-SW 254 0 min 0,000 mm 0,0 UV-I 0 W/m 5,2 C -2,5 C 30,6 km/h (5 Bft) 97,14 %
09.12.2018 07:38 6,0 C 4,4 C 5,6 C 95 % 1001,7 hPa 0,2 l/m 19,4 km/h (3 Bft) W-SW 244 0 min 0,000 mm 0,0 UV-I 0 W/m 5,3 C -1,6 C 27,4 km/h (4 Bft) 97,87 %
09.12.2018 07:40 6,1 C 4,4 C 5,6 C 95 % 1001,5 hPa 0,2 l/m 27,8 km/h (4 Bft) W-SW 239 0 min 0,000 mm 0,0 UV-I 0 W/m 5,4 C -4,3 C 51,5 km/h (7 Bft) 97,62 %
09.12.2018 07:42 6,2 C 4,4 C 5,6 C 94 % 1001,4 hPa 0,0 l/m 22,9 km/h (4 Bft) W-SW 237 0 min 0,000 mm 0,0 UV-I 0 W/m 5,3 C -2,7 C 38,6 km/h (5 Bft) 96,43 %
09.12.2018 07:44 6,3 C 4,4 C 5,6 C 94 % 1001,4 hPa 0,0 l/m 21,4 km/h (4 Bft) W 266 0 min 0,000 mm 0,0 UV-I 0 W/m 5,4 C -2,0 C 41,8 km/h (6 Bft) 96,00 %
09.12.2018 07:46 6,3 C 4,4 C 5,6 C 93 % 1001,4 hPa 0,0 l/m 26,6 km/h (4 Bft) SW 221 0 min 0,000 mm 0,0 UV-I 0 W/m 5,3 C -3,6 C 35,4 km/h (5 Bft) 96,15 %
09.12.2018 07:48 6,3 C 4,4 C 5,6 C 93 % 1001,4 hPa 0,0 l/m 27,0 km/h (4 Bft) W 276 0 min 0,000 mm 0,0 UV-I 0 W/m 5,3 C -3,8 C 41,8 km/h (6 Bft) 94,44 %
09.12.2018 07:50 6,4 C 4,4 C 5,6 C 92 % 1001,5 hPa 0,0 l/m 27,3 km/h (4 Bft) W 265 0 min 0,000 mm 0,0 UV-I 0 W/m 5,2 C -3,7 C 40,2 km/h (6 Bft) 96,43 %
09.12.2018 07:52 6,3 C 4,4 C 5,6 C 92 % 1001,6 hPa 0,0 l/m 21,8 km/h (4 Bft) SW 224 0 min 0,000 mm 0,0 UV-I 0 W/m 5,1 C -2,1 C 40,2 km/h (6 Bft) 93,75 %
09.12.2018 07:54 6,3 C 4,4 C 5,6 C 92 % 1001,7 hPa 0,0 l/m 21,3 km/h (4 Bft) W-SW 256 0 min 0,000 mm 0,0 UV-I 0 W/m 5,1 C -2,0 C 32,2 km/h (5 Bft) 98,39 %
09.12.2018 07:56 6,3 C 4,4 C 5,6 C 91 % 1001,6 hPa 0,2 l/m 22,9 km/h (4 Bft) W-SW 241 0 min 0,000 mm 0,0 UV-I 4 W/m 4,9 C -2,5 C 40,2 km/h (6 Bft) 97,37 %
09.12.2018 07:58 6,2 C 4,4 C 5,6 C 91 % 1001,7 hPa 0,0 l/m 28,6 km/h (4 Bft) W 263 0 min 0,000 mm 0,0 UV-I 5 W/m 4,8 C -4,3 C 43,5 km/h (6 Bft) 100,00 %
09.12.2018 08:00 6,2 C 4,4 C 5,6 C 91 % 1001,7 hPa 0,0 l/m 26,8 km/h (4 Bft) SW 222 0 min 0,000 mm 0,0 UV-I 6 W/m 4,8 C -3,8 C 41,8 km/h (6 Bft) 100,00 %
09.12.2018 08:02 6,2 C 4,4 C 5,6 C 90 % 1001,7 hPa 0,0 l/m 25,9 km/h (4 Bft) SW 219 0 min 0,000 mm 0,0 UV-I 7 W/m 4,7 C -3,6 C 40,2 km/h (6 Bft) 100,00 %
09.12.2018 08:04 6,2 C 4,4 C 5,0 C 90 % 1001,8 hPa 0,0 l/m 23,6 km/h (4 Bft) SW 231 0 min 0,000 mm 0,0 UV-I 8 W/m 4,7 C -2,9 C 33,8 km/h (5 Bft) 100,00 %
09.12.2018 08:06 6,2 C 4,4 C 5,6 C 90 % 1001,8 hPa 0,0 l/m 22,7 km/h (4 Bft) SW 232 0 min 0,000 mm 0,0 UV-I 7 W/m 4,7 C -2,6 C 32,2 km/h (5 Bft) 100,00 %
09.12.2018 08:08 6,2 C 4,4 C 5,6 C 90 % 1001,8 hPa 0,0 l/m 24,7 km/h (4 Bft) W-SW 244 0 min 0,000 mm 0,0 UV-I 8 W/m 4,7 C -3,2 C 38,6 km/h (5 Bft) 100,00 %
09.12.2018 08:10 6,2 C 4,4 C 5,6 C 90 % 1001,8 hPa 0,0 l/m 23,6 km/h (4 Bft) W-SW 244 0 min 0,000 mm 0,0 UV-I 9 W/m 4,7 C -2,9 C 32,2 km/h (5 Bft) 100,00 %
09.12.2018 08:12 6,2 C 4,4 C 5,6 C 90 % 1001,8 hPa 0,0 l/m 26,0 km/h (4 Bft) SW 234 0 min 0,000 mm 0,0 UV-I 10 W/m 4,7 C -3,6 C 38,6 km/h (5 Bft) 98,11 %
09.12.2018 08:15 6,2 C 4,4 C 5,6 C 90 % 1001,7 hPa 0,0 l/m 25,9 km/h (4 Bft) W-NW 288 0 min 0,000 mm 0,0 UV-I 10 W/m 4,7 C -3,6 C 37,0 km/h (5 Bft) 100,00 %
09.12.2018 08:16 6,2 C 4,4 C 5,6 C 90 % 1001,7 hPa 0,0 l/m 23,8 km/h (4 Bft) W-SW 254 0 min 0,000 mm 0,0 UV-I 9 W/m 4,7 C -2,9 C 32,2 km/h (5 Bft) 100,00 %
09.12.2018 08:18 6,2 C 4,4 C 5,6 C 90 % 1001,8 hPa 0,0 l/m 24,8 km/h (4 Bft) SW 235 0 min 0,000 mm 0,0 UV-I 9 W/m 4,7 C -3,3 C 38,6 km/h (5 Bft) 100,00 %
09.12.2018 08:20 6,2 C 4,4 C 5,6 C 90 % 1001,8 hPa 0,0 l/m 23,8 km/h (4 Bft) W-SW 252 0 min 0,000 mm 0,0 UV-I 9 W/m 4,7 C -2,9 C 32,2 km/h (5 Bft) 100,00 %
09.12.2018 08:22 6,2 C 4,4 C 5,6 C 89 % 1001,9 hPa 0,0 l/m 22,8 km/h (4 Bft) W-SW 248 0 min 0,000 mm 0,0 UV-I 11 W/m 4,5 C -2,6 C 32,2 km/h (5 Bft) 100,00 %
09.12.2018 08:24 6,3 C 4,4 C 5,6 C 89 % 1001,7 hPa 0,0 l/m 22,1 km/h (4 Bft) W-SW 244 0 min 0,000 mm 0,0 UV-I 13 W/m 4,6 C -2,2 C 32,2 km/h (5 Bft) 98,11 %
09.12.2018 08:26 6,3 C 4,4 C 5,6 C 89 % 1001,8 hPa 0,0 l/m 21,7 km/h (4 Bft) W-SW 255 0 min 0,000 mm 0,0 UV-I 21 W/m 4,6 C -2,1 C 32,2 km/h (5 Bft) 97,56 %
09.12.2018 08:28 6,3 C 4,4 C 5,6 C 89 % 1001,8 hPa 0,0 l/m 27,7 km/h (4 Bft) W-SW 242 0 min 0,000 mm 0,0 UV-I 30 W/m 4,6 C -4,0 C 41,8 km/h (6 Bft) 98,11 %
09.12.2018 08:30 6,3 C 4,4 C 5,6 C 88 % 1001,8 hPa 0,0 l/m 27,6 km/h (4 Bft) W-SW 240 0 min 0,000 mm 0,0 UV-I 33 W/m 4,5 C -3,9 C 40,2 km/h (6 Bft) 97,56 %
09.12.2018 08:32 6,3 C 4,4 C 5,6 C 88 % 1001,8 hPa 0,0 l/m 22,8 km/h (4 Bft) SW 218 0 min 0,000 mm 0,0 UV-I 33 W/m 4,5 C -2,5 C 33,8 km/h (5 Bft) 98,11 %
09.12.2018 08:34 6,3 C 4,4 C 5,6 C 88 % 1001,8 hPa 0,0 l/m 23,5 km/h (4 Bft) W-SW 252 0 min 0,000 mm 0,0 UV-I 30 W/m 4,5 C -2,7 C 35,4 km/h (5 Bft) 95,74 %
09.12.2018 08:36 6,3 C 4,4 C 5,6 C 88 % 1001,8 hPa 0,0 l/m 26,8 km/h (4 Bft) W-SW 250 0 min 0,000 mm 0,0 UV-I 26 W/m 4,5 C -3,7 C 40,2 km/h (6 Bft) 100,00 %
09.12.2018 08:38 6,3 C 4,4 C 5,6 C 88 % 1001,9 hPa 0,0 l/m 25,3 km/h (4 Bft) W-SW 252 0 min 0,000 mm 0,0 UV-I 21 W/m 4,5 C -3,3 C 35,4 km/h (5 Bft) 96,00 %
09.12.2018 08:40 6,3 C 4,4 C 5,6 C 88 % 1001,9 hPa 0,0 l/m 20,2 km/h (4 Bft) W-SW 238 0 min 0,000 mm 0,0 UV-I 17 W/m 4,5 C -1,6 C 29,0 km/h (5 Bft) 98,11 %
09.12.2018 08:42 6,3 C 4,4 C 5,6 C 88 % 1001,9 hPa 0,0 l/m 21,5 km/h (4 Bft) W-SW 248 0 min 0,000 mm 0,0 UV-I 15 W/m 4,5 C -2,0 C 33,8 km/h (5 Bft) 97,56 %
09.12.2018 08:44 6,3 C 4,4 C 5,6 C 88 % 1001,9 hPa 0,0 l/m 25,2 km/h (4 Bft) W-SW 258 0 min 0,000 mm 0,0 UV-I 14 W/m 4,5 C -3,2 C 32,2 km/h (5 Bft) 97,73 %
09.12.2018 08:46 6,3 C 4,4 C 5,6 C 87 % 1002,0 hPa 0,0 l/m 25,4 km/h (4 Bft) W-SW 250 0 min 0,000 mm 0,0 UV-I 14 W/m 4,3 C -3,3 C 35,4 km/h (5 Bft) 97,73 %
09.12.2018 08:48 6,3 C 4,4 C 5,6 C 87 % 1002,1 hPa 0,0 l/m 25,5 km/h (4 Bft) SW 235 0 min 0,000 mm 0,0 UV-I 16 W/m 4,3 C -3,3 C 35,4 km/h (5 Bft) 98,11 %
09.12.2018 08:50 6,3 C 4,4 C 5,6 C 87 % 1002,2 hPa 0,0 l/m 27,2 km/h (4 Bft) SW 222 0 min 0,000 mm 0,0 UV-I 16 W/m 4,3 C -3,8 C 37,0 km/h (5 Bft) 98,00 %
09.12.2018 08:52 6,3 C 4,4 C 5,6 C 87 % 1002,2 hPa 0,0 l/m 20,9 km/h (4 Bft) SW 222 0 min 0,000 mm 0,0 UV-I 15 W/m 4,3 C -1,8 C 30,6 km/h (5 Bft) 96,00 %
09.12.2018 08:54 6,3 C 4,4 C 5,6 C 87 % 1002,2 hPa 0,0 l/m 27,7 km/h (4 Bft) W-SW 241 0 min 0,000 mm 0,0 UV-I 18 W/m 4,3 C -4,0 C 40,2 km/h (6 Bft) 97,56 %
09.12.2018 08:56 6,3 C 4,4 C 5,6 C 87 % 1002,2 hPa 0,0 l/m 26,4 km/h (4 Bft) W-SW 238 0 min 0,000 mm 0,0 UV-I 18 W/m 4,3 C -3,6 C 37,0 km/h (5 Bft) 94,87 %
09.12.2018 08:58 6,3 C 4,4 C 5,6 C 87 % 1002,3 hPa 0,0 l/m 22,5 km/h (4 Bft) W-SW 246 0 min 0,000 mm 0,0 UV-I 18 W/m 4,3 C -2,4 C 33,8 km/h (5 Bft) 96,43 %
09.12.2018 09:00 6,3 C 4,4 C 5,6 C 87 % 1002,3 hPa 0,0 l/m 19,0 km/h (3 Bft) SW 236 0 min 0,025 mm 0,0 UV-I 18 W/m 4,3 C -1,1 C 27,4 km/h (4 Bft) 95,74 %
09.12.2018 09:02 6,3 C 4,4 C 5,6 C 87 % 1002,3 hPa 0,0 l/m 24,7 km/h (4 Bft) W-SW 239 0 min 0,000 mm 0,0 UV-I 18 W/m 4,3 C -3,1 C 33,8 km/h (5 Bft) 91,49 %
09.12.2018 09:04 6,3 C 4,4 C 5,6 C 87 % 1002,4 hPa 0,0 l/m 21,8 km/h (4 Bft) W-SW 251 0 min 0,000 mm 0,0 UV-I 17 W/m 4,3 C -2,1 C 30,6 km/h (5 Bft) 97,87 %
09.12.2018 09:06 6,3 C 4,4 C 5,6 C 87 % 1002,4 hPa 0,0 l/m 25,2 km/h (4 Bft) W-SW 248 0 min 0,000 mm 0,0 UV-I 16 W/m 4,3 C -3,2 C 37,0 km/h (5 Bft) 98,00 %
09.12.2018 09:08 6,3 C 4,4 C 5,6 C 87 % 1002,4 hPa 0,0 l/m 22,3 km/h (4 Bft) W-SW 246 0 min 0,000 mm 0,0 UV-I 16 W/m 4,3 C -2,3 C 37,0 km/h (5 Bft) 94,00 %
09.12.2018 09:10 6,4 C 4,4 C 5,6 C 86 % 1002,4 hPa 0,0 l/m 23,4 km/h (4 Bft) W 270 0 min 0,000 mm 0,0 UV-I 14 W/m 4,2 C -2,5 C 30,6 km/h (5 Bft) 100,00 %
09.12.2018 09:12 6,4 C 4,4 C 5,6 C 86 % 1002,4 hPa 0,0 l/m 21,0 km/h (4 Bft) SW 229 0 min 0,000 mm 0,0 UV-I 14 W/m 4,2 C -1,7 C 32,2 km/h (5 Bft) 95,74 %
09.12.2018 09:14 6,4 C 4,4 C 5,6 C 86 % 1002,4 hPa 0,0 l/m 15,8 km/h (3 Bft) W-SW 248 0 min 0,000 mm 0,0 UV-I 16 W/m 4,2 C 0,4 C 25,7 km/h (4 Bft) 97,37 %
09.12.2018 09:16 6,4 C 4,4 C 5,6 C 86 % 1002,6 hPa 0,0 l/m 12,4 km/h (3 Bft) W-SW 243 0 min 0,000 mm 0,0 UV-I 19 W/m 4,2 C 2,1 C 22,5 km/h (4 Bft) 97,87 %
09.12.2018 09:18 6,4 C 4,4 C 5,6 C 86 % 1002,6 hPa 0,0 l/m 11,7 km/h (2 Bft) W-SW 246 0 min 0,000 mm 0,0 UV-I 25 W/m 4,2 C 2,5 C 19,3 km/h (3 Bft) 100,00 %
09.12.2018 09:20 6,3 C 4,4 C 5,6 C 87 % 1002,5 hPa 0,0 l/m 8,2 km/h (2 Bft) W 279 0 min 0,000 mm 0,0 UV-I 26 W/m 4,3 C 4,8 C 12,9 km/h (3 Bft) 98,11 %
09.12.2018 09:22 6,3 C 4,4 C 5,6 C 87 % 1002,5 hPa 0,0 l/m 10,2 km/h (2 Bft) W-SW 250 0 min 0,000 mm 0,0 UV-I 32 W/m 4,3 C 3,4 C 19,3 km/h (3 Bft) 100,00 %
09.12.2018 09:24 6,3 C 4,4 C 5,6 C 87 % 1002,6 hPa 0,0 l/m 12,2 km/h (2 Bft) SW 232 0 min 0,000 mm 0,0 UV-I 35 W/m 4,3 C 2,1 C 16,1 km/h (3 Bft) 95,12 %
09.12.2018 09:26 6,3 C 4,4 C 5,6 C 87 % 1002,8 hPa 0,0 l/m 10,6 km/h (2 Bft) W-NW 282 0 min 0,000 mm 0,0 UV-I 32 W/m 4,3 C 3,1 C 19,3 km/h (3 Bft) 100,00 %
09.12.2018 09:28 6,3 C 4,4 C 5,6 C 87 % 1002,8 hPa 0,0 l/m 15,2 km/h (3 Bft) W-SW 255 0 min 0,000 mm 0,0 UV-I 29 W/m 4,3 C 0,6 C 22,5 km/h (4 Bft) 97,87 %
09.12.2018 09:30 6,3 C 4,4 C 5,6 C 87 % 1002,8 hPa 0,0 l/m 15,0 km/h (3 Bft) SW 227 0 min 0,000 mm 0,0 UV-I 26 W/m 4,3 C 0,7 C 20,9 km/h (4 Bft) 100,00 %
09.12.2018 09:32 6,3 C 4,4 C 5,6 C 87 % 1002,7 hPa 0,0 l/m 15,4 km/h (3 Bft) S 188 0 min 0,000 mm 0,0 UV-I 24 W/m 4,3 C 0,5 C 22,5 km/h (4 Bft) 100,00 %
09.12.2018 09:34 6,3 C 4,4 C 5,6 C 87 % 1002,7 hPa 0,0 l/m 18,6 km/h (3 Bft) W-SW 243 0 min 0,000 mm 0,0 UV-I 20 W/m 4,3 C -0,9 C 30,6 km/h (5 Bft) 100,00 %
09.12.2018 09:35 6,3 C 4,4 C 5,6 C 87 % 1002,8 hPa 0,0 l/m 17,7 km/h (3 Bft) W-SW 247 0 min 0,000 mm 0,0 UV-I 21 W/m 4,3 C -0,6 C 30,6 km/h (5 Bft) 89,47 %
09.12.2018 09:40 6,3 C 4,4 C 5,6 C 86 % 1003,0 hPa 0,0 l/m 15,3 km/h (3 Bft) W 271 0 min 0,000 mm 0,0 UV-I 21 W/m 4,1 C 0,5 C 19,3 km/h (3 Bft) 97,86 %
09.12.2018 09:42 6,3 C 4,4 C 5,6 C 86 % 1003,0 hPa 0,0 l/m 22,8 km/h (4 Bft) S-SW 208 0 min 0,000 mm 0,0 UV-I 24 W/m 4,1 C -2,5 C 41,8 km/h (6 Bft) 96,08 %
09.12.2018 09:44 6,4 C 4,4 C 5,6 C 85 % 1003,0 hPa 0,0 l/m 31,3 km/h (5 Bft) W-SW 237 0 min 0,000 mm 0,0 UV-I 22 W/m 4,1 C -4,7 C 54,7 km/h (7 Bft) 96,00 %
09.12.2018 09:46 6,4 C 4,4 C 5,6 C 85 % 1003,0 hPa 0,0 l/m 21,7 km/h (4 Bft) W-SW 257 0 min 0,000 mm 0,0 UV-I 25 W/m 4,1 C -2,0 C 32,2 km/h (5 Bft) 92,68 %
09.12.2018 09:48 6,4 C 4,4 C 5,6 C 85 % 1003,0 hPa 0,0 l/m 31,9 km/h (5 Bft) SW 232 0 min 0,000 mm 0,0 UV-I 39 W/m 4,1 C -4,9 C 46,7 km/h (6 Bft) 95,12 %
09.12.2018 09:50 6,3 C 4,4 C 5,6 C 85 % 1003,5 hPa 0,0 l/m 38,9 km/h (6 Bft) S-SW 212 0 min 0,000 mm 0,0 UV-I 55 W/m 4,0 C -6,4 C 57,9 km/h (7 Bft) 95,56 %
09.12.2018 09:52 6,3 C 4,4 C 5,6 C 85 % 1003,1 hPa 0,0 l/m 33,7 km/h (5 Bft) W-NW 289 0 min 0,000 mm 0,0 UV-I 38 W/m 4,0 C -5,4 C 54,7 km/h (7 Bft) 98,21 %
09.12.2018 09:54 6,2 C 4,4 C 5,6 C 85 % 1003,1 hPa 0,0 l/m 32,5 km/h (5 Bft) SW 234 0 min 0,000 mm 0,0 UV-I 34 W/m 3,9 C -5,3 C 49,9 km/h (6 Bft) 95,74 %
09.12.2018 09:56 6,2 C 4,4 C 5,6 C 85 % 1003,1 hPa 0,0 l/m 32,5 km/h (5 Bft) W-SW 245 0 min 0,000 mm 0,0 UV-I 40 W/m 3,9 C -5,3 C 45,1 km/h (6 Bft) 98,00 %
09.12.2018 09:58 6,2 C 4,4 C 5,6 C 86 % 1003,0 hPa 0,0 l/m 24,1 km/h (4 Bft) S-SW 205 0 min 0,000 mm 0,0 UV-I 43 W/m 4,0 C -3,0 C 38,6 km/h (5 Bft) 94,74 %
09.12.2018 10:00 6,1 C 4,4 C 5,6 C 86 % 1003,1 hPa 0,0 l/m 22,9 km/h (4 Bft) SW 220 0 min 0,051 mm 0,0 UV-I 43 W/m 3,9 C -2,8 C 40,2 km/h (6 Bft) 96,23 %
09.12.2018 10:02 6,1 C 4,4 C 5,0 C 86 % 1003,0 hPa 0,0 l/m 29,9 km/h (5 Bft) SW 233 0 min 0,000 mm 0,0 UV-I 42 W/m 3,9 C -4,8 C 49,9 km/h (6 Bft) 97,44 %
09.12.2018 10:04 6,1 C 4,4 C 5,0 C 85 % 1003,1 hPa 0,0 l/m 24,9 km/h (4 Bft) W-SW 254 0 min 0,000 mm 0,0 UV-I 51 W/m 3,8 C -3,4 C 37,0 km/h (5 Bft) 98,18 %
09.12.2018 10:06 6,1 C 4,4 C 5,6 C 85 % 1003,0 hPa 0,0 l/m 27,6 km/h (4 Bft) S-SW 207 0 min 0,000 mm 0,0 UV-I 58 W/m 3,8 C -4,2 C 38,6 km/h (5 Bft) 96,00 %
09.12.2018 10:08 6,1 C 4,4 C 5,6 C 85 % 1003,1 hPa 0,0 l/m 23,4 km/h (4 Bft) W-SW 246 0 min 0,000 mm 0,0 UV-I 67 W/m 3,8 C -2,9 C 35,4 km/h (5 Bft) 97,92 %
09.12.2018 10:10 6,1 C 4,4 C 5,6 C 85 % 1003,1 hPa 0,0 l/m 22,4 km/h (4 Bft) W-SW 254 0 min 0,000 mm 0,0 UV-I 72 W/m 3,8 C -2,6 C 35,4 km/h (5 Bft) 97,37 %
09.12.2018 10:12 6,1 C 4,4 C 5,6 C 84 % 1003,0 hPa 0,0 l/m 31,4 km/h (5 Bft) W-SW 242 0 min 0,000 mm 0,0 UV-I 68 W/m 3,6 C -5,2 C 49,9 km/h (6 Bft) 98,00 %
09.12.2018 10:14 6,1 C 4,4 C 5,6 C 84 % 1003,0 hPa 0,0 l/m 24,5 km/h (4 Bft) SW 225 0 min 0,000 mm 0,0 UV-I 65 W/m 3,6 C -3,3 C 45,1 km/h (6 Bft) 97,87 %
09.12.2018 10:16 6,1 C 4,4 C 5,6 C 84 % 1003,0 hPa 0,0 l/m 23,1 km/h (4 Bft) SW 223 0 min 0,000 mm 0,0 UV-I 69 W/m 3,6 C -2,9 C 43,5 km/h (6 Bft) 95,45 %
09.12.2018 10:18 6,1 C 4,4 C 5,6 C 84 % 1003,0 hPa 0,0 l/m 29,9 km/h (5 Bft) SW 216 0 min 0,000 mm 0,0 UV-I 75 W/m 3,6 C -4,8 C 41,8 km/h (6 Bft) 96,43 %
09.12.2018 10:20 6,1 C 4,4 C 5,6 C 84 % 1003,0 hPa 0,0 l/m 27,0 km/h (4 Bft) W-SW 240 0 min 0,000 mm 0,0 UV-I 85 W/m 3,6 C -4,0 C 43,5 km/h (6 Bft) 95,12 %
09.12.2018 10:22 6,1 C 4,4 C 5,6 C 84 % 1003,0 hPa 0,0 l/m 21,6 km/h (4 Bft) W-SW 255 0 min 0,000 mm 0,0 UV-I 97 W/m 3,6 C -2,3 C 35,4 km/h (5 Bft) 94,74 %
09.12.2018 10:24 6,2 C 4,4 C 5,6 C 84 % 1003,0 hPa 0,0 l/m 28,0 km/h (4 Bft) SW 229 0 min 0,000 mm 0,0 UV-I 99 W/m 3,7 C -4,2 C 43,5 km/h (6 Bft) 94,92 %
09.12.2018 10:26 6,2 C 4,4 C 5,6 C 84 % 1003,1 hPa 0,0 l/m 31,8 km/h (5 Bft) W-SW 240 0 min 0,000 mm 0,0 UV-I 93 W/m 3,7 C -5,1 C 49,9 km/h (6 Bft) 94,74 %
09.12.2018 10:28 6,3 C 4,4 C 5,6 C 83 % 1003,1 hPa 0,0 l/m 26,9 km/h (4 Bft) W-SW 239 0 min 0,000 mm 0,0 UV-I 80 W/m 3,6 C -3,7 C 38,6 km/h (5 Bft) 92,00 %
09.12.2018 10:30 6,3 C 4,4 C 5,6 C 83 % 1003,1 hPa 0,0 l/m 28,0 km/h (4 Bft) W-SW 240 0 min 0,000 mm 0,0 UV-I 64 W/m 3,6 C -4,0 C 43,5 km/h (6 Bft) 95,45 %
09.12.2018 10:32 6,3 C 4,4 C 5,6 C 83 % 1003,1 hPa 0,0 l/m 30,8 km/h (5 Bft) SW 230 0 min 0,000 mm 0,0 UV-I 45 W/m 3,6 C -4,7 C 45,1 km/h (6 Bft) 94,64 %
09.12.2018 10:34 6,3 C 4,4 C 5,6 C 83 % 1003,1 hPa 0,0 l/m 39,0 km/h (6 Bft) W-SW 240 0 min 0,000 mm 0,0 UV-I 35 W/m 3,6 C -6,4 C 54,7 km/h (7 Bft) 91,43 %
09.12.2018 10:36 6,3 C 4,4 C 5,6 C 82 % 1003,1 hPa 0,0 l/m 31,1 km/h (5 Bft) W 276 0 min 0,000 mm 0,0 UV-I 42 W/m 3,5 C -4,8 C 43,5 km/h (6 Bft) 94,34 %
09.12.2018 10:38 6,4 C 4,4 C 5,6 C 82 % 1003,0 hPa 0,0 l/m 36,8 km/h (5 Bft) SW 229 0 min 0,000 mm 0,0 UV-I 48 W/m 3,6 C -5,9 C 56,3 km/h (7 Bft) 96,00 %
09.12.2018 10:40 6,4 C 4,4 C 5,6 C 82 % 1003,0 hPa 0,0 l/m 27,2 km/h (4 Bft) W-SW 240 0 min 0,000 mm 0,0 UV-I 46 W/m 3,6 C -3,7 C 41,8 km/h (6 Bft) 93,62 %
09.12.2018 10:42 6,4 C 4,4 C 5,6 C 82 % 1002,9 hPa 0,0 l/m 31,5 km/h (5 Bft) SW 225 0 min 0,000 mm 0,0 UV-I 51 W/m 3,6 C -4,8 C 41,8 km/h (6 Bft) 97,44 %
09.12.2018 10:44 6,4 C 4,4 C 5,6 C 82 % 1002,9 hPa 0,0 l/m 25,7 km/h (4 Bft) W-SW 240 0 min 0,000 mm 0,0 UV-I 54 W/m 3,6 C -3,3 C 41,8 km/h (6 Bft) 96,00 %
09.12.2018 10:46 6,4 C 4,4 C 5,6 C 82 % 1002,9 hPa 0,0 l/m 28,1 km/h (4 Bft) W 275 0 min 0,000 mm 0,0 UV-I 48 W/m 3,6 C -3,9 C 45,1 km/h (6 Bft) 97,87 %
09.12.2018 10:48 6,4 C 4,4 C 5,6 C 82 % 1002,9 hPa 0,0 l/m 26,2 km/h (4 Bft) W 259 0 min 0,000 mm 0,0 UV-I 42 W/m 3,6 C -3,4 C 40,2 km/h (6 Bft) 97,87 %
09.12.2018 10:50 6,4 C 4,4 C 5,6 C 82 % 1002,9 hPa 0,0 l/m 29,8 km/h (5 Bft) W-SW 243 0 min 0,000 mm 0,0 UV-I 34 W/m 3,6 C -4,4 C 40,2 km/h (6 Bft) 97,73 %
09.12.2018 10:52 6,4 C 4,4 C 5,6 C 82 % 1003,0 hPa 0,0 l/m 23,4 km/h (4 Bft) W-SW 256 0 min 0,000 mm 0,0 UV-I 37 W/m 3,6 C -2,5 C 41,8 km/h (6 Bft) 97,87 %
09.12.2018 10:54 6,4 C 4,4 C 5,6 C 82 % 1002,9 hPa 0,0 l/m 31,2 km/h (5 Bft) W-SW 242 0 min 0,000 mm 0,0 UV-I 45 W/m 3,6 C -4,7 C 45,1 km/h (6 Bft) 95,74 %
09.12.2018 10:56 6,4 C 4,4 C 5,6 C 81 % 1002,9 hPa 0,0 l/m 27,2 km/h (4 Bft) W-SW 258 0 min 0,000 mm 0,0 UV-I 49 W/m 3,4 C -3,7 C 40,2 km/h (6 Bft) 95,45 %
09.12.2018 10:58 6,5 C 4,4 C 6,1 C 81 % 1002,9 hPa 0,0 l/m 29,7 km/h (5 Bft) SW 230 0 min 0,000 mm 0,0 UV-I 46 W/m 3,5 C -4,2 C 45,1 km/h (6 Bft) 96,23 %
09.12.2018 11:00 6,6 C 4,4 C 6,1 C 81 % 1002,8 hPa 0,0 l/m 24,2 km/h (4 Bft) W-SW 254 0 min 0,076 mm 0,0 UV-I 41 W/m 3,6 C -2,5 C 37,0 km/h (5 Bft) 100,00 %
09.12.2018 11:02 6,6 C 4,4 C 6,1 C 81 % 1002,8 hPa 0,0 l/m 28,9 km/h (5 Bft) W-NW 284 0 min 0,000 mm 0,0 UV-I 39 W/m 3,6 C -3,9 C 45,1 km/h (6 Bft) 97,37 %
09.12.2018 11:04 6,6 C 4,4 C 6,1 C 81 % 1002,8 hPa 0,0 l/m 26,6 km/h (4 Bft) W-SW 246 0 min 0,000 mm 0,0 UV-I 40 W/m 3,6 C -3,2 C 37,0 km/h (5 Bft) 98,31 %
09.12.2018 11:06 6,7 C 4,4 C 6,1 C 81 % 1002,8 hPa 0,0 l/m 26,0 km/h (4 Bft) W-NW 286 0 min 0,000 mm 0,0 UV-I 45 W/m 3,7 C -2,9 C 41,8 km/h (6 Bft) 96,00 %
09.12.2018 11:08 6,7 C 4,4 C 6,1 C 81 % 1002,8 hPa 0,0 l/m 26,2 km/h (4 Bft) W-SW 254 0 min 0,000 mm 0,0 UV-I 53 W/m 3,7 C -3,0 C 40,2 km/h (6 Bft) 97,37 %
09.12.2018 11:10 6,7 C 4,4 C 6,1 C 81 % 1002,8 hPa 0,0 l/m 30,3 km/h (5 Bft) SW 233 0 min 0,000 mm 0,0 UV-I 55 W/m 3,7 C -4,1 C 46,7 km/h (6 Bft) 97,87 %
09.12.2018 11:12 6,8 C 4,4 C 6,1 C 80 % 1002,8 hPa 0,0 l/m 31,3 km/h (5 Bft) W-SW 238 0 min 0,000 mm 0,0 UV-I 51 W/m 3,6 C -4,2 C 46,7 km/h (6 Bft) 97,22 %
09.12.2018 11:14 6,8 C 4,4 C 6,1 C 81 % 1002,8 hPa 0,0 l/m 25,2 km/h (4 Bft) W-SW 252 0 min 0,000 mm 0,0 UV-I 48 W/m 3,8 C -2,6 C 43,5 km/h (6 Bft) 96,55 %
09.12.2018 11:16 6,8 C 4,4 C 6,1 C 80 % 1002,8 hPa 0,0 l/m 30,3 km/h (5 Bft) W-SW 245 0 min 0,000 mm 0,0 UV-I 50 W/m 3,6 C -3,9 C 48,3 km/h (6 Bft) 97,73 %
09.12.2018 11:18 6,9 C 4,4 C 6,1 C 80 % 1002,8 hPa 0,0 l/m 31,6 km/h (5 Bft) W 275 0 min 0,000 mm 0,0 UV-I 53 W/m 3,7 C -4,1 C 43,5 km/h (6 Bft) 100,00 %
09.12.2018 11:20 6,9 C 4,4 C 6,1 C 81 % 1002,8 hPa 0,0 l/m 25,7 km/h (4 Bft) W-SW 240 0 min 0,000 mm 0,0 UV-I 60 W/m 3,9 C -2,6 C 43,5 km/h (6 Bft) 100,00 %
09.12.2018 11:22 6,9 C 4,4 C 6,1 C 81 % 1002,8 hPa 0,0 l/m 27,8 km/h (4 Bft) W 261 0 min 0,000 mm 0,0 UV-I 56 W/m 3,9 C -3,1 C 41,8 km/h (6 Bft) 100,00 %
09.12.2018 11:24 6,9 C 4,4 C 6,1 C 81 % 1002,8 hPa 0,0 l/m 29,4 km/h (5 Bft) SW 217 0 min 0,000 mm 0,0 UV-I 51 W/m 3,9 C -3,6 C 46,7 km/h (6 Bft) 100,00 %
09.12.2018 11:26 6,9 C 4,4 C 6,1 C 80 % 1002,9 hPa 0,0 l/m 28,5 km/h (4 Bft) W-SW 248 0 min 0,000 mm 0,0 UV-I 47 W/m 3,7 C -3,3 C 43,5 km/h (6 Bft) 100,00 %
09.12.2018 11:28 6,9 C 4,4 C 6,1 C 80 % 1002,8 hPa 0,0 l/m 30,3 km/h (5 Bft) W-SW 254 0 min 0,000 mm 0,0 UV-I 48 W/m 3,7 C -3,8 C 49,9 km/h (6 Bft) 97,87 %
09.12.2018 11:30 7,0 C 4,4 C 6,1 C 80 % 1002,8 hPa 0,0 l/m 29,4 km/h (5 Bft) SW 221 0 min 0,000 mm 0,0 UV-I 50 W/m 3,8 C -3,4 C 43,5 km/h (6 Bft) 100,00 %
09.12.2018 11:32 7,0 C 4,4 C 6,1 C 80 % 1002,9 hPa 0,0 l/m 33,9 km/h (5 Bft) SW 230 0 min 0,000 mm 0,0 UV-I 50 W/m 3,8 C -4,4 C 46,7 km/h (6 Bft) 96,23 %
09.12.2018 11:34 7,1 C 4,4 C 6,1 C 80 % 1003,0 hPa 0,0 l/m 40,2 km/h (6 Bft) W-SW 251 0 min 0,000 mm 0,0 UV-I 56 W/m 3,9 C -5,4 C 56,3 km/h (7 Bft) 100,00 %
09.12.2018 11:36 7,1 C 4,4 C 6,1 C 80 % 1002,9 hPa 0,0 l/m 39,5 km/h (6 Bft) SW 232 0 min 0,000 mm 0,0 UV-I 57 W/m 3,9 C -5,3 C 66,0 km/h (8 Bft) 100,00 %
09.12.2018 11:38 7,1 C 4,4 C 6,1 C 80 % 1002,9 hPa 0,0 l/m 24,4 km/h (4 Bft) W-NW 284 0 min 0,000 mm 0,0 UV-I 52 W/m 3,9 C -1,9 C 37,0 km/h (5 Bft) 96,00 %
09.12.2018 11:40 7,1 C 4,4 C 6,1 C 80 % 1002,9 hPa 0,0 l/m 36,0 km/h (5 Bft) W-SW 250 0 min 0,000 mm 0,0 UV-I 45 W/m 3,9 C -4,7 C 49,9 km/h (6 Bft) 97,87 %
09.12.2018 11:42 7,1 C 4,4 C 6,1 C 81 % 1003,1 hPa 0,0 l/m 27,3 km/h (4 Bft) W 263 0 min 0,000 mm 0,0 UV-I 38 W/m 4,1 C -2,7 C 46,7 km/h (6 Bft) 97,37 %
09.12.2018 11:44 7,0 C 4,4 C 5,6 C 81 % 1003,0 hPa 0,0 l/m 32,3 km/h (5 Bft) W-SW 246 0 min 0,000 mm 0,0 UV-I 34 W/m 4,0 C -4,1 C 45,1 km/h (6 Bft) 98,21 %
09.12.2018 11:46 6,9 C 4,4 C 5,6 C 82 % 1003,1 hPa 0,2 l/m 25,9 km/h (4 Bft) W-SW 241 0 min 0,000 mm 0,0 UV-I 38 W/m 4,0 C -2,6 C 45,1 km/h (6 Bft) 96,00 %
09.12.2018 11:48 6,8 C 4,4 C 5,6 C 83 % 1003,3 hPa 0,0 l/m 25,5 km/h (4 Bft) W 263 0 min 0,000 mm 0,0 UV-I 29 W/m 4,1 C -2,7 C 43,5 km/h (6 Bft) 100,00 %
09.12.2018 11:50 6,7 C 4,4 C 5,6 C 84 % 1003,3 hPa 0,0 l/m 22,2 km/h (4 Bft) SW 236 0 min 0,000 mm 0,0 UV-I 20 W/m 4,2 C -1,8 C 45,1 km/h (6 Bft) 96,00 %
09.12.2018 11:52 6,6 C 4,4 C 5,6 C 85 % 1003,3 hPa 0,0 l/m 22,5 km/h (4 Bft) W 271 0 min 0,000 mm 0,0 UV-I 18 W/m 4,3 C -2,0 C 41,8 km/h (6 Bft) 97,87 %
09.12.2018 11:54 6,5 C 4,4 C 5,6 C 85 % 1003,3 hPa 0,2 l/m 24,4 km/h (4 Bft) W-SW 250 0 min 0,000 mm 0,0 UV-I 16 W/m 4,2 C -2,7 C 41,8 km/h (6 Bft) 100,00 %
09.12.2018 11:56 6,4 C 4,4 C 5,6 C 86 % 1003,4 hPa 0,0 l/m 20,6 km/h (4 Bft) W-NW 284 0 min 0,000 mm 0,0 UV-I 12 W/m 4,2 C -1,6 C 29,0 km/h (5 Bft) 96,88 %
09.12.2018 11:59 6,3 C 4,4 C 5,0 C 86 % 1003,5 hPa 0,2 l/m 21,1 km/h (4 Bft) W 264 0 min 0,000 mm 0,0 UV-I 12 W/m 4,1 C -1,9 C 32,2 km/h (5 Bft) 98,53 %
09.12.2018 12:00 6,4 C 4,4 C 5,6 C 86 % 1003,5 hPa 0,0 l/m 26,3 km/h (4 Bft) W-SW 240 0 min 0,000 mm 0,0 UV-I 16 W/m 4,2 C -3,4 C 35,4 km/h (5 Bft) 100,00 %
09.12.2018 12:02 6,3 C 4,4 C 5,6 C 87 % 1003,4 hPa 0,0 l/m 21,5 km/h (4 Bft) W-SW 257 0 min 0,076 mm 0,0 UV-I 23 W/m 4,3 C -2,0 C 40,2 km/h (6 Bft) 100,00 %
09.12.2018 12:04 6,3 C 4,4 C 5,6 C 87 % 1003,4 hPa 0,2 l/m 26,5 km/h (4 Bft) W 268 0 min 0,000 mm 0,0 UV-I 21 W/m 4,3 C -3,6 C 46,7 km/h (6 Bft) 100,00 %
09.12.2018 12:06 6,3 C 4,4 C 5,6 C 87 % 1003,4 hPa 0,2 l/m 24,2 km/h (4 Bft) W-SW 251 0 min 0,000 mm 0,0 UV-I 18 W/m 4,3 C -2,9 C 33,8 km/h (5 Bft) 100,00 %
09.12.2018 12:08 6,3 C 4,4 C 5,6 C 87 % 1003,4 hPa 0,0 l/m 24,4 km/h (4 Bft) W 272 0 min 0,000 mm 0,0 UV-I 15 W/m 4,3 C -3,0 C 32,2 km/h (5 Bft) 100,00 %
09.12.2018 12:10 6,3 C 4,4 C 5,0 C 87 % 1003,4 hPa 0,2 l/m 25,1 km/h (4 Bft) W 264 0 min 0,000 mm 0,0 UV-I 14 W/m 4,3 C -3,2 C 38,6 km/h (5 Bft) 100,00 %
09.12.2018 12:12 6,2 C 4,4 C 5,0 C 88 % 1003,5 hPa 0,0 l/m 21,1 km/h (4 Bft) W 269 0 min 0,000 mm 0,0 UV-I 13 W/m 4,4 C -2,0 C 29,0 km/h (5 Bft) 100,00 %
09.12.2018 12:14 6,2 C 4,4 C 5,0 C 88 % 1003,4 hPa 0,2 l/m 15,4 km/h (3 Bft) W 269 0 min 0,000 mm 0,0 UV-I 14 W/m 4,4 C 0,3 C 20,9 km/h (4 Bft) 100,00 %
09.12.2018 12:16 6,1 C 4,4 C 5,0 C 88 % 1003,5 hPa 0,0 l/m 18,5 km/h (3 Bft) W-SW 253 0 min 0,000 mm 0,0 UV-I 14 W/m 4,3 C -1,2 C 25,7 km/h (4 Bft) 100,00 %
09.12.2018 12:18 6,1 C 4,4 C 5,0 C 89 % 1003,4 hPa 0,0 l/m 18,9 km/h (3 Bft) W-SW 256 0 min 0,000 mm 0,0 UV-I 13 W/m 4,4 C -1,3 C 29,0 km/h (5 Bft) 100,00 %
09.12.2018 12:20 6,1 C 4,4 C 5,0 C 88 % 1003,4 hPa 0,2 l/m 22,8 km/h (4 Bft) W-SW 253 0 min 0,000 mm 0,0 UV-I 13 W/m 4,3 C -2,8 C 32,2 km/h (5 Bft) 100,00 %
09.12.2018 12:22 6,1 C 4,4 C 5,0 C 88 % 1003,4 hPa 0,0 l/m 22,6 km/h (4 Bft) W-SW 241 0 min 0,000 mm 0,0 UV-I 14 W/m 4,3 C -2,7 C 33,8 km/h (5 Bft) 100,00 %
09.12.2018 12:24 6,1 C 4,4 C 5,0 C 89 % 1003,3 hPa 0,2 l/m 18,4 km/h (3 Bft) W 273 0 min 0,000 mm 0,0 UV-I 18 W/m 4,4 C -1,1 C 25,7 km/h (4 Bft) 97,56 %
09.12.2018 12:26 6,1 C 4,4 C 5,6 C 89 % 1003,4 hPa 0,0 l/m 13,1 km/h (3 Bft) W 279 0 min 0,000 mm 0,0 UV-I 21 W/m 4,4 C 1,4 C 20,9 km/h (4 Bft) 100,00 %
09.12.2018 12:28 6,1 C 4,4 C 5,6 C 89 % 1003,4 hPa 0,0 l/m 10,1 km/h (2 Bft) W 275 0 min 0,000 mm 0,0 UV-I 19 W/m 4,4 C 3,2 C 16,1 km/h (3 Bft) 100,00 %
09.12.2018 12:30 5,9 C 4,4 C 5,6 C 90 % 1003,4 hPa 0,0 l/m 16,8 km/h (3 Bft) W-NW 298 0 min 0,000 mm 0,0 UV-I 20 W/m 4,4 C -0,7 C 35,4 km/h (5 Bft) 100,00 %
09.12.2018 12:32 6,0 C 4,4 C 5,6 C 90 % 1003,4 hPa 0,0 l/m 18,4 km/h (3 Bft) W-SW 248 0 min 0,000 mm 0,0 UV-I 21 W/m 4,5 C -1,2 C 27,4 km/h (4 Bft) 97,37 %
09.12.2018 12:34 6,1 C 4,4 C 5,6 C 90 % 1003,5 hPa 0,0 l/m 13,8 km/h (3 Bft) W-NW 298 0 min 0,000 mm 0,0 UV-I 19 W/m 4,6 C 1,0 C 25,7 km/h (4 Bft) 100,00 %
09.12.2018 12:36 6,1 C 4,4 C 5,6 C 90 % 1003,5 hPa 0,0 l/m 12,2 km/h (2 Bft) W-NW 289 0 min 0,000 mm 0,0 UV-I 20 W/m 4,6 C 1,9 C 16,1 km/h (3 Bft) 97,37 %
09.12.2018 12:38 6,1 C 4,4 C 5,6 C 90 % 1003,6 hPa 0,0 l/m 8,0 km/h (2 Bft) W 273 0 min 0,000 mm 0,0 UV-I 22 W/m 4,6 C 4,8 C 12,9 km/h (3 Bft) 100,00 %
09.12.2018 12:40 6,0 C 4,4 C 5,6 C 90 % 1003,6 hPa 0,0 l/m 8,8 km/h (2 Bft) W 269 0 min 0,000 mm 0,0 UV-I 24 W/m 4,5 C 4,0 C 14,5 km/h (3 Bft) 100,00 %
09.12.2018 12:42 5,9 C 4,4 C 5,6 C 90 % 1003,5 hPa 0,0 l/m 11,8 km/h (2 Bft) W 277 0 min 0,000 mm 0,0 UV-I 31 W/m 4,4 C 1,9 C 17,7 km/h (3 Bft) 100,00 %
09.12.2018 12:44 6,0 C 4,4 C 5,6 C 90 % 1003,6 hPa 0,0 l/m 12,7 km/h (3 Bft) W 261 0 min 0,000 mm 0,0 UV-I 34 W/m 4,5 C 1,5 C 20,9 km/h (4 Bft) 100,00 %
09.12.2018 12:46 6,1 C 4,4 C 5,6 C 90 % 1003,6 hPa 0,0 l/m 22,0 km/h (4 Bft) W 279 0 min 0,000 mm 0,0 UV-I 29 W/m 4,6 C -2,5 C 29,0 km/h (5 Bft) 100,00 %
09.12.2018 12:48 6,2 C 4,4 C 5,6 C 89 % 1003,5 hPa 0,0 l/m 17,3 km/h (3 Bft) W-SW 257 0 min 0,000 mm 0,0 UV-I 30 W/m 4,5 C -0,5 C 29,0 km/h (5 Bft) 96,15 %
09.12.2018 12:50 6,3 C 4,4 C 5,6 C 89 % 1003,4 hPa 0,0 l/m 22,1 km/h (4 Bft) W 265 0 min 0,000 mm 0,0 UV-I 38 W/m 4,6 C -2,2 C 41,8 km/h (6 Bft) 97,06 %
09.12.2018 12:52 6,4 C 4,4 C 5,6 C 88 % 1003,4 hPa 0,0 l/m 26,4 km/h (4 Bft) W-SW 250 0 min 0,000 mm 0,0 UV-I 52 W/m 4,6 C -3,5 C 43,5 km/h (6 Bft) 96,00 %
09.12.2018 12:54 6,6 C 4,4 C 6,1 C 87 % 1003,3 hPa 0,0 l/m 19,9 km/h (4 Bft) W 261 0 min 0,000 mm 0,0 UV-I 64 W/m 4,6 C -1,1 C 32,2 km/h (5 Bft) 95,74 %
09.12.2018 12:56 6,7 C 4,4 C 6,1 C 87 % 1003,3 hPa 0,0 l/m 23,9 km/h (4 Bft) W 263 0 min 0,000 mm 0,0 UV-I 80 W/m 4,7 C -2,3 C 38,6 km/h (5 Bft) 100,00 %
09.12.2018 12:58 6,7 C 4,4 C 6,1 C 86 % 1003,3 hPa 0,0 l/m 18,2 km/h (3 Bft) W-NW 292 0 min 0,000 mm 0,0 UV-I 99 W/m 4,5 C -0,3 C 29,0 km/h (5 Bft) 96,00 %
09.12.2018 13:00 6,8 C 4,4 C 6,7 C 85 % 1003,3 hPa 0,0 l/m 24,7 km/h (4 Bft) W-SW 252 0 min 0,026 mm 0,0 UV-I 118 W/m 4,5 C -2,4 C 37,0 km/h (5 Bft) 94,34 %
09.12.2018 13:02 6,9 C 4,4 C 6,7 C 85 % 1003,1 hPa 0,0 l/m 26,9 km/h (4 Bft) W-SW 242 0 min 0,000 mm 0,0 UV-I 124 W/m 4,6 C -2,9 C 41,8 km/h (6 Bft) 95,12 %
09.12.2018 13:04 7,0 C 4,4 C 6,7 C 84 % 1003,1 hPa 0,0 l/m 23,2 km/h (4 Bft) W-SW 246 0 min 0,000 mm 0,0 UV-I 96 W/m 4,5 C -1,7 C 35,4 km/h (5 Bft) 96,23 %
09.12.2018 13:06 7,1 C 4,4 C 6,7 C 84 % 1003,2 hPa 0,0 l/m 21,1 km/h (4 Bft) SW 218 0 min 0,000 mm 0,0 UV-I 89 W/m 4,6 C -0,9 C 30,6 km/h (5 Bft) 93,62 %
09.12.2018 13:08 7,1 C 4,4 C 6,7 C 84 % 1003,1 hPa 0,0 l/m 23,1 km/h (4 Bft) W 267 0 min 0,000 mm 0,0 UV-I 87 W/m 4,6 C -1,5 C 41,8 km/h (6 Bft) 95,74 %
09.12.2018 13:10 7,1 C 4,4 C 6,7 C 84 % 1003,2 hPa 0,0 l/m 26,8 km/h (4 Bft) W-SW 257 0 min 0,000 mm 0,0 UV-I 91 W/m 4,6 C -2,6 C 38,6 km/h (5 Bft) 95,24 %
09.12.2018 13:12 7,1 C 4,4 C 6,1 C 84 % 1003,2 hPa 0,0 l/m 29,9 km/h (5 Bft) SW 234 0 min 0,000 mm 0,0 UV-I 75 W/m 4,6 C -3,4 C 45,1 km/h (6 Bft) 94,23 %
09.12.2018 13:14 7,1 C 4,4 C 6,1 C 84 % 1003,3 hPa 0,0 l/m 27,4 km/h (4 Bft) SW 224 0 min 0,000 mm 0,0 UV-I 46 W/m 4,6 C -2,8 C 45,1 km/h (6 Bft) 94,44 %
09.12.2018 13:16 6,9 C 4,4 C 6,1 C 84 % 1003,2 hPa 0,0 l/m 29,1 km/h (5 Bft) W 262 0 min 0,000 mm 0,0 UV-I 45 W/m 4,4 C -3,5 C 43,5 km/h (6 Bft) 100,00 %
09.12.2018 13:18 6,9 C 4,4 C 6,1 C 84 % 1003,1 hPa 0,0 l/m 31,2 km/h (5 Bft) W 265 0 min 0,000 mm 0,0 UV-I 50 W/m 4,4 C -4,0 C 46,7 km/h (6 Bft) 93,85 %
09.12.2018 13:20 6,8 C 4,4 C 6,1 C 84 % 1003,1 hPa 0,0 l/m 25,3 km/h (4 Bft) W 264 0 min 0,000 mm 0,0 UV-I 71 W/m 4,3 C -2,6 C 35,4 km/h (5 Bft) 92,00 %
09.12.2018 13:22 6,8 C 4,4 C 6,1 C 84 % 1003,0 hPa 0,0 l/m 23,5 km/h (4 Bft) W-SW 249 0 min 0,000 mm 0,0 UV-I 82 W/m 4,3 C -2,0 C 33,8 km/h (5 Bft) 97,37 %
09.12.2018 13:24 6,8 C 4,4 C 6,1 C 84 % 1002,9 hPa 0,0 l/m 28,5 km/h (4 Bft) SW 227 0 min 0,000 mm 0,0 UV-I 83 W/m 4,3 C -3,5 C 45,1 km/h (6 Bft) 97,87 %
09.12.2018 13:26 6,8 C 4,4 C 6,1 C 84 % 1002,9 hPa 0,0 l/m 27,1 km/h (4 Bft) SW 219 0 min 0,000 mm 0,0 UV-I 85 W/m 4,3 C -3,1 C 38,6 km/h (5 Bft) 97,87 %
09.12.2018 13:28 6,9 C 4,4 C 6,1 C 84 % 1002,9 hPa 0,0 l/m 25,2 km/h (4 Bft) W-SW 255 0 min 0,000 mm 0,0 UV-I 83 W/m 4,4 C -2,4 C 37,0 km/h (5 Bft) 100,00 %
09.12.2018 13:30 6,9 C 4,4 C 6,1 C 84 % 1002,8 hPa 0,0 l/m 23,3 km/h (4 Bft) W 267 0 min 0,000 mm 0,0 UV-I 84 W/m 4,4 C -1,8 C 37,0 km/h (5 Bft) 100,00 %
09.12.2018 13:32 6,9 C 4,4 C 6,1 C 84 % 1002,8 hPa 0,0 l/m 25,3 km/h (4 Bft) W-SW 237 0 min 0,000 mm 0,0 UV-I 78 W/m 4,4 C -2,5 C 40,2 km/h (6 Bft) 100,00 %
09.12.2018 13:34 7,0 C 4,4 C 6,1 C 84 % 1002,8 hPa 0,0 l/m 24,0 km/h (4 Bft) W 268 0 min 0,000 mm 0,0 UV-I 72 W/m 4,5 C -1,9 C 40,2 km/h (6 Bft) 100,00 %
09.12.2018 13:36 7,0 C 4,4 C 6,1 C 83 % 1002,8 hPa 0,0 l/m 25,1 km/h (4 Bft) SW 234 0 min 0,000 mm 0,0 UV-I 77 W/m 4,3 C -2,3 C 35,4 km/h (5 Bft) 97,87 %
09.12.2018 13:38 7,0 C 4,4 C 6,1 C 83 % 1002,9 hPa 0,0 l/m 20,2 km/h (4 Bft) W 260 0 min 0,000 mm 0,0 UV-I 77 W/m 4,3 C -0,7 C 29,0 km/h (5 Bft) 97,87 %
09.12.2018 13:40 7,0 C 4,4 C 6,1 C 84 % 1002,9 hPa 0,0 l/m 18,5 km/h (3 Bft) W 261 0 min 0,000 mm 0,0 UV-I 78 W/m 4,5 C -0,0 C 33,8 km/h (5 Bft) 100,00 %
09.12.2018 13:42 7,0 C 4,4 C 6,1 C 83 % 1002,8 hPa 0,0 l/m 18,2 km/h (3 Bft) W 267 0 min 0,000 mm 0,0 UV-I 75 W/m 4,3 C 0,1 C 30,6 km/h (5 Bft) 96,23 %
09.12.2018 13:44 7,1 C 4,4 C 6,1 C 83 % 1002,8 hPa 0,0 l/m 21,9 km/h (4 Bft) W 263 0 min 0,000 mm 0,0 UV-I 79 W/m 4,4 C -1,1 C 37,0 km/h (5 Bft) 98,00 %
09.12.2018 13:46 7,1 C 4,4 C 6,1 C 83 % 1002,8 hPa 0,0 l/m 19,1 km/h (3 Bft) W-SW 246 0 min 0,000 mm 0,0 UV-I 76 W/m 4,4 C -0,1 C 24,1 km/h (4 Bft) 97,87 %
09.12.2018 13:48 7,1 C 4,4 C 6,1 C 82 % 1002,8 hPa 0,0 l/m 22,8 km/h (4 Bft) SW 222 0 min 0,000 mm 0,0 UV-I 76 W/m 4,2 C -1,4 C 32,2 km/h (5 Bft) 96,00 %
09.12.2018 13:50 7,2 C 4,4 C 6,1 C 82 % 1002,7 hPa 0,0 l/m 26,3 km/h (4 Bft) SW 235 0 min 0,000 mm 0,0 UV-I 77 W/m 4,3 C -2,3 C 35,4 km/h (5 Bft) 97,87 %
09.12.2018 13:52 7,2 C 4,4 C 6,1 C 82 % 1002,7 hPa 0,0 l/m 29,1 km/h (5 Bft) W-SW 246 0 min 0,000 mm 0,0 UV-I 83 W/m 4,3 C -3,1 C 46,7 km/h (6 Bft) 97,62 %
09.12.2018 13:54 7,2 C 4,4 C 6,1 C 81 % 1002,7 hPa 0,0 l/m 22,4 km/h (4 Bft) W-SW 239 0 min 0,000 mm 0,0 UV-I 79 W/m 4,2 C -1,2 C 32,2 km/h (5 Bft) 96,00 %
09.12.2018 13:56 7,3 C 4,4 C 6,1 C 81 % 1002,6 hPa 0,0 l/m 26,8 km/h (4 Bft) W-SW 245 0 min 0,000 mm 0,0 UV-I 79 W/m 4,3 C -2,3 C 43,5 km/h (6 Bft) 97,73 %
09.12.2018 13:58 7,3 C 4,4 C 6,1 C 80 % 1002,7 hPa 0,0 l/m 25,3 km/h (4 Bft) SW 217 0 min 0,000 mm 0,0 UV-I 74 W/m 4,1 C -1,9 C 41,8 km/h (6 Bft) 97,87 %
09.12.2018 14:00 7,3 C 4,4 C 6,1 C 80 % 1002,6 hPa 0,0 l/m 31,5 km/h (5 Bft) W-SW 239 0 min 0,000 mm 0,0 UV-I 70 W/m 4,1 C -3,5 C 41,8 km/h (6 Bft) 95,12 %
09.12.2018 14:02 7,3 C 4,4 C 6,1 C 80 % 1002,7 hPa 0,0 l/m 25,4 km/h (4 Bft) SW 231 0 min 0,076 mm 0,0 UV-I 67 W/m 4,1 C -1,9 C 38,6 km/h (5 Bft) 96,43 %
09.12.2018 14:04 7,4 C 4,4 C 6,1 C 79 % 1002,7 hPa 0,0 l/m 33,7 km/h (5 Bft) W 273 0 min 0,000 mm 0,0 UV-I 62 W/m 4,0 C -3,8 C 46,7 km/h (6 Bft) 97,56 %
09.12.2018 14:06 7,4 C 4,4 C 6,1 C 79 % 1002,7 hPa 0,0 l/m 29,7 km/h (5 Bft) W-SW 243 0 min 0,000 mm 0,0 UV-I 58 W/m 4,0 C -2,9 C 40,2 km/h (6 Bft) 100,00 %
09.12.2018 14:09 7,4 C 4,4 C 6,7 C 78 % 1002,7 hPa 0,0 l/m 28,6 km/h (4 Bft) W-SW 243 0 min 0,000 mm 0,0 UV-I 62 W/m 3,8 C -2,7 C 46,7 km/h (6 Bft) 98,53 %
09.12.2018 14:10 7,4 C 4,4 C 6,7 C 78 % 1002,7 hPa 0,0 l/m 30,0 km/h (5 Bft) W-SW 252 0 min 0,000 mm 0,0 UV-I 59 W/m 3,8 C -3,0 C 37,0 km/h (5 Bft) 95,65 %
09.12.2018 14:12 7,4 C 4,4 C 6,7 C 78 % 1002,8 hPa 0,0 l/m 29,2 km/h (5 Bft) W-SW 239 0 min 0,000 mm 0,0 UV-I 52 W/m 3,8 C -2,8 C 56,3 km/h (7 Bft) 97,73 %
09.12.2018 14:14 7,5 C 4,4 C 6,7 C 78 % 1002,8 hPa 0,0 l/m 29,0 km/h (5 Bft) W-SW 244 0 min 0,000 mm 0,0 UV-I 56 W/m 3,9 C -2,6 C 46,7 km/h (6 Bft) 95,45 %
09.12.2018 14:16 7,5 C 4,4 C 6,7 C 78 % 1002,8 hPa 0,0 l/m 34,9 km/h (5 Bft) W-SW 242 0 min 0,000 mm 0,0 UV-I 71 W/m 3,9 C -3,9 C 56,3 km/h (7 Bft) 95,45 %
09.12.2018 14:18 7,4 C 4,4 C 6,7 C 78 % 1002,9 hPa 0,0 l/m 33,1 km/h (5 Bft) W 274 0 min 0,000 mm 0,0 UV-I 86 W/m 3,8 C -3,7 C 46,7 km/h (6 Bft) 96,23 %
09.12.2018 14:20 7,4 C 4,4 C 6,7 C 78 % 1002,9 hPa 0,0 l/m 28,2 km/h (4 Bft) W 279 0 min 0,000 mm 0,0 UV-I 80 W/m 3,8 C -2,6 C 37,0 km/h (5 Bft) 94,87 %
09.12.2018 14:22 7,4 C 4,4 C 6,7 C 78 % 1003,0 hPa 0,0 l/m 30,0 km/h (5 Bft) SW 229 0 min 0,000 mm 0,0 UV-I 68 W/m 3,8 C -3,0 C 54,7 km/h (7 Bft) 96,15 %
09.12.2018 14:24 7,3 C 4,4 C 6,7 C 78 % 1002,9 hPa 0,0 l/m 36,5 km/h (5 Bft) W 259 0 min 0,000 mm 0,0 UV-I 62 W/m 3,7 C -4,5 C 53,1 km/h (7 Bft) 94,34 %
09.12.2018 14:26 7,3 C 4,4 C 6,1 C 78 % 1003,0 hPa 0,0 l/m 29,9 km/h (5 Bft) W 273 0 min 0,000 mm 0,0 UV-I 57 W/m 3,7 C -3,1 C 43,5 km/h (6 Bft) 95,83 %
09.12.2018 14:28 7,2 C 4,4 C 6,1 C 79 % 1002,9 hPa 0,0 l/m 27,0 km/h (4 Bft) W-SW 237 0 min 0,000 mm 0,0 UV-I 53 W/m 3,8 C -2,5 C 43,5 km/h (6 Bft) 95,71 %
09.12.2018 14:30 7,2 C 4,4 C 6,1 C 79 % 1003,1 hPa 0,0 l/m 27,0 km/h (4 Bft) S-SW 209 0 min 0,000 mm 0,0 UV-I 50 W/m 3,8 C -2,5 C 45,1 km/h (6 Bft) 93,33 %
09.12.2018 14:32 7,1 C 4,4 C 6,1 C 80 % 1003,1 hPa 0,0 l/m 27,0 km/h (4 Bft) W 273 0 min 0,000 mm 0,0 UV-I 56 W/m 3,9 C -2,7 C 43,5 km/h (6 Bft) 97,56 %
09.12.2018 14:34 7,1 C 4,4 C 6,1 C 80 % 1003,1 hPa 0,0 l/m 26,2 km/h (4 Bft) W-SW 250 0 min 0,000 mm 0,0 UV-I 61 W/m 3,9 C -2,4 C 43,5 km/h (6 Bft) 92,86 %
09.12.2018 14:36 7,0 C 4,4 C 6,1 C 80 % 1003,1 hPa 0,0 l/m 29,2 km/h (5 Bft) W 276 0 min 0,000 mm 0,0 UV-I 63 W/m 3,8 C -3,4 C 46,7 km/h (6 Bft) 95,74 %
09.12.2018 14:38 7,0 C 4,4 C 6,1 C 80 % 1003,1 hPa 0,0 l/m 21,8 km/h (4 Bft) SW 220 0 min 0,000 mm 0,0 UV-I 65 W/m 3,8 C -1,2 C 33,8 km/h (5 Bft) 92,68 %
09.12.2018 14:40 6,9 C 4,4 C 6,1 C 81 % 1003,0 hPa 0,0 l/m 28,9 km/h (5 Bft) W-SW 244 0 min 0,000 mm 0,0 UV-I 65 W/m 3,9 C -3,4 C 43,5 km/h (6 Bft) 98,00 %
09.12.2018 14:42 6,9 C 4,4 C 5,6 C 81 % 1003,1 hPa 0,0 l/m 26,1 km/h (4 Bft) SW 234 0 min 0,000 mm 0,0 UV-I 69 W/m 3,9 C -2,7 C 35,4 km/h (5 Bft) 100,00 %
09.12.2018 14:44 6,8 C 4,4 C 5,6 C 81 % 1003,0 hPa 0,0 l/m 20,0 km/h (4 Bft) W-NW 283 0 min 0,000 mm 0,0 UV-I 67 W/m 3,8 C -0,8 C 27,4 km/h (4 Bft) 95,12 %
09.12.2018 14:46 6,8 C 4,4 C 5,6 C 82 % 1003,0 hPa 0,0 l/m 24,2 km/h (4 Bft) W-SW 258 0 min 0,000 mm 0,0 UV-I 66 W/m 3,9 C -2,3 C 35,4 km/h (5 Bft) 97,56 %
09.12.2018 14:48 6,7 C 4,4 C 5,6 C 82 % 1003,0 hPa 0,0 l/m 21,4 km/h (4 Bft) W-SW 250 0 min 0,000 mm 0,0 UV-I 65 W/m 3,8 C -1,5 C 33,8 km/h (5 Bft) 100,00 %
09.12.2018 14:50 6,7 C 4,4 C 5,6 C 82 % 1003,1 hPa 0,0 l/m 23,0 km/h (4 Bft) W-SW 249 0 min 0,000 mm 0,0 UV-I 62 W/m 3,8 C -2,0 C 38,6 km/h (5 Bft) 100,00 %
09.12.2018 14:52 6,7 C 4,4 C 6,1 C 82 % 1003,1 hPa 0,0 l/m 20,0 km/h (4 Bft) W 265 0 min 0,000 mm 0,0 UV-I 58 W/m 3,8 C -1,0 C 29,0 km/h (5 Bft) 100,00 %
09.12.2018 14:54 6,7 C 4,4 C 6,1 C 82 % 1003,0 hPa 0,0 l/m 20,9 km/h (4 Bft) W-SW 257 0 min 0,000 mm 0,0 UV-I 49 W/m 3,8 C -1,3 C 30,6 km/h (5 Bft) 100,00 %
09.12.2018 14:56 6,7 C 4,4 C 6,1 C 83 % 1003,1 hPa 0,0 l/m 24,0 km/h (4 Bft) W-SW 237 0 min 0,000 mm 0,0 UV-I 42 W/m 4,0 C -2,3 C 37,0 km/h (5 Bft) 100,00 %
09.12.2018 14:58 6,7 C 4,4 C 6,1 C 83 % 1003,1 hPa 0,0 l/m 26,0 km/h (4 Bft) W 267 0 min 0,000 mm 0,0 UV-I 39 W/m 4,0 C -2,9 C 40,2 km/h (6 Bft) 100,00 %
09.12.2018 15:00 6,7 C 4,4 C 6,1 C 83 % 1003,1 hPa 0,0 l/m 23,8 km/h (4 Bft) W-SW 240 0 min 0,076 mm 0,0 UV-I 34 W/m 4,0 C -2,3 C 33,8 km/h (5 Bft) 97,87 %
09.12.2018 15:02 6,7 C 4,4 C 5,6 C 83 % 1003,1 hPa 0,0 l/m 26,6 km/h (4 Bft) W 281 0 min 0,000 mm 0,0 UV-I 23 W/m 4,0 C -3,1 C 43,5 km/h (6 Bft) 97,87 %
09.12.2018 15:04 6,6 C 4,4 C 5,6 C 83 % 1003,1 hPa 0,0 l/m 30,0 km/h (5 Bft) W 263 0 min 0,000 mm 0,0 UV-I 23 W/m 3,9 C -4,1 C 41,8 km/h (6 Bft) 98,00 %
09.12.2018 15:06 6,5 C 4,4 C 5,6 C 84 % 1003,1 hPa 0,0 l/m 24,4 km/h (4 Bft) W 265 0 min 0,000 mm 0,0 UV-I 23 W/m 4,0 C -2,7 C 40,2 km/h (6 Bft) 97,22 %
09.12.2018 15:08 6,4 C 4,4 C 5,0 C 85 % 1003,1 hPa 0,0 l/m 24,0 km/h (4 Bft) W-NW 292 0 min 0,000 mm 0,0 UV-I 19 W/m 4,1 C -2,7 C 32,2 km/h (5 Bft) 98,11 %
09.12.2018 15:10 6,3 C 4,4 C 5,0 C 85 % 1003,3 hPa 0,2 l/m 22,4 km/h (4 Bft) W 267 0 min 0,000 mm 0,0 UV-I 18 W/m 4,0 C -2,4 C 32,2 km/h (5 Bft) 96,23 %
09.12.2018 15:12 6,2 C 4,4 C 5,0 C 86 % 1003,3 hPa 0,0 l/m 20,1 km/h (4 Bft) W 260 0 min 0,000 mm 0,0 UV-I 18 W/m 4,0 C -1,7 C 33,8 km/h (5 Bft) 100,00 %
09.12.2018 15:14 6,1 C 4,4 C 5,0 C 86 % 1003,4 hPa 0,0 l/m 19,6 km/h (3 Bft) W 262 0 min 0,000 mm 0,0 UV-I 16 W/m 3,9 C -1,6 C 37,0 km/h (5 Bft) 97,56 %
09.12.2018 15:16 6,1 C 4,4 C 5,0 C 87 % 1003,5 hPa 0,0 l/m 20,9 km/h (4 Bft) W-SW 248 0 min 0,000 mm 0,0 UV-I 12 W/m 4,1 C -2,1 C 32,2 km/h (5 Bft) 95,45 %
09.12.2018 15:18 6,0 C 4,4 C 5,0 C 87 % 1003,6 hPa 0,0 l/m 18,7 km/h (3 Bft) W-NW 283 0 min 0,000 mm 0,0 UV-I 8 W/m 4,0 C -1,4 C 29,0 km/h (5 Bft) 98,21 %
09.12.2018 15:20 5,9 C 4,4 C 5,0 C 88 % 1003,6 hPa 0,0 l/m 17,9 km/h (3 Bft) SW 229 0 min 0,000 mm 0,0 UV-I 6 W/m 4,1 C -1,2 C 25,7 km/h (4 Bft) 97,87 %
09.12.2018 15:22 5,9 C 4,4 C 5,0 C 88 % 1003,6 hPa 0,0 l/m 18,0 km/h (3 Bft) W-SW 243 0 min 0,000 mm 0,0 UV-I 5 W/m 4,1 C -1,2 C 29,0 km/h (5 Bft) 97,87 %
09.12.2018 15:24 5,9 C 4,4 C 5,0 C 88 % 1003,7 hPa 0,0 l/m 14,8 km/h (3 Bft) W 269 0 min 0,000 mm 0,0 UV-I 5 W/m 4,1 C 0,3 C 19,3 km/h (3 Bft) 97,37 %
09.12.2018 15:26 5,8 C 4,4 C 5,0 C 88 % 1003,6 hPa 0,0 l/m 20,1 km/h (4 Bft) W 260 0 min 0,000 mm 0,0 UV-I 5 W/m 4,0 C -2,2 C 27,4 km/h (4 Bft) 96,43 %
09.12.2018 15:28 5,8 C 4,4 C 5,0 C 88 % 1003,6 hPa 0,2 l/m 19,2 km/h (3 Bft) W 269 0 min 0,000 mm 0,0 UV-I 6 W/m 4,0 C -1,8 C 29,0 km/h (5 Bft) 94,74 %
09.12.2018 15:30 5,8 C 4,4 C 5,0 C 89 % 1003,6 hPa 0,0 l/m 26,2 km/h (4 Bft) SW 217 0 min 0,000 mm 0,0 UV-I 7 W/m 4,1 C -4,2 C 40,2 km/h (6 Bft) 96,43 %
09.12.2018 15:32 5,8 C 4,4 C 5,0 C 89 % 1003,7 hPa 0,0 l/m 22,1 km/h (4 Bft) W 274 0 min 0,000 mm 0,0 UV-I 7 W/m 4,1 C -2,9 C 37,0 km/h (5 Bft) 98,00 %
09.12.2018 15:34 5,7 C 4,4 C 5,0 C 89 % 1003,6 hPa 0,2 l/m 26,7 km/h (4 Bft) W-NW 286 0 min 0,000 mm 0,0 UV-I 7 W/m 4,0 C -4,5 C 40,2 km/h (6 Bft) 97,87 %
09.12.2018 15:36 5,7 C 4,4 C 5,0 C 89 % 1003,7 hPa 0,0 l/m 20,9 km/h (4 Bft) W-SW 258 0 min 0,000 mm 0,0 UV-I 8 W/m 4,0 C -2,6 C 30,6 km/h (5 Bft) 97,87 %
09.12.2018 15:38 5,7 C 4,4 C 5,0 C 89 % 1003,7 hPa 0,0 l/m 21,8 km/h (4 Bft) W-SW 237 0 min 0,000 mm 0,0 UV-I 9 W/m 4,0 C -2,9 C 35,4 km/h (5 Bft) 100,00 %
09.12.2018 15:40 5,6 C 4,4 C 5,0 C 89 % 1003,7 hPa 0,0 l/m 18,5 km/h (3 Bft) W 281 0 min 0,000 mm 0,0 UV-I 7 W/m 3,9 C -1,8 C 27,4 km/h (4 Bft) 96,23 %
09.12.2018 15:42 5,6 C 4,4 C 5,0 C 89 % 1003,7 hPa 0,0 l/m 15,6 km/h (3 Bft) W-SW 257 0 min 0,000 mm 0,0 UV-I 7 W/m 3,9 C -0,5 C 20,9 km/h (4 Bft) 97,62 %
09.12.2018 15:44 5,5 C 4,4 C 5,0 C 90 % 1003,7 hPa 0,0 l/m 16,9 km/h (3 Bft) W 264 0 min 0,000 mm 0,0 UV-I 7 W/m 4,0 C -1,2 C 24,1 km/h (4 Bft) 98,00 %
09.12.2018 15:46 5,4 C 4,4 C 5,0 C 90 % 1003,7 hPa 0,2 l/m 16,5 km/h (3 Bft) SW 218 0 min 0,000 mm 0,0 UV-I 7 W/m 3,9 C -1,2 C 29,0 km/h (5 Bft) 95,12 %
09.12.2018 15:48 5,4 C 4,4 C 5,0 C 90 % 1003,7 hPa 0,0 l/m 23,6 km/h (4 Bft) W-SW 256 0 min 0,000 mm 0,0 UV-I 7 W/m 3,9 C -4,0 C 30,6 km/h (5 Bft) 95,74 %
09.12.2018 15:50 5,4 C 4,4 C 5,0 C 90 % 1003,8 hPa 0,0 l/m 17,6 km/h (3 Bft) W-SW 258 0 min 0,000 mm 0,0 UV-I 7 W/m 3,9 C -1,7 C 24,1 km/h (4 Bft) 98,00 %
09.12.2018 15:52 5,4 C 4,4 C 5,0 C 90 % 1003,8 hPa 0,0 l/m 19,4 km/h (3 Bft) W 264 0 min 0,000 mm 0,0 UV-I 7 W/m 3,9 C -2,4 C 27,4 km/h (4 Bft) 97,87 %
09.12.2018 15:54 5,4 C 4,4 C 5,0 C 90 % 1003,8 hPa 0,0 l/m 24,0 km/h (4 Bft) SW 236 0 min 0,000 mm 0,0 UV-I 7 W/m 3,9 C -4,1 C 37,0 km/h (5 Bft) 97,56 %
09.12.2018 15:56 5,4 C 4,4 C 5,0 C 90 % 1003,8 hPa 0,0 l/m 20,0 km/h (4 Bft) W-SW 248 0 min 0,000 mm 0,0 UV-I 5 W/m 3,9 C -2,7 C 32,2 km/h (5 Bft) 96,43 %
09.12.2018 15:58 5,4 C 4,4 C 5,0 C 90 % 1003,8 hPa 0,0 l/m 18,1 km/h (3 Bft) W-SW 253 0 min 0,000 mm 0,0 UV-I 5 W/m 3,9 C -1,9 C 27,4 km/h (4 Bft) 98,00 %
09.12.2018 16:00 5,4 C 4,4 C 4,4 C 90 % 1003,8 hPa 0,0 l/m 24,9 km/h (4 Bft) W-SW 237 0 min 0,025 mm 0,0 UV-I 5 W/m 3,9 C -4,4 C 32,2 km/h (5 Bft) 97,56 %
09.12.2018 16:02 5,4 C 4,4 C 4,4 C 90 % 1003,8 hPa 0,0 l/m 17,4 km/h (3 Bft) W 269 0 min 0,000 mm 0,0 UV-I 5 W/m 3,9 C -1,6 C 22,5 km/h (4 Bft) 95,12 %
09.12.2018 16:04 5,4 C 4,4 C 4,4 C 90 % 1003,8 hPa 0,0 l/m 16,2 km/h (3 Bft) W-SW 240 0 min 0,000 mm 0,0 UV-I 5 W/m 3,9 C -1,0 C 22,5 km/h (4 Bft) 100,00 %
09.12.2018 16:06 5,4 C 4,4 C 4,4 C 90 % 1003,9 hPa 0,0 l/m 16,4 km/h (3 Bft) W-SW 246 0 min 0,000 mm 0,0 UV-I 5 W/m 3,9 C -1,1 C 24,1 km/h (4 Bft) 97,73 %
09.12.2018 16:08 5,3 C 4,4 C 4,4 C 91 % 1003,9 hPa 0,0 l/m 16,3 km/h (3 Bft) W 277 0 min 0,000 mm 0,0 UV-I 3 W/m 4,0 C -1,2 C 24,1 km/h (4 Bft) 100,00 %
09.12.2018 16:10 5,3 C 4,4 C 4,4 C 91 % 1003,9 hPa 0,0 l/m 16,7 km/h (3 Bft) W-SW 239 0 min 0,000 mm 0,0 UV-I 0 W/m 4,0 C -1,4 C 24,1 km/h (4 Bft) 100,00 %
09.12.2018 16:12 5,3 C 4,4 C 4,4 C 91 % 1004,0 hPa 0,0 l/m 14,9 km/h (3 Bft) W 276 0 min 0,000 mm 0,0 UV-I 0 W/m 4,0 C -0,5 C 24,1 km/h (4 Bft) 100,00 %
09.12.2018 16:14 5,3 C 4,4 C 4,4 C 91 % 1004,0 hPa 0,0 l/m 18,2 km/h (3 Bft) W-SW 248 0 min 0,000 mm 0,0 UV-I 0 W/m 4,0 C -2,0 C 25,7 km/h (4 Bft) 100,00 %
09.12.2018 16:16 5,3 C 4,4 C 4,4 C 91 % 1004,0 hPa 0,0 l/m 13,3 km/h (3 Bft) W-SW 242 0 min 0,000 mm 0,0 UV-I 0 W/m 4,0 C 0,3 C 19,3 km/h (3 Bft) 100,00 %
09.12.2018 16:18 5,4 C 4,4 C 5,0 C 91 % 1004,0 hPa 0,0 l/m 20,2 km/h (4 Bft) SW 225 0 min 0,000 mm 0,0 UV-I 0 W/m 4,1 C -2,7 C 29,0 km/h (5 Bft) 100,00 %
09.12.2018 16:20 5,4 C 4,4 C 5,0 C 91 % 1004,0 hPa 0,0 l/m 15,5 km/h (3 Bft) W-SW 250 0 min 0,000 mm 0,0 UV-I 0 W/m 4,1 C -0,7 C 25,7 km/h (4 Bft) 100,00 %
09.12.2018 16:22 5,4 C 4,4 C 5,0 C 91 % 1004,0 hPa 0,0 l/m 14,6 km/h (3 Bft) SW 225 0 min 0,000 mm 0,0 UV-I 0 W/m 4,1 C -0,2 C 24,1 km/h (4 Bft) 100,00 %
09.12.2018 16:24 5,4 C 4,4 C 5,0 C 91 % 1004,0 hPa 0,0 l/m 15,5 km/h (3 Bft) W 262 0 min 0,000 mm 0,0 UV-I 0 W/m 4,1 C -0,7 C 24,1 km/h (4 Bft) 100,00 %
09.12.2018 16:26 5,4 C 4,4 C 5,0 C 91 % 1004,0 hPa 0,0 l/m 22,6 km/h (4 Bft) W-SW 239 0 min 0,000 mm 0,0 UV-I 0 W/m 4,1 C -3,6 C 38,6 km/h (5 Bft) 100,00 %
09.12.2018 16:28 5,4 C 4,4 C 5,0 C 91 % 1004,0 hPa 0,0 l/m 18,1 km/h (3 Bft) SW 217 0 min 0,000 mm 0,0 UV-I 0 W/m 4,1 C -1,9 C 25,7 km/h (4 Bft) 100,00 %
09.12.2018 16:30 5,5 C 4,4 C 5,0 C 91 % 1004,0 hPa 0,0 l/m 17,1 km/h (3 Bft) SW 231 0 min 0,000 mm 0,0 UV-I 0 W/m 4,2 C -1,3 C 29,0 km/h (5 Bft) 100,00 %
09.12.2018 16:32 5,6 C 4,4 C 5,0 C 91 % 1003,9 hPa 0,0 l/m 14,5 km/h (3 Bft) W-SW 241 0 min 0,000 mm 0,0 UV-I 0 W/m 4,2 C 0,1 C 24,1 km/h (4 Bft) 97,73 %
09.12.2018 16:34 5,6 C 4,4 C 5,0 C 91 % 1003,9 hPa 0,0 l/m 18,7 km/h (3 Bft) S-SW 209 0 min 0,000 mm 0,0 UV-I 0 W/m 4,2 C -1,9 C 24,1 km/h (4 Bft) 100,00 %
09.12.2018 16:36 5,6 C 4,4 C 5,0 C 91 % 1003,9 hPa 0,0 l/m 19,0 km/h (3 Bft) W-SW 238 0 min 0,000 mm 0,0 UV-I 0 W/m 4,2 C -2,0 C 27,4 km/h (4 Bft) 98,11 %
09.12.2018 16:38 5,7 C 4,4 C 5,0 C 90 % 1003,9 hPa 0,0 l/m 19,0 km/h (3 Bft) W-SW 250 0 min 0,000 mm 0,0 UV-I 0 W/m 4,2 C -1,9 C 29,0 km/h (5 Bft) 100,00 %
09.12.2018 16:40 5,7 C 4,4 C 5,0 C 90 % 1004,0 hPa 0,0 l/m 20,4 km/h (4 Bft) W 265 0 min 0,000 mm 0,0 UV-I 0 W/m 4,2 C -2,4 C 35,4 km/h (5 Bft) 97,87 %
09.12.2018 16:42 5,8 C 4,4 C 5,0 C 90 % 1003,9 hPa 0,0 l/m 20,7 km/h (4 Bft) W-SW 244 0 min 0,000 mm 0,0 UV-I 0 W/m 4,3 C -2,4 C 35,4 km/h (5 Bft) 100,00 %
09.12.2018 16:44 5,8 C 4,4 C 5,0 C 89 % 1003,9 hPa 0,0 l/m 19,2 km/h (3 Bft) SW 234 0 min 0,000 mm 0,0 UV-I 0 W/m 4,1 C -1,8 C 25,7 km/h (4 Bft) 97,87 %
09.12.2018 16:46 5,8 C 4,4 C 5,0 C 89 % 1003,9 hPa 0,0 l/m 21,4 km/h (4 Bft) W-SW 254 0 min 0,000 mm 0,0 UV-I 0 W/m 4,1 C -2,7 C 30,6 km/h (5 Bft) 100,00 %
09.12.2018 16:49 5,8 C 4,4 C 5,0 C 89 % 1004,0 hPa 0,0 l/m 20,0 km/h (4 Bft) W-SW 247 0 min 0,000 mm 0,0 UV-I 0 W/m 4,1 C -2,1 C 40,2 km/h (6 Bft) 100,00 %
09.12.2018 16:50 5,8 C 4,4 C 5,0 C 89 % 1004,0 hPa 0,0 l/m 24,8 km/h (4 Bft) W 277 0 min 0,000 mm 0,0 UV-I 0 W/m 4,1 C -3,8 C 33,8 km/h (5 Bft) 100,00 %
09.12.2018 16:52 5,8 C 4,4 C 5,0 C 89 % 1004,0 hPa 0,0 l/m 18,8 km/h (3 Bft) W-SW 242 0 min 0,000 mm 0,0 UV-I 0 W/m 4,1 C -1,7 C 27,4 km/h (4 Bft) 98,21 %
09.12.2018 16:54 5,7 C 4,4 C 5,0 C 90 % 1003,9 hPa 0,0 l/m 18,4 km/h (3 Bft) W-SW 257 0 min 0,000 mm 0,0 UV-I 0 W/m 4,2 C -1,6 C 27,4 km/h (4 Bft) 97,87 %
09.12.2018 16:56 5,7 C 4,4 C 5,0 C 90 % 1004,0 hPa 0,0 l/m 18,4 km/h (3 Bft) W-SW 254 0 min 0,000 mm 0,0 UV-I 0 W/m 4,2 C -1,6 C 27,4 km/h (4 Bft) 100,00 %
09.12.2018 16:58 5,7 C 4,4 C 5,0 C 90 % 1004,0 hPa 0,0 l/m 22,6 km/h (4 Bft) W-SW 254 0 min 0,000 mm 0,0 UV-I 0 W/m 4,2 C -3,2 C 30,6 km/h (5 Bft) 100,00 %
09.12.2018 17:00 5,8 C 4,4 C 5,0 C 90 % 1004,0 hPa 0,0 l/m 23,7 km/h (4 Bft) W-SW 250 0 min 0,000 mm 0,0 UV-I 0 W/m 4,3 C -3,4 C 30,6 km/h (5 Bft) 98,00 %
09.12.2018 17:02 5,8 C 4,4 C 5,0 C 89 % 1004,0 hPa 0,2 l/m 22,9 km/h (4 Bft) SW 216 0 min 0,026 mm 0,0 UV-I 0 W/m 4,1 C -3,2 C 37,0 km/h (5 Bft) 98,00 %
09.12.2018 17:04 5,8 C 4,4 C 5,0 C 89 % 1004,1 hPa 0,0 l/m 23,9 km/h (4 Bft) W-SW 238 0 min 0,000 mm 0,0 UV-I 0 W/m 4,1 C -3,5 C 35,4 km/h (5 Bft) 97,87 %
09.12.2018 17:06 5,8 C 4,4 C 5,0 C 89 % 1004,0 hPa 0,0 l/m 19,9 km/h (4 Bft) W 259 0 min 0,000 mm 0,0 UV-I 0 W/m 4,1 C -2,1 C 30,6 km/h (5 Bft) 94,00 %
09.12.2018 17:08 5,8 C 4,4 C 5,0 C 89 % 1004,0 hPa 0,0 l/m 24,1 km/h (4 Bft) SW 233 0 min 0,000 mm 0,0 UV-I 0 W/m 4,1 C -3,6 C 37,0 km/h (5 Bft) 97,87 %
09.12.2018 17:10 5,8 C 4,4 C 5,0 C 89 % 1004,0 hPa 0,0 l/m 26,4 km/h (4 Bft) W-SW 244 0 min 0,000 mm 0,0 UV-I 0 W/m 4,1 C -4,3 C 40,2 km/h (6 Bft) 95,74 %
09.12.2018 17:12 5,8 C 4,4 C 5,0 C 89 % 1004,0 hPa 0,0 l/m 18,3 km/h (3 Bft) W-SW 244 0 min 0,000 mm 0,0 UV-I 0 W/m 4,1 C -1,5 C 29,0 km/h (5 Bft) 94,34 %
09.12.2018 17:14 5,7 C 4,4 C 5,0 C 89 % 1004,0 hPa 0,2 l/m 22,4 km/h (4 Bft) W-SW 240 0 min 0,000 mm 0,0 UV-I 0 W/m 4,0 C -3,1 C 27,4 km/h (4 Bft) 95,45 %
09.12.2018 17:16 5,7 C 4,4 C 5,0 C 89 % 1004,0 hPa 0,0 l/m 22,6 km/h (4 Bft) W-SW 246 0 min 0,000 mm 0,0 UV-I 0 W/m 4,0 C -3,2 C 35,4 km/h (5 Bft) 95,12 %
09.12.2018 17:19 5,7 C 4,4 C 5,0 C 90 % 1004,0 hPa 0,0 l/m 20,3 km/h (4 Bft) SW 234 0 min 0,000 mm 0,0 UV-I 0 W/m 4,2 C -2,4 C 32,2 km/h (5 Bft) 95,38 %
09.12.2018 17:20 5,7 C 4,4 C 5,0 C 90 % 1004,0 hPa 0,0 l/m 17,2 km/h (3 Bft) SW 228 0 min 0,000 mm 0,0 UV-I 0 W/m 4,2 C -1,1 C 27,4 km/h (4 Bft) 93,10 %
09.12.2018 17:22 5,7 C 4,4 C 5,0 C 90 % 1004,0 hPa 0,0 l/m 20,1 km/h (4 Bft) SW 221 0 min 0,000 mm 0,0 UV-I 0 W/m 4,2 C -2,3 C 29,0 km/h (5 Bft) 98,00 %
09.12.2018 17:24 5,6 C 4,4 C 5,0 C 90 % 1004,1 hPa 0,0 l/m 21,5 km/h (4 Bft) W-SW 246 0 min 0,000 mm 0,0 UV-I 0 W/m 4,1 C -3,0 C 32,2 km/h (5 Bft) 97,87 %
09.12.2018 17:26 5,6 C 4,4 C 5,0 C 90 % 1004,0 hPa 0,0 l/m 17,7 km/h (3 Bft) W-SW 245 0 min 0,000 mm 0,0 UV-I 0 W/m 4,1 C -1,5 C 29,0 km/h (5 Bft) 98,11 %
09.12.2018 17:28 5,6 C 4,4 C 5,0 C 90 % 1004,1 hPa 0,0 l/m 15,9 km/h (3 Bft) W-SW 254 0 min 0,000 mm 0,0 UV-I 0 W/m 4,1 C -0,6 C 30,6 km/h (5 Bft) 94,29 %
09.12.2018 17:30 5,6 C 4,4 C 5,0 C 90 % 1004,1 hPa 0,0 l/m 21,4 km/h (4 Bft) SW 235 0 min 0,000 mm 0,0 UV-I 0 W/m 4,1 C -2,9 C 33,8 km/h (5 Bft) 91,07 %
09.12.2018 17:32 5,6 C 4,4 C 5,0 C 90 % 1004,0 hPa 0,0 l/m 22,3 km/h (4 Bft) SW 228 0 min 0,000 mm 0,0 UV-I 0 W/m 4,1 C -3,2 C 32,2 km/h (5 Bft) 97,37 %
09.12.2018 17:34 5,6 C 4,4 C 5,0 C 90 % 1004,1 hPa 0,0 l/m 19,2 km/h (3 Bft) SW 232 0 min 0,000 mm 0,0 UV-I 0 W/m 4,1 C -2,1 C 22,5 km/h (4 Bft) 94,34 %
09.12.2018 17:36 5,6 C 4,4 C 5,0 C 90 % 1004,0 hPa 0,0 l/m 21,6 km/h (4 Bft) SW 227 0 min 0,000 mm 0,0 UV-I 0 W/m 4,1 C -3,0 C 32,2 km/h (5 Bft) 95,24 %
09.12.2018 17:38 5,6 C 4,4 C 5,0 C 90 % 1004,0 hPa 0,0 l/m 16,2 km/h (3 Bft) W 269 0 min 0,000 mm 0,0 UV-I 0 W/m 4,1 C -0,8 C 20,9 km/h (4 Bft) 93,62 %
09.12.2018 17:40 5,7 C 4,4 C 5,0 C 90 % 1004,0 hPa 0,0 l/m 17,9 km/h (3 Bft) W-SW 248 0 min 0,000 mm 0,0 UV-I 0 W/m 4,2 C -1,4 C 32,2 km/h (5 Bft) 92,73 %
09.12.2018 17:42 5,7 C 4,4 C 5,0 C 90 % 1004,0 hPa 0,2 l/m 20,1 km/h (4 Bft) SW 218 0 min 0,000 mm 0,0 UV-I 0 W/m 4,2 C -2,3 C 29,0 km/h (5 Bft) 95,56 %
09.12.2018 17:44 5,7 C 4,4 C 5,0 C 90 % 1004,0 hPa 0,0 l/m 18,8 km/h (3 Bft) W 267 0 min 0,000 mm 0,0 UV-I 0 W/m 4,2 C -1,8 C 27,4 km/h (4 Bft) 95,45 %
09.12.2018 17:46 5,7 C 4,4 C 5,0 C 90 % 1004,0 hPa 0,0 l/m 17,8 km/h (3 Bft) W-SW 254 0 min 0,000 mm 0,0 UV-I 0 W/m 4,2 C -1,4 C 29,0 km/h (5 Bft) 94,00 %
09.12.2018 17:48 5,7 C 4,4 C 5,0 C 90 % 1004,0 hPa 0,0 l/m 20,5 km/h (4 Bft) W-SW 256 0 min 0,000 mm 0,0 UV-I 0 W/m 4,2 C -2,5 C 32,2 km/h (5 Bft) 97,56 %
09.12.2018 17:50 5,7 C 4,4 C 5,0 C 90 % 1003,9 hPa 0,0 l/m 21,5 km/h (4 Bft) W-SW 258 0 min 0,000 mm 0,0 UV-I 0 W/m 4,2 C -2,8 C 32,2 km/h (5 Bft) 96,23 %
09.12.2018 17:52 5,8 C 4,4 C 5,0 C 90 % 1003,9 hPa 0,0 l/m 23,6 km/h (4 Bft) W 261 0 min 0,000 mm 0,0 UV-I 0 W/m 4,3 C -3,4 C 29,0 km/h (5 Bft) 97,87 %
09.12.2018 17:54 5,8 C 4,4 C 5,0 C 90 % 1003,9 hPa 0,0 l/m 22,4 km/h (4 Bft) SW 227 0 min 0,000 mm 0,0 UV-I 0 W/m 4,3 C -3,0 C 29,0 km/h (5 Bft) 97,56 %
09.12.2018 17:56 5,8 C 4,4 C 5,0 C 90 % 1003,9 hPa 0,0 l/m 21,0 km/h (4 Bft) W-SW 257 0 min 0,000 mm 0,0 UV-I 0 W/m 4,3 C -2,5 C 30,6 km/h (5 Bft) 97,73 %
09.12.2018 17:58 5,8 C 4,4 C 5,0 C 90 % 1004,0 hPa 0,0 l/m 24,1 km/h (4 Bft) S-SW 199 0 min 0,000 mm 0,0 UV-I 0 W/m 4,3 C -3,6 C 33,8 km/h (5 Bft) 96,23 %
09.12.2018 18:00 5,8 C 4,4 C 5,0 C 90 % 1003,9 hPa 0,0 l/m 21,1 km/h (4 Bft) W 275 0 min 0,025 mm 0,0 UV-I 0 W/m 4,3 C -2,6 C 29,0 km/h (5 Bft) 96,00 %
09.12.2018 18:02 5,9 C 4,4 C 5,0 C 90 % 1004,1 hPa 0,0 l/m 18,6 km/h (3 Bft) W-SW 247 0 min 0,000 mm 0,0 UV-I 0 W/m 4,4 C -1,5 C 32,2 km/h (5 Bft) 94,74 %
09.12.2018 18:04 5,9 C 4,4 C 5,0 C 89 % 1003,9 hPa 0,0 l/m 23,7 km/h (4 Bft) W-SW 254 0 min 0,000 mm 0,0 UV-I 0 W/m 4,2 C -3,3 C 33,8 km/h (5 Bft) 98,21 %
09.12.2018 18:06 5,9 C 4,4 C 5,0 C 90 % 1003,9 hPa 0,0 l/m 19,7 km/h (3 Bft) W 260 0 min 0,000 mm 0,0 UV-I 0 W/m 4,4 C -1,9 C 30,6 km/h (5 Bft) 95,12 %
09.12.2018 18:08 5,9 C 4,4 C 5,0 C 89 % 1003,9 hPa 0,0 l/m 19,4 km/h (3 Bft) W-SW 254 0 min 0,000 mm 0,0 UV-I 0 W/m 4,2 C -1,8 C 27,4 km/h (4 Bft) 96,23 %
09.12.2018 18:10 5,9 C 4,4 C 5,0 C 89 % 1003,9 hPa 0,0 l/m 21,1 km/h (4 Bft) SW 236 0 min 0,000 mm 0,0 UV-I 0 W/m 4,2 C -2,4 C 33,8 km/h (5 Bft) 97,56 %
09.12.2018 18:12 5,9 C 4,4 C 5,0 C 89 % 1003,9 hPa 0,0 l/m 21,1 km/h (4 Bft) W 280 0 min 0,000 mm 0,0 UV-I 0 W/m 4,2 C -2,4 C 38,6 km/h (5 Bft) 98,00 %
09.12.2018 18:14 5,9 C 4,4 C 5,0 C 89 % 1003,9 hPa 0,0 l/m 22,1 km/h (4 Bft) SW 236 0 min 0,000 mm 0,0 UV-I 0 W/m 4,2 C -2,8 C 35,4 km/h (5 Bft) 97,44 %
09.12.2018 18:16 6,0 C 4,4 C 5,0 C 89 % 1004,0 hPa 0,0 l/m 22,4 km/h (4 Bft) SW 231 0 min 0,000 mm 0,0 UV-I 0 W/m 4,3 C -2,7 C 32,2 km/h (5 Bft) 98,11 %
09.12.2018 18:18 5,9 C 4,4 C 5,0 C 89 % 1004,0 hPa 0,0 l/m 23,0 km/h (4 Bft) W-SW 248 0 min 0,000 mm 0,0 UV-I 0 W/m 4,2 C -3,1 C 33,8 km/h (5 Bft) 95,74 %
09.12.2018 18:20 6,0 C 4,4 C 5,0 C 89 % 1004,0 hPa 0,0 l/m 21,0 km/h (4 Bft) W 262 0 min 0,000 mm 0,0 UV-I 0 W/m 4,3 C -2,3 C 29,0 km/h (5 Bft) 95,12 %
09.12.2018 18:22 6,0 C 4,4 C 5,0 C 89 % 1004,1 hPa 0,0 l/m 17,2 km/h (3 Bft) SW 236 0 min 0,000 mm 0,0 UV-I 0 W/m 4,3 C -0,7 C 27,4 km/h (4 Bft) 90,91 %
09.12.2018 18:24 5,9 C 4,4 C 5,0 C 89 % 1004,1 hPa 0,0 l/m 20,0 km/h (4 Bft) W-SW 242 0 min 0,000 mm 0,0 UV-I 0 W/m 4,2 C -2,0 C 30,6 km/h (5 Bft) 94,74 %
09.12.2018 18:26 6,0 C 4,4 C 5,0 C 89 % 1004,1 hPa 0,0 l/m 23,8 km/h (4 Bft) W-SW 244 0 min 0,000 mm 0,0 UV-I 0 W/m 4,3 C -3,2 C 33,8 km/h (5 Bft) 96,23 %
09.12.2018 18:28 6,0 C 4,4 C 5,0 C 89 % 1004,1 hPa 0,0 l/m 17,8 km/h (3 Bft) W 277 0 min 0,000 mm 0,0 UV-I 0 W/m 4,3 C -1,0 C 24,1 km/h (4 Bft) 95,12 %
09.12.2018 18:30 6,0 C 4,4 C 5,0 C 89 % 1004,1 hPa 0,0 l/m 21,8 km/h (4 Bft) W-SW 258 0 min 0,000 mm 0,0 UV-I 0 W/m 4,3 C -2,5 C 37,0 km/h (5 Bft) 93,62 %
09.12.2018 18:32 6,0 C 4,4 C 5,0 C 88 % 1004,1 hPa 0,0 l/m 23,6 km/h (4 Bft) W-SW 254 0 min 0,000 mm 0,0 UV-I 0 W/m 4,2 C -3,1 C 33,8 km/h (5 Bft) 96,08 %
09.12.2018 18:34 6,1 C 4,4 C 5,0 C 88 % 1004,1 hPa 0,0 l/m 26,4 km/h (4 Bft) SW 236 0 min 0,000 mm 0,0 UV-I 0 W/m 4,3 C -3,9 C 38,6 km/h (5 Bft) 97,37 %
09.12.2018 18:36 6,1 C 4,4 C 5,0 C 88 % 1004,1 hPa 0,0 l/m 22,4 km/h (4 Bft) W-SW 247 0 min 0,000 mm 0,0 UV-I 0 W/m 4,3 C -2,6 C 32,2 km/h (5 Bft) 98,31 %
09.12.2018 18:38 6,1 C 4,4 C 5,0 C 88 % 1004,2 hPa 0,0 l/m 22,2 km/h (4 Bft) SW 233 0 min 0,000 mm 0,0 UV-I 0 W/m 4,3 C -2,5 C 35,4 km/h (5 Bft) 88,46 %
09.12.2018 18:40 6,2 C 4,4 C 5,0 C 88 % 1004,2 hPa 0,0 l/m 27,7 km/h (4 Bft) SW 227 0 min 0,000 mm 0,0 UV-I 0 W/m 4,4 C -4,1 C 37,0 km/h (5 Bft) 97,06 %
09.12.2018 18:42 6,2 C 4,4 C 5,0 C 88 % 1004,2 hPa 0,0 l/m 21,4 km/h (4 Bft) SW 225 0 min 0,000 mm 0,0 UV-I 0 W/m 4,4 C -2,1 C 30,6 km/h (5 Bft) 100,00 %
09.12.2018 18:44 6,2 C 4,4 C 5,0 C 88 % 1004,2 hPa 0,0 l/m 24,8 km/h (4 Bft) W 269 0 min 0,000 mm 0,0 UV-I 0 W/m 4,4 C -3,3 C 38,6 km/h (5 Bft) 100,00 %
09.12.2018 18:46 6,2 C 4,4 C 5,0 C 87 % 1004,3 hPa 0,0 l/m 23,9 km/h (4 Bft) W 266 0 min 0,000 mm 0,0 UV-I 0 W/m 4,2 C -3,0 C 37,0 km/h (5 Bft) 100,00 %
09.12.2018 18:48 6,2 C 4,4 C 5,0 C 87 % 1004,3 hPa 0,2 l/m 25,5 km/h (4 Bft) W 275 0 min 0,000 mm 0,0 UV-I 0 W/m 4,2 C -3,5 C 46,7 km/h (6 Bft) 100,00 %
09.12.2018 18:50 6,2 C 4,4 C 5,0 C 87 % 1004,3 hPa 0,0 l/m 24,5 km/h (4 Bft) W 269 0 min 0,000 mm 0,0 UV-I 0 W/m 4,2 C -3,2 C 41,8 km/h (6 Bft) 100,00 %
09.12.2018 18:52 6,2 C 4,4 C 5,0 C 87 % 1004,4 hPa 0,0 l/m 23,4 km/h (4 Bft) W-SW 245 0 min 0,000 mm 0,0 UV-I 0 W/m 4,2 C -2,8 C 40,2 km/h (6 Bft) 100,00 %
09.12.2018 18:54 6,1 C 4,4 C 5,0 C 88 % 1004,5 hPa 0,0 l/m 24,4 km/h (4 Bft) W 263 0 min 0,000 mm 0,0 UV-I 0 W/m 4,3 C -3,3 C 38,6 km/h (5 Bft) 100,00 %
09.12.2018 18:56 6,1 C 4,4 C 5,0 C 88 % 1004,5 hPa 0,0 l/m 20,5 km/h (4 Bft) W-SW 248 0 min 0,000 mm 0,0 UV-I 0 W/m 4,3 C -1,9 C 29,0 km/h (5 Bft) 100,00 %
09.12.2018 18:58 6,0 C 4,4 C 5,0 C 88 % 1004,5 hPa 0,0 l/m 21,8 km/h (4 Bft) W 263 0 min 0,000 mm 0,0 UV-I 0 W/m 4,2 C -2,5 C 27,4 km/h (4 Bft) 100,00 %
09.12.2018 19:00 6,0 C 4,4 C 5,0 C 88 % 1004,5 hPa 0,0 l/m 20,5 km/h (4 Bft) W 259 0 min 0,026 mm 0,0 UV-I 0 W/m 4,2 C -2,1 C 30,6 km/h (5 Bft) 97,87 %
09.12.2018 19:02 5,9 C 4,4 C 5,0 C 88 % 1004,6 hPa 0,0 l/m 22,1 km/h (4 Bft) W 266 0 min 0,000 mm 0,0 UV-I 0 W/m 4,1 C -2,8 C 33,8 km/h (5 Bft) 100,00 %
09.12.2018 19:04 5,9 C 4,4 C 5,0 C 88 % 1004,6 hPa 0,0 l/m 24,2 km/h (4 Bft) SW 232 0 min 0,000 mm 0,0 UV-I 0 W/m 4,1 C -3,5 C 43,5 km/h (6 Bft) 100,00 %
09.12.2018 19:06 5,9 C 4,4 C 5,0 C 88 % 1004,5 hPa 0,0 l/m 25,1 km/h (4 Bft) S-SW 195 0 min 0,000 mm 0,0 UV-I 0 W/m 4,1 C -3,8 C 32,2 km/h (5 Bft) 100,00 %
09.12.2018 19:08 5,9 C 4,4 C 5,0 C 88 % 1004,5 hPa 0,0 l/m 18,2 km/h (3 Bft) W-SW 256 0 min 0,000 mm 0,0 UV-I 0 W/m 4,1 C -1,3 C 29,0 km/h (5 Bft) 96,23 %
09.12.2018 19:10 5,9 C 4,4 C 5,0 C 89 % 1004,6 hPa 0,2 l/m 21,5 km/h (4 Bft) W 278 0 min 0,000 mm 0,0 UV-I 0 W/m 4,2 C -2,6 C 38,6 km/h (5 Bft) 100,00 %
09.12.2018 19:12 5,9 C 4,4 C 5,0 C 89 % 1004,6 hPa 0,0 l/m 23,2 km/h (4 Bft) W-SW 242 0 min 0,000 mm 0,0 UV-I 0 W/m 4,2 C -3,1 C 37,0 km/h (5 Bft) 100,00 %
09.12.2018 19:14 5,9 C 4,4 C 5,0 C 89 % 1004,6 hPa 0,0 l/m 22,1 km/h (4 Bft) W 268 0 min 0,000 mm 0,0 UV-I 0 W/m 4,2 C -2,8 C 29,0 km/h (5 Bft) 97,14 %
09.12.2018 19:16 5,9 C 4,4 C 5,0 C 89 % 1004,7 hPa 0,0 l/m 18,3 km/h (3 Bft) SW 236 0 min 0,000 mm 0,0 UV-I 0 W/m 4,2 C -1,3 C 25,7 km/h (4 Bft) 98,11 %
09.12.2018 19:18 5,9 C 4,4 C 5,0 C 89 % 1004,7 hPa 0,0 l/m 18,4 km/h (3 Bft) W-SW 254 0 min 0,000 mm 0,0 UV-I 0 W/m 4,2 C -1,4 C 25,7 km/h (4 Bft) 97,56 %
09.12.2018 19:20 5,9 C 4,4 C 5,0 C 89 % 1004,8 hPa 0,0 l/m 17,7 km/h (3 Bft) SW 223 0 min 0,000 mm 0,0 UV-I 0 W/m 4,2 C -1,1 C 24,1 km/h (4 Bft) 98,11 %
09.12.2018 19:22 5,9 C 4,4 C 5,0 C 89 % 1004,8 hPa 0,0 l/m 17,6 km/h (3 Bft) W-SW 257 0 min 0,000 mm 0,0 UV-I 0 W/m 4,2 C -1,0 C 33,8 km/h (5 Bft) 97,56 %
09.12.2018 19:24 5,9 C 4,4 C 5,0 C 89 % 1004,8 hPa 0,0 l/m 23,0 km/h (4 Bft) SW 227 0 min 0,000 mm 0,0 UV-I 0 W/m 4,2 C -3,1 C 32,2 km/h (5 Bft) 98,21 %
09.12.2018 19:26 5,9 C 4,4 C 5,0 C 88 % 1004,9 hPa 0,0 l/m 23,7 km/h (4 Bft) W-SW 257 0 min 0,000 mm 0,0 UV-I 0 W/m 4,1 C -3,3 C 30,6 km/h (5 Bft) 95,74 %
09.12.2018 19:28 5,9 C 4,4 C 5,0 C 88 % 1004,9 hPa 0,0 l/m 18,8 km/h (3 Bft) W 259 0 min 0,000 mm 0,0 UV-I 0 W/m 4,1 C -1,5 C 29,0 km/h (5 Bft) 97,44 %
09.12.2018 19:30 6,0 C 4,4 C 5,0 C 88 % 1004,9 hPa 0,0 l/m 20,3 km/h (4 Bft) W-SW 250 0 min 0,000 mm 0,0 UV-I 0 W/m 4,2 C -2,0 C 30,6 km/h (5 Bft) 94,00 %
09.12.2018 19:32 6,0 C 4,4 C 5,0 C 88 % 1005,0 hPa 0,0 l/m 17,5 km/h (3 Bft) W-NW 286 0 min 0,000 mm 0,0 UV-I 0 W/m 4,2 C -0,9 C 27,4 km/h (4 Bft) 96,15 %
09.12.2018 19:34 6,0 C 4,4 C 5,0 C 88 % 1005,1 hPa 0,0 l/m 21,1 km/h (4 Bft) SW 235 0 min 0,000 mm 0,0 UV-I 0 W/m 4,2 C -2,3 C 32,2 km/h (5 Bft) 97,44 %
09.12.2018 19:36 6,0 C 4,4 C 5,0 C 88 % 1005,1 hPa 0,0 l/m 19,5 km/h (3 Bft) W-SW 248 0 min 0,000 mm 0,0 UV-I 0 W/m 4,2 C -1,7 C 24,1 km/h (4 Bft) 98,11 %
09.12.2018 19:38 6,1 C 4,4 C 5,0 C 88 % 1005,1 hPa 0,0 l/m 24,4 km/h (4 Bft) SW 222 0 min 0,000 mm 0,0 UV-I 0 W/m 4,3 C -3,3 C 35,4 km/h (5 Bft) 97,37 %
09.12.2018 19:40 6,1 C 4,4 C 5,0 C 87 % 1005,1 hPa 0,0 l/m 19,6 km/h (3 Bft) W 266 0 min 0,000 mm 0,0 UV-I 0 W/m 4,1 C -1,6 C 27,4 km/h (4 Bft) 94,34 %
09.12.2018 19:42 6,1 C 4,4 C 5,0 C 87 % 1005,2 hPa 0,0 l/m 21,0 km/h (4 Bft) W-SW 253 0 min 0,000 mm 0,0 UV-I 0 W/m 4,1 C -2,1 C 35,4 km/h (5 Bft) 93,18 %
09.12.2018 19:44 6,1 C 4,4 C 5,0 C 87 % 1005,1 hPa 0,0 l/m 22,1 km/h (4 Bft) W-SW 241 0 min 0,000 mm 0,0 UV-I 0 W/m 4,1 C -2,5 C 35,4 km/h (5 Bft) 94,00 %
09.12.2018 19:46 6,1 C 4,4 C 5,0 C 87 % 1005,1 hPa 0,0 l/m 21,9 km/h (4 Bft) W-SW 247 0 min 0,000 mm 0,0 UV-I 0 W/m 4,1 C -2,4 C 35,4 km/h (5 Bft) 92,68 %
09.12.2018 19:48 6,2 C 4,4 C 5,0 C 87 % 1005,2 hPa 0,0 l/m 21,0 km/h (4 Bft) W-SW 252 0 min 0,000 mm 0,0 UV-I 0 W/m 4,2 C -2,0 C 30,6 km/h (5 Bft) 94,64 %
09.12.2018 19:50 6,1 C 4,4 C 5,0 C 87 % 1005,1 hPa 0,0 l/m 20,5 km/h (4 Bft) W-SW 239 0 min 0,000 mm 0,0 UV-I 0 W/m 4,1 C -1,9 C 29,0 km/h (5 Bft) 94,74 %
09.12.2018 19:52 6,1 C 4,4 C 5,0 C 87 % 1005,1 hPa 0,0 l/m 16,8 km/h (3 Bft) W 259 0 min 0,000 mm 0,0 UV-I 0 W/m 4,1 C -0,4 C 25,7 km/h (4 Bft) 94,00 %
09.12.2018 19:54 6,1 C 4,4 C 5,0 C 87 % 1005,2 hPa 0,0 l/m 20,2 km/h (4 Bft) W 259 0 min 0,000 mm 0,0 UV-I 0 W/m 4,1 C -1,8 C 30,6 km/h (5 Bft) 95,12 %
09.12.2018 19:56 6,1 C 4,4 C 5,0 C 87 % 1005,1 hPa 0,0 l/m 24,1 km/h (4 Bft) SW 232 0 min 0,000 mm 0,0 UV-I 0 W/m 4,1 C -3,2 C 40,2 km/h (6 Bft) 96,23 %
09.12.2018 19:58 6,2 C 4,4 C 5,0 C 87 % 1005,2 hPa 0,0 l/m 18,7 km/h (3 Bft) W 259 0 min 0,000 mm 0,0 UV-I 0 W/m 4,2 C -1,1 C 37,0 km/h (5 Bft) 98,00 %
09.12.2018 20:00 6,2 C 4,4 C 5,0 C 87 % 1005,2 hPa 0,0 l/m 22,2 km/h (4 Bft) SW 216 0 min 0,000 mm 0,0 UV-I 0 W/m 4,2 C -2,4 C 33,8 km/h (5 Bft) 97,87 %
09.12.2018 20:02 6,2 C 4,4 C 5,0 C 87 % 1005,2 hPa 0,0 l/m 21,0 km/h (4 Bft) W-SW 246 0 min 0,025 mm 0,0 UV-I 0 W/m 4,2 C -2,0 C 33,8 km/h (5 Bft) 97,37 %
09.12.2018 20:04 6,2 C 4,4 C 5,0 C 86 % 1005,2 hPa 0,0 l/m 21,2 km/h (4 Bft) SW 235 0 min 0,000 mm 0,0 UV-I 0 W/m 4,0 C -2,1 C 32,2 km/h (5 Bft) 98,00 %
09.12.2018 20:06 6,3 C 4,4 C 5,0 C 86 % 1005,2 hPa 0,0 l/m 21,2 km/h (4 Bft) W-SW 242 0 min 0,000 mm 0,0 UV-I 0 W/m 4,1 C -1,9 C 29,0 km/h (5 Bft) 97,62 %
09.12.2018 20:08 6,3 C 4,4 C 5,0 C 86 % 1005,2 hPa 0,0 l/m 19,0 km/h (3 Bft) W-SW 255 0 min 0,000 mm 0,0 UV-I 0 W/m 4,1 C -1,1 C 32,2 km/h (5 Bft) 100,00 %
09.12.2018 20:10 6,3 C 4,4 C 5,0 C 86 % 1005,3 hPa 0,0 l/m 20,1 km/h (4 Bft) W-SW 252 0 min 0,000 mm 0,0 UV-I 0 W/m 4,1 C -1,5 C 30,6 km/h (5 Bft) 95,83 %
09.12.2018 20:12 6,3 C 4,4 C 5,0 C 86 % 1005,3 hPa 0,0 l/m 22,7 km/h (4 Bft) SW 236 0 min 0,000 mm 0,0 UV-I 0 W/m 4,1 C -2,5 C 33,8 km/h (5 Bft) 100,00 %
09.12.2018 20:14 6,3 C 4,4 C 5,0 C 86 % 1005,4 hPa 0,0 l/m 21,7 km/h (4 Bft) W-SW 242 0 min 0,000 mm 0,0 UV-I 0 W/m 4,1 C -2,1 C 32,2 km/h (5 Bft) 98,00 %
09.12.2018 20:16 6,3 C 4,4 C 5,0 C 86 % 1005,4 hPa 0,0 l/m 20,5 km/h (4 Bft) W-SW 253 0 min 0,000 mm 0,0 UV-I 0 W/m 4,1 C -1,7 C 32,2 km/h (5 Bft) 100,00 %
09.12.2018 20:18 6,3 C 4,4 C 5,0 C 86 % 1005,4 hPa 0,0 l/m 19,9 km/h (4 Bft) SW 228 0 min 0,000 mm 0,0 UV-I 0 W/m 4,1 C -1,5 C 27,4 km/h (4 Bft) 96,00 %
09.12.2018 20:20 6,3 C 4,4 C 5,0 C 86 % 1005,4 hPa 0,0 l/m 17,9 km/h (3 Bft) SW 232 0 min 0,000 mm 0,0 UV-I 0 W/m 4,1 C -0,7 C 27,4 km/h (4 Bft) 100,00 %
09.12.2018 20:22 6,3 C 4,4 C 5,0 C 86 % 1005,4 hPa 0,0 l/m 23,9 km/h (4 Bft) W-SW 242 0 min 0,000 mm 0,0 UV-I 0 W/m 4,1 C -2,8 C 32,2 km/h (5 Bft) 100,00 %
09.12.2018 20:24 6,3 C 4,4 C 5,0 C 86 % 1005,4 hPa 0,0 l/m 22,1 km/h (4 Bft) W 266 0 min 0,000 mm 0,0 UV-I 0 W/m 4,1 C -2,2 C 32,2 km/h (5 Bft) 98,00 %
09.12.2018 20:26 6,2 C 4,4 C 5,0 C 86 % 1005,4 hPa 0,0 l/m 22,6 km/h (4 Bft) W 260 0 min 0,000 mm 0,0 UV-I 0 W/m 4,0 C -2,6 C 32,2 km/h (5 Bft) 94,00 %
09.12.2018 20:28 6,2 C 4,4 C 5,0 C 87 % 1005,4 hPa 0,0 l/m 18,9 km/h (3 Bft) W-SW 248 0 min 0,000 mm 0,0 UV-I 0 W/m 4,2 C -1,2 C 27,4 km/h (4 Bft) 100,00 %
09.12.2018 20:30 6,1 C 4,4 C 5,0 C 87 % 1005,4 hPa 0,0 l/m 22,6 km/h (4 Bft) SW 228 0 min 0,000 mm 0,0 UV-I 0 W/m 4,1 C -2,7 C 32,2 km/h (5 Bft) 100,00 %
09.12.2018 20:32 6,1 C 4,4 C 5,0 C 87 % 1005,4 hPa 0,0 l/m 20,8 km/h (4 Bft) W-SW 252 0 min 0,000 mm 0,0 UV-I 0 W/m 4,1 C -2,0 C 32,2 km/h (5 Bft) 100,00 %
09.12.2018 20:34 6,1 C 4,4 C 5,0 C 87 % 1005,5 hPa 0,0 l/m 18,7 km/h (3 Bft) W-SW 244 0 min 0,000 mm 0,0 UV-I 0 W/m 4,1 C -1,2 C 30,6 km/h (5 Bft) 100,00 %
09.12.2018 20:36 6,1 C 4,4 C 5,0 C 87 % 1005,5 hPa 0,0 l/m 19,8 km/h (3 Bft) W 267 0 min 0,000 mm 0,0 UV-I 0 W/m 4,1 C -1,7 C 30,6 km/h (5 Bft) 100,00 %
09.12.2018 20:38 6,1 C 4,4 C 5,0 C 87 % 1005,6 hPa 0,0 l/m 22,7 km/h (4 Bft) SW 233 0 min 0,000 mm 0,0 UV-I 0 W/m 4,1 C -2,7 C 32,2 km/h (5 Bft) 96,43 %
09.12.2018 20:40 6,1 C 4,4 C 5,0 C 87 % 1005,6 hPa 0,0 l/m 18,8 km/h (3 Bft) SW 225 0 min 0,000 mm 0,0 UV-I 0 W/m 4,1 C -1,3 C 35,4 km/h (5 Bft) 100,00 %
09.12.2018 20:42 6,1 C 4,4 C 5,0 C 87 % 1005,7 hPa 0,0 l/m 23,3 km/h (4 Bft) W-SW 243 0 min 0,000 mm 0,0 UV-I 0 W/m 4,1 C -2,9 C 37,0 km/h (5 Bft) 100,00 %
09.12.2018 20:44 6,2 C 4,4 C 5,0 C 87 % 1005,7 hPa 0,2 l/m 24,9 km/h (4 Bft) W 267 0 min 0,000 mm 0,0 UV-I 0 W/m 4,2 C -3,3 C 38,6 km/h (5 Bft) 97,87 %
09.12.2018 20:46 6,2 C 4,4 C 5,0 C 87 % 1005,7 hPa 0,0 l/m 21,3 km/h (4 Bft) W 263 0 min 0,000 mm 0,0 UV-I 0 W/m 4,2 C -2,1 C 32,2 km/h (5 Bft) 97,87 %
09.12.2018 20:48 6,2 C 4,4 C 5,0 C 87 % 1005,6 hPa 0,0 l/m 22,6 km/h (4 Bft) W-SW 258 0 min 0,000 mm 0,0 UV-I 0 W/m 4,2 C -2,6 C 37,0 km/h (5 Bft) 100,00 %
09.12.2018 20:50 6,2 C 4,4 C 5,0 C 87 % 1005,7 hPa 0,0 l/m 20,2 km/h (4 Bft) W-SW 254 0 min 0,000 mm 0,0 UV-I 0 W/m 4,2 C -1,7 C 29,0 km/h (5 Bft) 100,00 %
09.12.2018 20:52 6,2 C 4,4 C 5,0 C 87 % 1005,7 hPa 0,0 l/m 18,8 km/h (3 Bft) W 263 0 min 0,000 mm 0,0 UV-I 0 W/m 4,2 C -1,2 C 29,0 km/h (5 Bft) 97,73 %
09.12.2018 20:54 6,2 C 4,4 C 5,0 C 87 % 1005,7 hPa 0,0 l/m 24,4 km/h (4 Bft) W-SW 237 0 min 0,000 mm 0,0 UV-I 0 W/m 4,2 C -3,1 C 33,8 km/h (5 Bft) 100,00 %
09.12.2018 20:56 6,2 C 4,4 C 5,0 C 86 % 1005,7 hPa 0,0 l/m 20,1 km/h (4 Bft) W 261 0 min 0,000 mm 0,0 UV-I 0 W/m 4,0 C -1,7 C 37,0 km/h (5 Bft) 100,00 %
09.12.2018 20:58 6,2 C 4,4 C 5,0 C 86 % 1005,8 hPa 0,0 l/m 22,3 km/h (4 Bft) W 273 0 min 0,000 mm 0,0 UV-I 0 W/m 4,0 C -2,4 C 38,6 km/h (5 Bft) 97,87 %
09.12.2018 21:00 6,3 C 4,4 C 5,0 C 86 % 1005,8 hPa 0,0 l/m 23,3 km/h (4 Bft) W-SW 255 0 min 0,025 mm 0,0 UV-I 0 W/m 4,1 C -2,6 C 33,8 km/h (5 Bft) 100,00 %
09.12.2018 21:02 6,3 C 4,4 C 5,0 C 86 % 1005,8 hPa 0,0 l/m 20,1 km/h (4 Bft) W-SW 244 0 min 0,000 mm 0,0 UV-I 0 W/m 4,1 C -1,5 C 30,6 km/h (5 Bft) 98,11 %
09.12.2018 21:04 6,3 C 4,4 C 5,0 C 86 % 1005,9 hPa 0,0 l/m 26,7 km/h (4 Bft) W 274 0 min 0,000 mm 0,0 UV-I 0 W/m 4,1 C -3,7 C 41,8 km/h (6 Bft) 97,56 %
09.12.2018 21:06 6,4 C 4,4 C 5,0 C 85 % 1005,8 hPa 0,0 l/m 24,4 km/h (4 Bft) W-SW 255 0 min 0,000 mm 0,0 UV-I 0 W/m 4,1 C -2,9 C 33,8 km/h (5 Bft) 97,73 %
09.12.2018 21:08 6,4 C 4,4 C 5,0 C 85 % 1005,9 hPa 0,0 l/m 23,7 km/h (4 Bft) SW 230 0 min 0,000 mm 0,0 UV-I 0 W/m 4,1 C -2,6 C 37,0 km/h (5 Bft) 96,00 %
09.12.2018 21:10 6,4 C 4,4 C 5,6 C 85 % 1005,9 hPa 0,0 l/m 20,8 km/h (4 Bft) SW 214 0 min 0,000 mm 0,0 UV-I 0 W/m 4,1 C -1,7 C 29,0 km/h (5 Bft) 98,11 %
09.12.2018 21:12 6,4 C 4,4 C 5,6 C 85 % 1006,0 hPa 0,0 l/m 21,0 km/h (4 Bft) W 265 0 min 0,000 mm 0,0 UV-I 0 W/m 4,1 C -1,7 C 29,0 km/h (5 Bft) 94,74 %
09.12.2018 21:14 6,4 C 4,4 C 5,6 C 85 % 1006,0 hPa 0,0 l/m 23,7 km/h (4 Bft) SW 234 0 min 0,000 mm 0,0 UV-I 0 W/m 4,1 C -2,6 C 35,4 km/h (5 Bft) 96,00 %
09.12.2018 21:16 6,4 C 4,4 C 5,0 C 85 % 1006,0 hPa 0,0 l/m 23,6 km/h (4 Bft) W-NW 286 0 min 0,000 mm 0,0 UV-I 0 W/m 4,1 C -2,6 C 37,0 km/h (5 Bft) 96,00 %
09.12.2018 21:18 6,4 C 4,4 C 5,0 C 85 % 1006,0 hPa 0,0 l/m 24,8 km/h (4 Bft) W-SW 257 0 min 0,000 mm 0,0 UV-I 0 W/m 4,1 C -3,0 C 35,4 km/h (5 Bft) 95,83 %
09.12.2018 21:20 6,5 C 4,4 C 5,6 C 84 % 1006,0 hPa 0,0 l/m 34,4 km/h (5 Bft) W 273 0 min 0,000 mm 0,0 UV-I 0 W/m 4,0 C -5,3 C 49,9 km/h (6 Bft) 95,52 %
09.12.2018 21:22 6,6 C 4,4 C 5,6 C 84 % 1006,1 hPa 0,0 l/m 24,5 km/h (4 Bft) W-SW 244 0 min 0,000 mm 0,0 UV-I 0 W/m 4,1 C -2,6 C 33,8 km/h (5 Bft) 93,62 %
09.12.2018 21:24 6,6 C 4,4 C 5,6 C 84 % 1006,1 hPa 0,0 l/m 20,7 km/h (4 Bft) W-SW 257 0 min 0,000 mm 0,0 UV-I 0 W/m 4,1 C -1,4 C 29,0 km/h (5 Bft) 94,00 %
09.12.2018 21:26 6,6 C 4,4 C 5,6 C 84 % 1006,2 hPa 0,0 l/m 19,5 km/h (3 Bft) W 264 0 min 0,000 mm 0,0 UV-I 0 W/m 4,1 C -0,9 C 32,2 km/h (5 Bft) 97,87 %
09.12.2018 21:28 6,6 C 4,4 C 5,6 C 84 % 1006,2 hPa 0,0 l/m 26,8 km/h (4 Bft) W 262 0 min 0,000 mm 0,0 UV-I 0 W/m 4,1 C -3,3 C 35,4 km/h (5 Bft) 97,44 %
09.12.2018 21:30 6,6 C 4,4 C 5,6 C 84 % 1006,2 hPa 0,0 l/m 29,3 km/h (5 Bft) W-SW 252 0 min 0,000 mm 0,0 UV-I 0 W/m 4,1 C -4,0 C 35,4 km/h (5 Bft) 98,00 %
09.12.2018 21:32 6,6 C 4,4 C 5,6 C 84 % 1006,3 hPa 0,0 l/m 22,1 km/h (4 Bft) W 265 0 min 0,000 mm 0,0 UV-I 0 W/m 4,1 C -1,9 C 32,2 km/h (5 Bft) 97,87 %
09.12.2018 21:34 6,6 C 4,4 C 5,6 C 84 % 1006,3 hPa 0,0 l/m 22,4 km/h (4 Bft) W 265 0 min 0,000 mm 0,0 UV-I 0 W/m 4,1 C -2,0 C 32,2 km/h (5 Bft) 93,62 %
09.12.2018 21:36 6,6 C 4,4 C 5,6 C 84 % 1006,4 hPa 0,0 l/m 22,7 km/h (4 Bft) W-SW 249 0 min 0,000 mm 0,0 UV-I 0 W/m 4,1 C -2,1 C 32,2 km/h (5 Bft) 95,12 %
09.12.2018 21:38 6,6 C 4,4 C 5,6 C 84 % 1006,5 hPa 0,0 l/m 25,0 km/h (4 Bft) W-SW 252 0 min 0,000 mm 0,0 UV-I 0 W/m 4,1 C -2,8 C 37,0 km/h (5 Bft) 94,34 %
09.12.2018 21:40 6,6 C 4,4 C 5,6 C 84 % 1006,4 hPa 0,0 l/m 22,1 km/h (4 Bft) W 259 0 min 0,000 mm 0,0 UV-I 0 W/m 4,1 C -1,9 C 32,2 km/h (5 Bft) 96,00 %
09.12.2018 21:42 6,6 C 4,4 C 5,6 C 84 % 1006,6 hPa 0,0 l/m 18,5 km/h (3 Bft) W 261 0 min 0,000 mm 0,0 UV-I 0 W/m 4,1 C -0,5 C 29,0 km/h (5 Bft) 92,11 %
09.12.2018 21:44 6,6 C 4,4 C 5,6 C 84 % 1006,6 hPa 0,0 l/m 18,4 km/h (3 Bft) W 273 0 min 0,000 mm 0,0 UV-I 0 W/m 4,1 C -0,5 C 29,0 km/h (5 Bft) 98,21 %
09.12.2018 21:46 6,6 C 4,4 C 5,6 C 84 % 1006,6 hPa 0,0 l/m 20,1 km/h (4 Bft) W 273 0 min 0,000 mm 0,0 UV-I 0 W/m 4,1 C -1,1 C 32,2 km/h (5 Bft) 94,74 %
09.12.2018 21:48 6,6 C 4,4 C 5,6 C 84 % 1006,6 hPa 0,0 l/m 24,0 km/h (4 Bft) SW 236 0 min 0,000 mm 0,0 UV-I 0 W/m 4,1 C -2,5 C 37,0 km/h (5 Bft) 92,45 %
09.12.2018 21:50 6,6 C 4,4 C 5,6 C 84 % 1006,6 hPa 0,0 l/m 20,2 km/h (4 Bft) W 271 0 min 0,000 mm 0,0 UV-I 0 W/m 4,1 C -1,2 C 30,6 km/h (5 Bft) 94,34 %
09.12.2018 21:52 6,6 C 4,4 C 5,6 C 84 % 1006,7 hPa 0,0 l/m 21,4 km/h (4 Bft) W 269 0 min 0,000 mm 0,0 UV-I 0 W/m 4,1 C -1,6 C 29,0 km/h (5 Bft) 95,45 %
09.12.2018 21:54 6,5 C 4,4 C 5,6 C 84 % 1006,8 hPa 0,0 l/m 21,1 km/h (4 Bft) W-SW 244 0 min 0,000 mm 0,0 UV-I 0 W/m 4,0 C -1,6 C 29,0 km/h (5 Bft) 94,00 %
09.12.2018 21:56 6,4 C 4,4 C 5,6 C 85 % 1006,8 hPa 0,0 l/m 24,2 km/h (4 Bft) W-SW 238 0 min 0,000 mm 0,0 UV-I 0 W/m 4,1 C -2,8 C 37,0 km/h (5 Bft) 94,74 %
09.12.2018 21:58 6,4 C 4,4 C 5,6 C 85 % 1006,9 hPa 0,0 l/m 20,5 km/h (4 Bft) S-SW 201 0 min 0,000 mm 0,0 UV-I 0 W/m 4,1 C -1,5 C 32,2 km/h (5 Bft) 96,23 %
09.12.2018 22:00 6,4 C 4,4 C 5,6 C 85 % 1007,0 hPa 0,0 l/m 22,7 km/h (4 Bft) W-SW 246 0 min 0,026 mm 0,0 UV-I 0 W/m 4,1 C -2,3 C 35,4 km/h (5 Bft) 95,12 %
09.12.2018 22:02 6,3 C 4,4 C 5,6 C 85 % 1006,9 hPa 0,0 l/m 23,7 km/h (4 Bft) W 262 0 min 0,000 mm 0,0 UV-I 0 W/m 4,0 C -2,8 C 33,8 km/h (5 Bft) 96,23 %
09.12.2018 22:04 6,3 C 4,4 C 5,6 C 85 % 1007,0 hPa 0,0 l/m 22,3 km/h (4 Bft) W 268 0 min 0,000 mm 0,0 UV-I 0 W/m 4,0 C -2,3 C 30,6 km/h (5 Bft) 94,44 %
09.12.2018 22:06 6,4 C 4,4 C 5,6 C 85 % 1006,9 hPa 0,0 l/m 25,7 km/h (4 Bft) W 260 0 min 0,000 mm 0,0 UV-I 0 W/m 4,1 C -3,3 C 40,2 km/h (6 Bft) 94,00 %
09.12.2018 22:08 6,4 C 4,4 C 5,6 C 85 % 1007,1 hPa 0,0 l/m 21,5 km/h (4 Bft) W 271 0 min 0,000 mm 0,0 UV-I 0 W/m 4,1 C -1,9 C 32,2 km/h (5 Bft) 96,00 %
09.12.2018 22:10 6,3 C 4,4 C 5,6 C 85 % 1007,0 hPa 0,0 l/m 24,5 km/h (4 Bft) W 264 0 min 0,000 mm 0,0 UV-I 0 W/m 4,0 C -3,0 C 38,6 km/h (5 Bft) 97,87 %
09.12.2018 22:12 6,3 C 4,4 C 5,6 C 85 % 1007,0 hPa 0,0 l/m 16,6 km/h (3 Bft) W 277 0 min 0,000 mm 0,0 UV-I 0 W/m 4,0 C -0,1 C 24,1 km/h (4 Bft) 97,73 %
09.12.2018 22:14 6,3 C 4,4 C 5,6 C 85 % 1007,1 hPa 0,0 l/m 21,4 km/h (4 Bft) W 267 0 min 0,000 mm 0,0 UV-I 0 W/m 4,0 C -2,0 C 29,0 km/h (5 Bft) 96,43 %
09.12.2018 22:16 6,3 C 4,4 C 5,6 C 85 % 1007,2 hPa 0,0 l/m 18,9 km/h (3 Bft) W-SW 254 0 min 0,000 mm 0,0 UV-I 0 W/m 4,0 C -1,1 C 27,4 km/h (4 Bft) 94,74 %
09.12.2018 22:18 6,3 C 4,4 C 5,0 C 86 % 1007,3 hPa 0,0 l/m 19,3 km/h (3 Bft) W-SW 246 0 min 0,000 mm 0,0 UV-I 0 W/m 4,1 C -1,2 C 33,8 km/h (5 Bft) 98,00 %
09.12.2018 22:20 6,3 C 4,4 C 5,6 C 86 % 1007,1 hPa 0,0 l/m 23,4 km/h (4 Bft) W 281 0 min 0,000 mm 0,0 UV-I 0 W/m 4,1 C -2,7 C 41,8 km/h (6 Bft) 98,00 %
09.12.2018 22:22 6,4 C 4,4 C 5,6 C 85 % 1007,3 hPa 0,0 l/m 25,6 km/h (4 Bft) W 267 0 min 0,000 mm 0,0 UV-I 0 W/m 4,1 C -3,2 C 40,2 km/h (6 Bft) 97,87 %
09.12.2018 22:24 6,4 C 4,4 C 5,6 C 85 % 1007,2 hPa 0,0 l/m 28,5 km/h (4 Bft) W 259 0 min 0,000 mm 0,0 UV-I 0 W/m 4,1 C -4,0 C 38,6 km/h (5 Bft) 97,73 %
09.12.2018 22:26 6,4 C 4,4 C 5,6 C 85 % 1007,2 hPa 0,0 l/m 22,2 km/h (4 Bft) W 275 0 min 0,000 mm 0,0 UV-I 0 W/m 4,1 C -2,2 C 33,8 km/h (5 Bft) 97,73 %
09.12.2018 22:28 6,4 C 4,4 C 5,0 C 85 % 1007,3 hPa 0,0 l/m 21,2 km/h (4 Bft) W 264 0 min 0,000 mm 0,0 UV-I 0 W/m 4,1 C -1,8 C 35,4 km/h (5 Bft) 97,73 %
09.12.2018 22:30 6,4 C 4,4 C 5,0 C 85 % 1007,4 hPa 0,0 l/m 22,2 km/h (4 Bft) W 279 0 min 0,000 mm 0,0 UV-I 0 W/m 4,1 C -2,2 C 33,8 km/h (5 Bft) 98,11 %
09.12.2018 22:32 6,4 C 4,4 C 5,0 C 85 % 1007,4 hPa 0,0 l/m 22,7 km/h (4 Bft) W 268 0 min 0,000 mm 0,0 UV-I 0 W/m 4,1 C -2,3 C 33,8 km/h (5 Bft) 97,87 %
09.12.2018 22:34 6,4 C 4,4 C 5,0 C 85 % 1007,3 hPa 0,0 l/m 25,1 km/h (4 Bft) W-SW 247 0 min 0,000 mm 0,0 UV-I 0 W/m 4,1 C -3,1 C 35,4 km/h (5 Bft) 96,00 %
09.12.2018 22:36 6,4 C 4,4 C 5,6 C 85 % 1007,4 hPa 0,0 l/m 24,3 km/h (4 Bft) W-SW 242 0 min 0,000 mm 0,0 UV-I 0 W/m 4,1 C -2,8 C 37,0 km/h (5 Bft) 97,87 %
09.12.2018 22:38 6,4 C 4,4 C 5,6 C 85 % 1007,5 hPa 0,0 l/m 20,1 km/h (4 Bft) W 268 0 min 0,000 mm 0,0 UV-I 0 W/m 4,1 C -1,4 C 30,6 km/h (5 Bft) 95,12 %
09.12.2018 22:40 6,4 C 4,4 C 5,6 C 85 % 1007,4 hPa 0,0 l/m 23,2 km/h (4 Bft) W 267 0 min 0,000 mm 0,0 UV-I 0 W/m 4,1 C -2,5 C 29,0 km/h (5 Bft) 97,62 %
09.12.2018 22:42 6,4 C 4,4 C 5,0 C 85 % 1007,5 hPa 0,0 l/m 20,1 km/h (4 Bft) W 281 0 min 0,000 mm 0,0 UV-I 0 W/m 4,1 C -1,4 C 33,8 km/h (5 Bft) 98,28 %
09.12.2018 22:44 6,4 C 4,4 C 5,0 C 85 % 1007,5 hPa 0,0 l/m 25,5 km/h (4 Bft) W 267 0 min 0,000 mm 0,0 UV-I 0 W/m 4,1 C -3,2 C 40,2 km/h (6 Bft) 95,74 %
09.12.2018 22:46 6,4 C 4,4 C 5,0 C 85 % 1007,5 hPa 0,0 l/m 19,6 km/h (3 Bft) W-NW 287 0 min 0,000 mm 0,0 UV-I 0 W/m 4,1 C -1,2 C 27,4 km/h (4 Bft) 95,74 %
09.12.2018 22:48 6,4 C 4,4 C 5,0 C 85 % 1007,6 hPa 0,0 l/m 19,8 km/h (3 Bft) W 267 0 min 0,000 mm 0,0 UV-I 0 W/m 4,1 C -1,3 C 30,6 km/h (5 Bft) 100,00 %
09.12.2018 22:50 6,4 C 4,4 C 5,0 C 85 % 1007,7 hPa 0,0 l/m 14,8 km/h (3 Bft) W-NW 283 0 min 0,000 mm 0,0 UV-I 0 W/m 4,1 C 0,9 C 20,9 km/h (4 Bft) 100,00 %
09.12.2018 22:52 6,3 C 4,4 C 5,0 C 85 % 1007,7 hPa 0,0 l/m 15,9 km/h (3 Bft) W 274 0 min 0,000 mm 0,0 UV-I 0 W/m 4,0 C 0,2 C 27,4 km/h (4 Bft) 100,00 %
09.12.2018 22:54 6,3 C 4,4 C 5,0 C 85 % 1007,9 hPa 0,0 l/m 15,5 km/h (3 Bft) W-NW 282 0 min 0,000 mm 0,0 UV-I 0 W/m 4,0 C 0,4 C 24,1 km/h (4 Bft) 100,00 %
09.12.2018 22:56 6,3 C 4,4 C 5,0 C 86 % 1007,9 hPa 0,0 l/m 20,0 km/h (4 Bft) W 268 0 min 0,000 mm 0,0 UV-I 0 W/m 4,1 C -1,5 C 30,6 km/h (5 Bft) 100,00 %
09.12.2018 22:58 6,3 C 4,4 C 5,6 C 86 % 1007,8 hPa 0,0 l/m 23,3 km/h (4 Bft) W-SW 239 0 min 0,000 mm 0,0 UV-I 0 W/m 4,1 C -2,6 C 41,8 km/h (6 Bft) 100,00 %
09.12.2018 23:00 6,3 C 4,4 C 5,6 C 85 % 1007,9 hPa 0,0 l/m 23,5 km/h (4 Bft) W-SW 248 0 min 0,000 mm 0,0 UV-I 0 W/m 4,0 C -2,7 C 33,8 km/h (5 Bft) 100,00 %
09.12.2018 23:02 6,4 C 4,4 C 5,6 C 85 % 1007,8 hPa 0,0 l/m 24,5 km/h (4 Bft) SW 234 0 min 0,025 mm 0,0 UV-I 0 W/m 4,1 C -2,9 C 38,6 km/h (5 Bft) 97,37 %
09.12.2018 23:04 6,4 C 4,4 C 5,6 C 85 % 1008,0 hPa 0,0 l/m 22,0 km/h (4 Bft) NW 309 0 min 0,000 mm 0,0 UV-I 0 W/m 4,1 C -2,1 C 29,0 km/h (5 Bft) 98,00 %
09.12.2018 23:06 6,4 C 4,4 C 5,6 C 85 % 1008,0 hPa 0,0 l/m 21,7 km/h (4 Bft) W-NW 282 0 min 0,000 mm 0,0 UV-I 0 W/m 4,1 C -2,0 C 27,4 km/h (4 Bft) 100,00 %
09.12.2018 23:09 6,3 C 4,4 C 5,0 C 84 % 1008,1 hPa 0,0 l/m 20,0 km/h (4 Bft) W 263 0 min 0,000 mm 0,0 UV-I 0 W/m 3,8 C -1,5 C 29,0 km/h (5 Bft) 100,00 %
09.12.2018 23:10 6,3 C 4,4 C 5,0 C 84 % 1008,1 hPa 0,0 l/m 26,2 km/h (4 Bft) W-NW 285 0 min 0,000 mm 0,0 UV-I 0 W/m 3,8 C -3,5 C 35,4 km/h (5 Bft) 100,00 %
09.12.2018 23:12 6,3 C 4,4 C 5,0 C 84 % 1008,1 hPa 0,0 l/m 21,9 km/h (4 Bft) W 260 0 min 0,000 mm 0,0 UV-I 0 W/m 3,8 C -2,2 C 32,2 km/h (5 Bft) 100,00 %
09.12.2018 23:14 6,3 C 4,4 C 5,0 C 84 % 1008,1 hPa 0,0 l/m 21,5 km/h (4 Bft) W 281 0 min 0,000 mm 0,0 UV-I 0 W/m 3,8 C -2,0 C 40,2 km/h (6 Bft) 100,00 %
09.12.2018 23:16 6,2 C 4,4 C 5,0 C 84 % 1008,3 hPa 0,0 l/m 22,8 km/h (4 Bft) W 266 0 min 0,000 mm 0,0 UV-I 0 W/m 3,7 C -2,6 C 33,8 km/h (5 Bft) 100,00 %
09.12.2018 23:18 6,2 C 4,4 C 5,0 C 85 % 1008,4 hPa 0,0 l/m 21,2 km/h (4 Bft) W-SW 255 0 min 0,000 mm 0,0 UV-I 0 W/m 3,9 C -2,1 C 32,2 km/h (5 Bft) 100,00 %
09.12.2018 23:20 6,2 C 4,4 C 5,0 C 85 % 1008,4 hPa 0,0 l/m 18,9 km/h (3 Bft) W-SW 254 0 min 0,000 mm 0,0 UV-I 0 W/m 3,9 C -1,2 C 30,6 km/h (5 Bft) 100,00 %
09.12.2018 23:22 6,1 C 4,4 C 5,0 C 85 % 1008,4 hPa 0,0 l/m 23,9 km/h (4 Bft) W 267 0 min 0,000 mm 0,0 UV-I 0 W/m 3,8 C -3,1 C 35,4 km/h (5 Bft) 100,00 %
09.12.2018 23:24 6,1 C 4,4 C 5,0 C 85 % 1008,4 hPa 0,0 l/m 22,9 km/h (4 Bft) W-NW 282 0 min 0,000 mm 0,0 UV-I 0 W/m 3,8 C -2,8 C 30,6 km/h (5 Bft) 100,00 %
09.12.2018 23:26 6,1 C 4,4 C 5,0 C 86 % 1008,4 hPa 0,0 l/m 19,6 km/h (3 Bft) W 279 0 min 0,000 mm 0,0 UV-I 0 W/m 3,9 C -1,6 C 27,4 km/h (4 Bft) 98,00 %
09.12.2018 23:28 6,1 C 4,4 C 5,0 C 86 % 1008,4 hPa 0,0 l/m 21,4 km/h (4 Bft) N 349 0 min 0,000 mm 0,0 UV-I 0 W/m 3,9 C -2,3 C 32,2 km/h (5 Bft) 100,00 %
09.12.2018 23:30 6,0 C 4,4 C 5,0 C 86 % 1008,4 hPa 0,0 l/m 16,6 km/h (3 Bft) W 273 0 min 0,000 mm 0,0 UV-I 0 W/m 3,8 C -0,5 C 29,0 km/h (5 Bft) 97,87 %
09.12.2018 23:32 6,0 C 4,4 C 5,0 C 86 % 1008,4 hPa 0,0 l/m 20,0 km/h (4 Bft) W-NW 284 0 min 0,000 mm 0,0 UV-I 0 W/m 3,8 C -1,9 C 30,6 km/h (5 Bft) 97,87 %
09.12.2018 23:34 5,9 C 4,4 C 5,0 C 86 % 1008,4 hPa 0,0 l/m 19,8 km/h (3 Bft) W 276 0 min 0,000 mm 0,0 UV-I 0 W/m 3,7 C -1,9 C 30,6 km/h (5 Bft) 100,00 %
09.12.2018 23:36 5,9 C 4,4 C 4,4 C 86 % 1008,5 hPa 0,0 l/m 18,7 km/h (3 Bft) W-SW 244 0 min 0,000 mm 0,0 UV-I 0 W/m 3,7 C -1,5 C 27,4 km/h (4 Bft) 100,00 %
09.12.2018 23:38 5,9 C 4,4 C 5,0 C 87 % 1008,5 hPa 0,0 l/m 18,6 km/h (3 Bft) W 269 0 min 0,000 mm 0,0 UV-I 0 W/m 3,9 C -1,5 C 25,7 km/h (4 Bft) 100,00 %
09.12.2018 23:40 5,9 C 4,4 C 5,0 C 87 % 1008,6 hPa 0,0 l/m 16,2 km/h (3 Bft) W 259 0 min 0,000 mm 0,0 UV-I 0 W/m 3,9 C -0,4 C 24,1 km/h (4 Bft) 100,00 %
09.12.2018 23:42 5,9 C 4,4 C 5,0 C 87 % 1008,6 hPa 0,0 l/m 18,6 km/h (3 Bft) W 269 0 min 0,000 mm 0,0 UV-I 0 W/m 3,9 C -1,5 C 32,2 km/h (5 Bft) 97,37 %
09.12.2018 23:44 5,9 C 4,4 C 5,0 C 87 % 1008,6 hPa 0,0 l/m 17,6 km/h (3 Bft) W-SW 258 0 min 0,000 mm 0,0 UV-I 0 W/m 3,9 C -1,0 C 25,7 km/h (4 Bft) 94,55 %
09.12.2018 23:46 5,9 C 4,4 C 5,0 C 87 % 1008,7 hPa 0,0 l/m 21,1 km/h (4 Bft) W 277 0 min 0,000 mm 0,0 UV-I 0 W/m 3,9 C -2,4 C 30,6 km/h (5 Bft) 96,23 %
09.12.2018 23:48 5,9 C 4,4 C 5,0 C 87 % 1008,6 hPa 0,0 l/m 16,4 km/h (3 Bft) W-SW 257 0 min 0,000 mm 0,0 UV-I 0 W/m 3,9 C -0,5 C 27,4 km/h (4 Bft) 95,74 %
09.12.2018 23:50 6,0 C 4,4 C 5,0 C 87 % 1008,6 hPa 0,0 l/m 24,0 km/h (4 Bft) W-NW 283 0 min 0,000 mm 0,0 UV-I 0 W/m 4,0 C -3,3 C 37,0 km/h (5 Bft) 95,12 %
09.12.2018 23:52 6,0 C 4,4 C 5,0 C 87 % 1008,6 hPa 0,0 l/m 18,4 km/h (3 Bft) W 278 0 min 0,000 mm 0,0 UV-I 0 W/m 4,0 C -1,2 C 30,6 km/h (5 Bft) 95,74 %
09.12.2018 23:54 6,0 C 4,4 C 5,0 C 87 % 1008,7 hPa 0,0 l/m 15,0 km/h (3 Bft) NW 305 0 min 0,000 mm 0,0 UV-I 0 W/m 4,0 C 0,3 C 24,1 km/h (4 Bft) 93,62 %
09.12.2018 23:56 5,9 C 4,4 C 5,0 C 88 % 1008,9 hPa 0,0 l/m 8,2 km/h (2 Bft) N-NW 327 0 min 0,000 mm 0,0 UV-I 0 W/m 4,1 C 4,4 C 19,3 km/h (3 Bft) 96,00 %
09.12.2018 23:59 5,7 C 4,4 C 5,0 C 88 % 1009,0 hPa 0,0 l/m 9,3 km/h (2 Bft) W 271 0 min 0,000 mm 0,0 UV-I 0 W/m 3,9 C 3,3 C 16,1 km/h (3 Bft) 93,85 %
_ Min-Zeit 01:04 00:00 00:50 01:58 06:34 - 01:22 - - - - - - 00:54 10:34 01:14 18:38
Minimum _ 4,8 C 4,4 C 0,6 C 63 % 1000,5 hPa - 0,2 km/h (0 Bft) - - - - - - 0,8 C -6,4 C 1,6 km/h (1 Bft) 88,46 %
_ Max-Zeit 05:50 00:00 05:48 07:04 23:59 07:26 11:34 - - 00:00 11:00 00:00 13:02 07:20 02:18 11:36 00:16
Maximum _ 8,9 C 4,4 C 8,3 C 95 % 1009,0 hPa 0,8 l/m 40,2 km/h
W-SW (6 Bft)
- - 0 min 0,076 mm 0,0 UV-I 124 W/m 5,6 C 7,8 C 66,0 km/h
W (8 Bft)
100,00 %
Durchschnitt _ 6,5 C 4,4 C 5,4 C 84 % 1003,7 hPa #11,6 l/m 18,9 km/h (3 Bft) W-SW - #0 min. #0,838 mm 0,0 UV-I 39 W/m 3,9 C -0,2 C 28,8 km/h (5 Bft) 97,47 %